[[{"header":{"parameterUnit":"m.s-1","parameterCategory":1,"la1":31.0,"la2":29.5877,"lo1":-88.7671,"lo2":-86.6584,"dy":0.0162,"dx":0.0185,"nx":115,"ny":88,"refTime":"2024-06-26T18:00:00:Z","depth":0,"parameterNumber":2,"parameterNumberName":"U-component_of_WINDS"},"data":[0.0,0.0,0.0,0.0,0.0,0.0,0.0,0.0,0.0,0.0,0.0,0.0,0.0,0.0,0.0,0.0,0.0,0.0,0.0,0.0,0.0,0.0,0.0,0.0,0.0,0.0,0.0,0.0,0.0,0.0,0.0,0.0,0.0,0.0,0.0,0.0,0.0,0.0,0.0,0.0,0.0,0.0,0.0,0.0,0.0,0.0,0.0,0.0,0.0,0.0,0.0,0.0,0.0,0.0,0.0,0.0,0.0,0.0,0.0,0.0,0.0,0.0,0.0,0.0,0.0,0.0,0.0,0.0,0.0,0.0,0.0,0.0,0.0,0.0,0.0,0.0,0.0,0.0,0.0,0.0,0.0,0.0,0.0,0.0,0.0,0.0,0.0,0.0,0.0,0.0,0.0,0.0,0.0,0.0,0.0,0.0,0.0,0.0,0.0,0.0,0.0,0.0,0.0,0.0,0.0,0.0,0.0,0.0,0.0,0.0,0.0,0.0,0.0,0.0,0.0,0.0,0.0,0.0,0.0,0.0,0.0,0.0,0.0,0.0,0.0,0.0,0.0,0.0,0.0,0.0,0.0,0.0,0.0,0.0,0.0,0.0,0.0,0.0,0.0,0.0,0.0,0.0,0.0,0.0,0.0,0.0,0.0,0.0,0.0,0.0,0.0,0.0,0.0,0.0,0.0,0.0,0.0,0.0,0.0,0.0,0.0,0.0,0.0,0.0,0.0,0.0,0.0,0.0,0.0,0.0,0.0,0.0,0.0,0.0,0.0,0.0,0.0,0.0,0.0,0.0,0.0,0.0,0.0,0.0,0.0,0.0,0.0,0.0,0.0,0.0,0.0,0.0,0.0,0.0,0.0,0.0,0.0,0.0,0.0,0.0,0.0,0.0,0.0,0.0,0.0,0.0,0.0,0.0,0.0,0.0,0.0,0.0,0.0,0.0,0.0,0.0,0.0,0.0,0.0,0.0,0.0,0.0,0.0,0.0,0.0,0.0,0.0,0.0,0.0,0.0,0.0,0.0,0.0,0.0,0.0,0.0,0.0,0.0,0.0,0.0,0.0,0.0,0.0,0.0,0.0,0.0,0.0,0.0,0.0,0.0,0.0,0.0,0.0,0.0,0.0,0.0,0.0,0.0,0.0,0.0,0.0,0.0,0.0,0.0,0.0,0.0,0.0,0.0,0.0,0.0,0.0,0.0,0.0,0.0,0.0,0.0,0.0,0.0,0.0,0.0,0.0,0.0,0.0,0.0,0.0,0.0,0.0,0.0,0.0,0.0,0.0,0.0,0.0,0.0,0.0,0.0,0.0,0.0,0.0,0.0,0.0,0.0,0.0,0.0,0.0,0.0,0.0,0.0,0.0,0.0,0.0,0.0,0.0,0.0,0.0,0.0,0.0,0.0,0.0,0.0,0.0,0.0,0.0,0.0,0.0,0.0,0.0,0.0,0.0,0.0,0.0,0.0,0.0,0.0,0.0,0.0,0.0,0.0,0.0,0.0,0.0,0.0,0.0,0.0,0.0,0.0,0.0,0.0,0.0,0.0,0.0,0.0,0.0,0.0,0.0,0.0,0.0,0.0,0.0,0.0,0.0,0.0,0.0,0.0,0.0,0.0,0.0,0.0,0.0,0.0,0.0,0.0,0.0,0.0,0.0,0.0,0.0,0.0,0.0,0.0,0.0,0.0,0.0,0.0,0.0,0.0,0.0,0.0,0.0,0.0,0.0,0.0,0.0,0.0,0.0,0.0,0.0,0.0,0.0,0.0,0.0,0.0,0.0,0.0,0.0,0.0,0.0,0.0,0.0,0.0,0.0,0.0,0.0,0.0,0.0,0.0,0.0,0.0,0.0,0.0,0.0,0.0,0.0,0.0,0.0,0.0,0.0,0.0,0.0,0.0,0.0,0.0,0.0,0.0,0.0,0.0,0.0,0.0,0.0,0.0,0.0,0.0,0.0,0.0,0.0,0.0,0.0,0.0,0.0,0.0,0.0,0.0,0.0,0.0,0.0,0.0,0.0,0.0,0.0,0.0,0.0,0.0,0.0,0.0,0.0,0.0,0.0,0.0,0.0,0.0,0.0,0.0,0.0,0.0,0.0,0.0,0.0,0.0,0.0,0.0,0.0,0.0,0.0,0.0,0.0,0.0,0.0,0.0,0.0,0.0,0.0,0.0,0.0,0.0,0.0,0.0,0.0,0.0,0.0,0.0,0.0,0.0,0.0,0.0,0.0,0.0,0.0,0.0,0.0,0.0,0.0,0.0,0.0,0.0,0.0,0.0,0.0,0.0,0.0,0.0,0.0,0.0,0.0,0.0,0.0,0.0,0.0,0.0,0.0,0.0,0.0,0.0,0.0,0.0,0.0,0.0,0.0,0.0,0.0,0.0,0.0,0.0,0.0,0.0,0.0,0.0,0.0,0.0,0.0,0.0,0.0,0.0,0.0,0.0,0.0,0.0,0.0,0.0,0.0,0.0,0.0,0.0,0.0,0.0,0.0,0.0,0.0,0.0,0.0,0.0,0.0,0.0,0.0,0.0,0.0,0.0,0.0,0.0,0.0,0.0,0.0,0.0,0.0,0.0,0.0,0.0,0.0,0.0,0.0,0.0,0.0,0.0,0.0,0.0,0.0,0.0,0.0,0.0,0.0,0.0,0.0,0.0,0.0,0.0,0.0,0.0,0.0,0.0,0.0,0.0,0.0,0.0,0.0,0.0,0.0,0.0,0.0,0.0,0.0,0.0,0.0,0.0,0.0,0.0,0.0,0.0,0.0,0.0,0.0,0.0,0.0,0.0,0.0,0.0,0.0,0.0,0.0,0.0,0.0,0.0,0.0,0.0,0.0,0.0,0.0,0.0,0.0,0.0,0.0,0.0,0.0,0.0,0.0,0.0,0.0,0.0,0.0,0.0,0.0,0.0,0.0,0.0,0.0,0.0,0.0,0.0,0.0,0.0,0.0,0.0,0.0,0.0,0.0,0.0,0.0,0.0,0.0,0.0,0.0,0.0,0.0,0.0,0.0,0.0,0.0,0.0,0.0,0.0,0.0,0.0,0.0,0.0,0.0,0.0,0.0,0.0,0.0,0.0,0.0,0.0,0.0,0.0,0.0,0.0,0.0,0.0,0.0,0.0,0.0,0.0,0.0,0.0,0.0,0.0,0.0,0.0,0.0,0.0,0.0,0.0,0.0,0.0,0.0,0.0,0.0,0.0,0.0,0.0,0.0,0.0,0.0,0.0,0.0,0.0,0.0,0.0,0.0,0.0,0.0,0.0,0.0,0.0,0.0,0.0,0.0,0.0,0.0,0.0,0.0,0.0,0.0,0.0,0.0,0.0,0.0,0.0,0.0,0.0,0.0,0.0,0.0,0.0,0.0,0.0,0.0,0.0,0.0,0.0,0.0,0.0,0.0,0.0,0.0,0.0,0.0,0.0,0.0,0.0,0.0,0.0,0.0,0.0,0.0,0.0,0.0,0.0,0.0,0.0,0.0,0.0,0.0,0.0,0.0,0.0,0.0,0.0,0.0,0.0,0.0,0.0,0.0,0.0,0.0,0.0,0.0,0.0,0.0,0.0,0.0,0.0,0.0,0.0,0.0,0.0,0.0,0.0,0.0,0.0,0.0,0.0,0.0,0.0,0.0,0.0,0.0,0.0,0.0,0.0,0.0,0.0,0.0,0.0,0.0,0.0,0.0,0.0,0.0,0.0,0.0,0.0,0.0,0.0,0.0,0.0,0.0,0.0,0.0,0.0,0.0,0.0,0.0,0.0,0.0,0.0,0.0,0.0,0.0,0.0,0.0,0.0,0.0,0.0,0.0,0.0,0.0,0.0,0.0,0.0,0.0,0.0,0.0,0.0,0.0,0.0,0.0,0.0,0.0,0.0,0.0,0.0,0.0,0.0,0.0,0.0,0.0,0.0,0.0,0.0,0.0,0.0,0.0,0.0,0.0,0.0,0.0,0.0,0.0,0.0,0.0,0.0,0.0,0.0,0.0,0.0,0.0,0.0,0.0,0.0,0.0,0.0,0.0,0.0,0.0,0.0,0.0,0.0,0.0,0.0,0.0,0.0,0.0,0.0,0.0,0.0,0.0,0.0,0.0,0.0,0.0,0.0,0.0,0.0,0.0,0.0,0.0,0.0,0.0,0.0,0.0,0.0,0.0,0.0,0.0,0.0,0.0,0.0,0.0,0.0,0.0,0.0,0.0,0.0,0.0,0.0,0.0,0.0,0.0,0.0,0.0,0.0,0.0,0.0,0.0,0.0,0.0,0.0,-1.3143,0.0,0.0,0.0,0.0,0.0,0.0,0.0,0.0,0.0,0.0,0.0,0.0,0.0,0.0,0.0,0.0,0.0,0.0,0.0,0.0,0.0,0.0,0.0,0.0,0.0,0.0,0.0,0.0,0.0,0.0,0.0,0.0,0.0,0.0,0.0,0.0,0.0,0.0,0.0,0.0,0.0,0.0,0.0,0.0,0.0,0.0,0.0,0.0,0.0,0.0,0.0,0.0,0.0,0.0,0.0,0.0,0.0,0.0,0.0,0.0,0.0,0.0,0.0,0.0,0.0,0.0,0.0,0.0,0.0,0.0,0.0,0.0,0.0,0.0,0.0,0.0,0.0,0.0,0.0,0.0,0.0,0.0,0.0,0.0,0.0,0.0,0.0,0.0,0.0,0.0,0.0,0.0,0.0,0.0,0.0,0.0,0.0,0.0,0.0,0.0,0.0,0.0,0.0,0.0,0.0,0.0,0.0,0.0,0.0,0.0,-1.3416,-1.3153,-1.3527,-1.3596,-1.3276,0.0,0.0,0.0,0.0,0.0,0.0,0.0,0.0,0.0,0.0,0.0,0.0,0.0,0.0,0.0,0.0,0.0,0.0,0.0,0.0,0.0,0.0,0.0,0.0,0.0,0.0,0.0,0.0,0.0,0.0,0.0,0.0,0.0,0.0,0.0,0.0,0.0,0.0,0.0,0.0,0.0,0.0,0.0,0.0,0.0,0.0,0.0,0.0,0.0,0.0,0.0,0.0,0.0,0.0,0.0,0.0,0.0,0.0,0.0,0.0,0.0,0.0,0.0,0.0,0.0,0.0,0.0,0.0,0.0,0.0,0.0,0.0,0.0,0.0,0.0,0.0,0.0,0.0,0.0,0.0,0.0,0.0,0.0,0.0,0.0,0.0,0.0,0.0,0.0,0.0,0.0,0.0,0.0,0.0,0.0,0.0,0.0,0.0,0.0,0.0,0.0,0.0,0.0,0.0,0.0,0.0,0.0,0.0,0.0,0.0,0.0,0.0,-1.4566,-1.4629,-1.3963,0.0,0.0,0.0,0.0,0.0,0.0,0.0,0.0,0.0,0.0,0.0,0.0,0.0,0.0,0.0,0.0,0.0,0.0,0.0,0.0,0.0,0.0,0.0,0.0,0.0,0.0,0.0,0.0,0.0,0.0,0.0,0.0,0.0,0.0,0.0,0.0,0.0,0.0,0.0,0.0,0.0,0.0,0.0,0.0,0.0,0.0,0.0,0.0,0.0,0.0,0.0,0.0,0.0,0.0,0.0,0.0,0.0,0.0,0.0,0.0,0.0,0.0,0.0,0.0,0.0,0.0,0.0,0.0,0.0,0.0,0.0,0.0,0.0,0.0,0.0,0.0,0.0,0.0,0.0,0.0,0.0,0.0,0.0,0.0,0.0,0.0,0.0,0.0,0.0,0.0,0.0,0.0,0.0,0.0,0.0,0.0,0.0,0.0,0.0,0.0,0.0,0.0,0.0,0.0,0.0,0.0,0.0,0.0,0.0,0.0,-1.4363,-1.605,-1.679,0.0,-1.6165,0.0,0.0,0.0,0.0,0.0,0.0,0.0,0.0,0.0,0.0,0.0,0.0,0.0,0.0,0.0,0.0,0.0,0.0,0.0,0.0,0.0,0.0,0.0,0.0,0.0,0.0,0.0,0.0,0.0,0.0,0.0,0.0,0.0,0.0,0.0,0.0,0.0,0.0,0.0,0.0,0.0,0.0,0.0,0.0,0.0,0.0,0.0,0.0,0.0,0.0,0.0,0.0,0.0,0.0,0.0,0.0,0.0,0.0,0.0,0.0,0.0,0.0,0.0,0.0,0.0,0.0,0.0,0.0,0.0,0.0,0.0,0.0,0.0,0.0,0.0,0.0,0.0,0.0,0.0,0.0,0.0,0.0,0.0,0.0,0.0,0.0,0.0,0.0,0.0,0.0,0.0,0.0,0.0,0.0,0.0,0.0,0.0,0.0,0.0,0.0,0.0,0.0,0.0,0.0,0.0,0.0,0.0,0.0,0.0,0.0,0.0,-1.6376,-1.6685,-1.6713,0.0,0.0,0.0,0.0,0.0,0.0,0.0,0.0,0.0,0.0,0.0,0.0,0.0,0.0,0.0,0.0,0.0,0.0,0.0,0.0,0.0,0.0,0.0,0.0,0.0,0.0,0.0,0.0,0.0,0.0,0.0,0.0,0.0,0.0,0.0,0.0,0.0,0.0,0.0,0.0,0.0,0.0,0.0,0.0,0.0,0.0,0.0,0.0,0.0,0.0,0.0,0.0,0.0,0.0,0.0,0.0,0.0,0.0,0.0,0.0,0.0,0.0,0.0,0.0,0.0,0.0,0.0,0.0,0.0,0.0,0.0,0.0,0.0,0.0,0.0,0.0,0.0,0.0,0.0,0.0,0.0,0.0,0.0,0.0,0.0,0.0,0.0,0.0,0.0,0.0,0.0,0.0,0.0,0.0,0.0,0.0,0.0,0.0,0.0,0.0,0.0,0.0,0.0,0.0,0.0,0.0,0.0,0.0,0.0,0.0,-1.5939,0.0,-1.7557,-1.7586,-1.7216,-1.642,0.0,0.0,0.0,0.0,0.0,0.0,0.0,0.0,0.0,0.0,0.0,0.0,0.0,0.0,0.0,0.0,0.0,0.0,0.0,0.0,0.0,0.0,0.0,0.0,0.0,0.0,0.0,0.0,0.0,0.0,0.0,0.0,0.0,0.0,0.0,0.0,0.0,0.0,0.0,0.0,0.0,0.0,0.0,0.0,0.0,0.0,0.0,0.0,0.0,0.0,0.0,0.0,0.0,0.0,0.0,0.0,0.0,0.0,0.0,0.0,0.0,0.0,0.0,0.0,0.0,0.0,0.0,0.0,0.0,0.0,0.0,0.0,0.0,0.0,0.0,0.0,0.0,0.0,0.0,0.0,0.0,0.0,0.0,0.0,0.0,0.0,0.0,0.0,0.0,0.0,0.0,0.0,0.0,0.0,0.0,0.0,0.0,0.0,0.0,0.0,0.0,0.0,0.0,0.0,0.0,0.0,0.0,0.0,0.0,-1.7178,-1.7986,-2.0362,-2.0486,-1.921,0.0,0.0,0.0,0.0,0.0,0.0,0.0,0.0,0.0,0.0,0.0,0.0,0.0,0.0,0.0,0.0,0.0,0.0,0.0,0.0,0.0,0.0,0.0,0.0,0.0,0.0,0.0,0.0,0.0,0.0,0.0,0.0,0.0,0.0,0.0,0.0,0.0,0.0,0.0,0.0,0.0,0.0,0.0,0.0,0.0,0.0,0.0,0.0,0.0,0.0,0.0,0.0,0.0,0.0,0.0,0.0,0.0,0.0,0.0,0.0,0.0,0.0,0.0,0.0,0.0,0.0,0.0,0.0,0.0,0.0,0.0,0.0,0.0,0.0,0.0,0.0,0.0,0.0,0.0,0.0,0.0,0.0,0.0,0.0,0.0,0.0,0.0,0.0,0.0,0.0,0.0,0.0,0.0,0.0,0.0,0.0,0.0,0.0,0.0,0.0,0.0,0.0,0.0,0.0,0.0,0.0,0.0,0.0,0.0,-1.4819,-1.6706,-1.9097,-2.1875,-1.9879,-1.8475,0.0,0.0,0.0,0.0,0.0,0.0,0.0,0.0,0.0,0.0,0.0,0.0,0.0,0.0,0.0,0.0,0.0,0.0,0.0,0.0,0.0,0.0,0.0,0.0,0.0,0.0,0.0,0.0,0.0,0.0,0.0,0.0,0.0,0.0,0.0,0.0,0.0,0.0,0.0,0.0,0.0,0.0,0.0,0.0,0.0,0.0,0.0,0.0,0.0,0.0,0.0,0.0,0.0,0.0,0.0,0.0,0.0,0.0,0.0,0.0,0.0,0.0,0.0,0.0,0.0,0.0,0.0,0.0,0.0,0.0,0.0,0.0,0.0,0.0,0.0,0.0,0.0,0.0,0.0,0.0,0.0,0.0,0.0,0.0,0.0,0.0,0.0,0.0,0.0,0.0,0.0,0.0,0.0,0.0,0.0,0.0,0.0,0.0,0.0,0.0,0.0,0.0,0.0,0.0,0.0,0.0,0.0,0.0,0.0,-1.5073,0.0,-2.0242,0.0,-1.9761,-1.8143,0.0,0.0,0.0,0.0,0.0,0.0,0.0,0.0,0.0,0.0,0.0,0.0,0.0,0.0,0.0,0.0,0.0,0.0,0.0,0.0,0.0,0.0,0.0,0.0,0.0,0.0,0.0,0.0,0.0,0.0,0.0,0.0,0.0,0.0,0.0,0.0,0.0,0.0,0.0,0.0,0.0,0.0,0.0,0.0,0.0,0.0,0.0,0.0,0.0,0.0,0.0,0.0,0.0,0.0,0.0,0.0,0.0,0.0,0.0,0.0,0.0,0.0,0.0,0.0,0.0,0.0,0.0,0.0,0.0,0.0,0.0,0.0,0.0,0.0,0.0,0.0,0.0,0.0,0.0,0.0,0.0,0.0,0.0,0.0,0.0,0.0,0.0,0.0,0.0,0.0,0.0,0.0,0.0,0.0,0.0,0.0,0.0,0.0,0.0,0.0,0.0,0.0,0.0,0.0,0.0,0.0,0.0,0.0,-1.5605,-1.9152,-2.1003,-2.125,-1.9846,-2.0336,-1.8441,0.0,0.0,0.0,0.0,0.0,0.0,0.0,0.0,0.0,0.0,0.0,0.0,0.0,0.0,0.0,0.0,0.0,0.0,0.0,0.0,0.0,0.0,0.0,0.0,0.0,0.0,0.0,0.0,0.0,0.0,0.0,0.0,0.0,0.0,0.0,0.0,0.0,0.0,0.0,0.0,0.0,0.0,0.0,0.0,0.0,0.0,0.0,0.0,0.0,0.0,0.0,0.0,0.0,0.0,0.0,0.0,0.0,0.0,0.0,0.0,0.0,0.0,0.0,0.0,0.0,0.0,0.0,0.0,0.0,0.0,0.0,0.0,0.0,0.0,0.0,0.0,0.0,0.0,0.0,0.0,0.0,0.0,0.0,0.0,0.0,0.0,0.0,0.0,0.0,0.0,0.0,0.0,0.0,0.0,0.0,0.0,0.0,0.0,0.0,0.0,0.0,0.0,0.0,0.0,0.0,0.0,0.0,0.0,0.0,-1.756,-1.9672,-2.1112,-2.1687,-1.9698,-1.8404,0.0,0.0,0.0,0.0,0.0,0.0,0.0,0.0,0.0,0.0,0.0,0.0,0.0,0.0,0.0,0.0,0.0,0.0,0.0,0.0,0.0,0.0,0.0,0.0,0.0,0.0,0.0,0.0,0.0,0.0,0.0,0.0,0.0,0.0,0.0,0.0,0.0,0.0,0.0,0.0,0.0,0.0,0.0,0.0,0.0,0.0,0.0,0.0,0.0,0.0,0.0,0.0,0.0,0.0,0.0,0.0,0.0,0.0,0.0,0.0,0.0,0.0,0.0,0.0,0.0,0.0,0.0,0.0,0.0,0.0,0.0,0.0,0.0,0.0,0.0,0.0,0.0,0.0,0.0,0.0,0.0,0.0,0.0,0.0,0.0,0.0,0.0,0.0,0.0,0.0,0.0,0.0,0.0,0.0,0.0,0.0,0.0,0.0,0.0,0.0,0.0,0.0,0.0,0.0,0.0,0.0,0.0,0.0,0.0,-1.8856,-2.0693,-2.2064,-2.2869,-2.0382,-1.8937,-1.8691,0.0,0.0,0.0,0.0,0.0,0.0,0.0,0.0,0.0,0.0,0.0,0.0,0.0,0.0,0.0,0.0,0.0,0.0,0.0,0.0,0.0,0.0,0.0,0.0,0.0,0.0,0.0,0.0,0.0,0.0,0.0,0.0,0.0,0.0,0.0,0.0,0.0,0.0,0.0,0.0,0.0,0.0,0.0,0.0,0.0,0.0,0.0,0.0,0.0,0.0,0.0,0.0,0.0,0.0,0.0,0.0,0.0,0.0,0.0,0.0,0.0,0.0,0.0,0.0,0.0,0.0,0.0,0.0,0.0,0.0,0.0,0.0,0.0,0.0,0.0,0.0,0.0,0.0,0.0,0.0,0.0,0.0,0.0,0.0,0.0,0.0,0.0,0.0,0.0,0.0,0.0,0.0,0.0,0.0,0.0,0.0,0.0,0.0,0.0,0.0,0.0,0.0,0.0,0.0,0.0,0.0,0.0,0.0,-2.243,-2.3708,-2.4099,-2.3459,-2.2173,-2.0086,0.0,0.0,0.0,0.0,0.0,0.0,0.0,0.0,0.0,0.0,0.0,0.0,0.0,0.0,0.0,0.0,0.0,0.0,0.0,0.0,0.0,0.0,0.0,0.0,0.0,0.0,0.0,0.0,0.0,0.0,0.0,0.0,0.0,0.0,0.0,0.0,0.0,0.0,0.0,0.0,0.0,0.0,0.0,0.0,0.0,0.0,0.0,0.0,0.0,0.0,0.0,0.0,0.0,0.0,0.0,0.0,0.0,0.0,0.0,0.0,0.0,0.0,0.0,0.0,0.0,0.0,0.0,0.0,0.0,0.0,0.0,0.0,0.0,0.0,0.0,0.0,0.0,0.0,0.0,0.0,0.0,0.0,0.0,0.0,0.0,0.0,0.0,0.0,0.0,0.0,0.0,0.0,0.0,0.0,0.0,0.0,0.0,0.0,0.0,0.0,0.0,0.0,0.0,0.0,0.0,0.0,0.0,0.0,0.0,-2.4268,-2.5923,-2.6557,-2.6046,-2.3489,-2.1698,0.0,0.0,0.0,0.0,0.0,0.0,0.0,0.0,0.0,0.0,0.0,0.0,0.0,0.0,0.0,0.0,0.0,0.0,0.0,0.0,0.0,0.0,0.0,0.0,0.0,0.0,0.0,0.0,0.0,0.0,0.0,0.0,0.0,0.0,0.0,0.0,0.0,0.0,0.0,0.0,0.0,0.0,0.0,0.0,0.0,0.0,0.0,0.0,0.0,0.0,0.0,0.0,0.0,0.0,0.0,0.0,0.0,0.0,0.0,0.0,0.0,0.0,0.0,0.0,0.0,0.0,0.0,0.0,0.0,0.0,0.0,0.0,0.0,0.0,0.0,0.0,0.0,0.0,0.0,0.0,0.0,0.0,0.0,0.0,0.0,0.0,0.0,0.0,0.0,0.0,0.0,0.0,0.0,0.0,0.0,0.0,0.0,0.0,0.0,0.0,0.0,0.0,0.0,0.0,0.0,0.0,0.0,0.0,-2.323,-2.5724,-2.7404,-2.8393,-2.8556,-2.5755,-2.3567,0.0,0.0,0.0,0.0,0.0,0.0,0.0,0.0,0.0,0.0,0.0,0.0,0.0,0.0,0.0,0.0,0.0,0.0,0.0,0.0,0.0,0.0,0.0,0.0,0.0,0.0,0.0,0.0,0.0,0.0,0.0,0.0,0.0,0.0,0.0,0.0,0.0,0.0,0.0,0.0,0.0,0.0,0.0,0.0,0.0,0.0,0.0,0.0,0.0,0.0,0.0,0.0,0.0,0.0,0.0,0.0,0.0,0.0,0.0,0.0,0.0,0.0,0.0,0.0,0.0,0.0,0.0,0.0,0.0,0.0,0.0,0.0,0.0,0.0,0.0,0.0,0.0,0.0,0.0,0.0,0.0,0.0,0.0,0.0,0.0,0.0,0.0,0.0,0.0,0.0,0.0,0.0,0.0,0.0,0.0,0.0,0.0,0.0,0.0,0.0,0.0,0.0,0.0,0.0,0.0,0.0,0.0,0.0,-2.3629,-2.6638,-2.8307,-2.96,-3.0463,-2.8184,-2.5437,0.0,0.0,0.0,0.0,0.0,0.0,0.0,0.0,0.0,0.0,0.0,0.0,0.0,0.0,0.0,0.0,0.0,0.0,0.0,0.0,0.0,0.0,0.0,0.0,0.0,0.0,0.0,0.0,0.0,0.0,0.0,0.0,0.0,0.0,0.0,0.0,0.0,0.0,0.0,0.0,0.0,0.0,0.0,0.0,0.0,0.0,0.0,0.0,0.0,0.0,0.0,0.0,0.0,0.0,0.0,0.0,0.0,0.0,0.0,0.0,0.0,0.0,0.0,0.0,0.0,0.0,0.0,0.0,0.0,0.0,0.0,0.0,0.0,0.0,0.0,0.0,0.0,0.0,0.0,0.0,0.0,0.0,0.0,0.0,0.0,0.0,0.0,0.0,0.0,0.0,0.0,0.0,0.0,0.0,0.0,0.0,0.0,0.0,0.0,0.0,0.0,0.0,0.0,0.0,0.0,0.0,0.0,0.0,-2.4558,-2.6167,-2.8372,-2.9826,-3.0482,-2.8109,-2.5709,0.0,0.0,0.0,0.0,0.0,0.0,0.0,0.0,0.0,0.0,0.0,0.0,0.0,0.0,0.0,0.0,0.0,0.0,0.0,0.0,0.0,0.0,0.0,0.0,0.0,0.0,0.0,0.0,0.0,0.0,0.0,0.0,0.0,0.0,0.0,0.0,0.0,0.0,0.0,0.0,0.0,0.0,0.0,0.0,0.0,0.0,0.0,0.0,-1.9718,0.0,0.0,0.0,0.0,0.0,0.0,0.0,0.0,0.0,0.0,0.0,0.0,0.0,0.0,0.0,0.0,0.0,0.0,0.0,0.0,0.0,0.0,0.0,0.0,0.0,0.0,0.0,0.0,0.0,0.0,0.0,0.0,0.0,0.0,0.0,0.0,0.0,0.0,0.0,0.0,0.0,0.0,0.0,0.0,0.0,0.0,0.0,0.0,0.0,0.0,0.0,0.0,0.0,0.0,0.0,0.0,0.0,0.0,0.0,-2.4678,-2.7229,-2.8397,-2.961,-3.0778,-2.8521,-2.6183,0.0,0.0,0.0,0.0,0.0,0.0,0.0,0.0,0.0,0.0,0.0,0.0,0.0,0.0,0.0,0.0,0.0,0.0,0.0,0.0,0.0,0.0,0.0,0.0,0.0,0.0,0.0,0.0,0.0,0.0,0.0,0.0,0.0,0.0,0.0,0.0,0.0,0.0,0.0,0.0,0.0,0.0,0.0,0.0,0.0,0.0,0.0,0.0,0.0,0.0,0.0,0.0,0.0,0.0,0.0,0.0,0.0,0.0,0.0,0.0,0.0,0.0,0.0,0.0,0.0,0.0,0.0,0.0,0.0,0.0,0.0,0.0,0.0,0.0,0.0,0.0,0.0,0.0,0.0,0.0,0.0,0.0,0.0,0.0,0.0,0.0,0.0,0.0,0.0,0.0,0.0,0.0,0.0,0.0,0.0,0.0,0.0,0.0,0.0,0.0,0.0,0.0,0.0,0.0,0.0,0.0,0.0,-2.1559,-2.4328,-2.8202,-2.8292,-2.9108,-3.0874,-2.877,-2.6512,-2.4311,0.0,0.0,0.0,0.0,0.0,0.0,0.0,0.0,0.0,0.0,0.0,0.0,0.0,0.0,0.0,0.0,0.0,0.0,0.0,0.0,0.0,0.0,0.0,0.0,0.0,0.0,0.0,0.0,0.0,0.0,0.0,0.0,0.0,0.0,0.0,0.0,0.0,0.0,-1.7318,-1.9546,0.0,0.0,0.0,0.0,0.0,0.0,0.0,0.0,-2.0591,0.0,0.0,0.0,0.0,0.0,0.0,0.0,0.0,0.0,0.0,0.0,0.0,0.0,0.0,0.0,0.0,0.0,0.0,0.0,0.0,0.0,0.0,0.0,0.0,0.0,0.0,0.0,0.0,0.0,0.0,0.0,0.0,0.0,0.0,0.0,0.0,0.0,0.0,0.0,0.0,0.0,0.0,0.0,0.0,0.0,0.0,0.0,0.0,0.0,0.0,0.0,0.0,0.0,0.0,0.0,0.0,-2.0435,-2.1646,-2.369,-2.6636,-2.7496,-2.8306,-2.9073,-2.7723,-2.6001,-2.4035,0.0,0.0,0.0,0.0,0.0,0.0,0.0,0.0,0.0,0.0,0.0,0.0,0.0,0.0,0.0,0.0,0.0,0.0,0.0,0.0,0.0,0.0,0.0,0.0,0.0,0.0,0.0,0.0,0.0,0.0,0.0,0.0,0.0,0.0,0.0,0.0,0.0,0.0,0.0,-2.0751,-2.1734,0.0,0.0,0.0,0.0,0.0,0.0,0.0,0.0,-2.1042,0.0,0.0,0.0,0.0,0.0,0.0,0.0,0.0,0.0,0.0,0.0,0.0,0.0,0.0,0.0,0.0,0.0,0.0,0.0,0.0,0.0,0.0,0.0,0.0,0.0,0.0,0.0,0.0,0.0,0.0,0.0,0.0,0.0,0.0,0.0,0.0,0.0,0.0,0.0,0.0,0.0,0.0,0.0,0.0,0.0,0.0,0.0,0.0,0.0,0.0,0.0,0.0,0.0,0.0,0.0,-2.0487,-2.1915,-2.407,-2.693,-2.6993,-2.7507,-2.8538,-2.6598,-2.482,0.0,0.0,0.0,0.0,0.0,0.0,0.0,0.0,0.0,0.0,0.0,0.0,0.0,0.0,0.0,0.0,0.0,0.0,0.0,0.0,0.0,0.0,0.0,0.0,0.0,0.0,0.0,0.0,0.0,0.0,0.0,0.0,0.0,0.0,0.0,0.0,0.0,0.0,0.0,0.0,-2.1928,-2.2576,-2.3296,0.0,0.0,0.0,0.0,0.0,0.0,-2.2373,-2.1949,0.0,0.0,0.0,0.0,0.0,0.0,0.0,0.0,0.0,0.0,0.0,0.0,0.0,0.0,0.0,0.0,0.0,0.0,0.0,0.0,0.0,0.0,0.0,0.0,0.0,0.0,0.0,0.0,0.0,0.0,0.0,0.0,0.0,0.0,0.0,0.0,0.0,0.0,0.0,0.0,0.0,0.0,0.0,0.0,0.0,0.0,0.0,0.0,0.0,0.0,0.0,0.0,0.0,0.0,0.0,-2.0543,-2.2053,-2.4271,-2.7101,-2.6576,-2.6819,-2.8015,-2.5779,-2.4061,0.0,0.0,0.0,0.0,0.0,0.0,0.0,0.0,0.0,0.0,0.0,0.0,0.0,0.0,0.0,0.0,0.0,0.0,0.0,0.0,0.0,0.0,0.0,0.0,0.0,0.0,0.0,0.0,0.0,0.0,0.0,0.0,0.0,0.0,0.0,0.0,0.0,0.0,0.0,0.0,0.0,-2.3838,-2.4545,-2.4268,0.0,0.0,0.0,0.0,-2.4298,-2.4125,0.0,0.0,0.0,0.0,0.0,0.0,0.0,0.0,0.0,0.0,0.0,0.0,0.0,0.0,0.0,0.0,0.0,0.0,0.0,0.0,0.0,0.0,0.0,0.0,0.0,0.0,0.0,0.0,0.0,0.0,0.0,0.0,0.0,0.0,0.0,0.0,0.0,0.0,0.0,0.0,0.0,0.0,0.0,0.0,0.0,0.0,0.0,0.0,0.0,0.0,0.0,0.0,0.0,0.0,0.0,0.0,-2.0506,-2.1723,-2.336,-2.5466,-2.5982,-2.6295,-2.6464,-2.6013,-2.4911,0.0,0.0,0.0,0.0,0.0,0.0,0.0,0.0,0.0,0.0,0.0,0.0,0.0,0.0,0.0,0.0,0.0,0.0,0.0,0.0,0.0,0.0,0.0,0.0,0.0,0.0,0.0,0.0,0.0,0.0,0.0,0.0,0.0,0.0,0.0,0.0,0.0,0.0,0.0,0.0,0.0,-2.5811,-2.489,-2.5107,-2.5555,0.0,0.0,-2.6387,-2.7046,-2.756,0.0,0.0,0.0,0.0,0.0,0.0,0.0,0.0,0.0,0.0,0.0,0.0,0.0,0.0,0.0,0.0,0.0,0.0,0.0,0.0,0.0,0.0,0.0,0.0,0.0,0.0,0.0,0.0,0.0,0.0,0.0,0.0,0.0,0.0,0.0,0.0,0.0,0.0,0.0,0.0,0.0,0.0,0.0,0.0,0.0,0.0,0.0,0.0,0.0,0.0,0.0,0.0,0.0,0.0,0.0,-1.8101,-2.0543,-2.2252,-2.4109,-2.6105,-2.5874,-2.5968,-2.6578,-2.4718,-2.3173,0.0,0.0,0.0,0.0,0.0,0.0,0.0,0.0,0.0,0.0,0.0,0.0,0.0,0.0,0.0,0.0,0.0,0.0,0.0,0.0,0.0,0.0,0.0,0.0,0.0,0.0,0.0,0.0,0.0,0.0,0.0,0.0,0.0,0.0,0.0,0.0,0.0,0.0,0.0,0.0,0.0,0.0,-2.6885,-2.748,0.0,0.0,0.0,-2.8371,-2.8576,0.0,0.0,0.0,0.0,0.0,0.0,0.0,0.0,0.0,0.0,0.0,0.0,0.0,0.0,0.0,0.0,0.0,0.0,0.0,0.0,0.0,0.0,0.0,0.0,0.0,0.0,0.0,0.0,0.0,0.0,0.0,0.0,0.0,0.0,0.0,0.0,0.0,0.0,0.0,0.0,0.0,0.0,0.0,0.0,0.0,0.0,0.0,0.0,0.0,0.0,0.0,0.0,0.0,0.0,0.0,0.0,0.0,-2.0603,-2.2843,-2.4855,-2.6585,-2.5901,-2.5901,-2.6585,-2.399,0.0,0.0,0.0,0.0,0.0,0.0,0.0,0.0,0.0,0.0,0.0,0.0,0.0,0.0,0.0,0.0,0.0,0.0,0.0,0.0,0.0,0.0,0.0,0.0,0.0,0.0,0.0,-1.0889,0.0,0.0,0.0,0.0,0.0,0.0,0.0,0.0,0.0,0.0,0.0,0.0,0.0,0.0,-2.6659,-2.8089,-2.916,-2.9622,0.0,0.0,-3.006,-3.013,-3.0075,-2.9359,0.0,0.0,0.0,0.0,0.0,0.0,0.0,0.0,0.0,0.0,0.0,0.0,0.0,0.0,0.0,0.0,0.0,0.0,0.0,0.0,0.0,0.0,0.0,0.0,0.0,0.0,0.0,0.0,0.0,0.0,0.0,0.0,0.0,0.0,0.0,0.0,0.0,0.0,0.0,0.0,0.0,0.0,0.0,0.0,0.0,0.0,0.0,0.0,0.0,0.0,0.0,0.0,0.0,0.0,0.0,-2.0581,-2.3159,-2.5011,-2.6117,-2.6081,-2.6081,-2.6117,-2.4958,-2.3368,0.0,0.0,0.0,0.0,0.0,0.0,0.0,0.0,0.0,0.0,0.0,0.0,0.0,0.0,0.0,0.0,0.0,0.0,0.0,0.0,0.0,0.0,0.0,0.0,0.0,0.0,0.0,0.0,0.0,0.0,0.0,0.0,0.0,0.0,0.0,0.0,0.0,0.0,0.0,0.0,0.0,-2.7525,-2.7477,-2.9077,-3.0455,0.0,0.0,-3.1423,-3.2092,-3.3151,-3.2662,-2.9053,0.0,0.0,0.0,0.0,0.0,0.0,0.0,0.0,0.0,0.0,0.0,0.0,0.0,0.0,0.0,0.0,0.0,0.0,0.0,0.0,0.0,0.0,0.0,0.0,0.0,0.0,0.0,0.0,0.0,0.0,0.0,0.0,0.0,0.0,0.0,0.0,0.0,0.0,0.0,0.0,0.0,0.0,0.0,0.0,0.0,0.0,0.0,0.0,0.0,0.0,0.0,0.0,0.0,-1.8559,-2.0574,-2.3183,-2.5156,-2.6538,-2.661,-2.661,-2.661,-2.4966,-2.3067,0.0,0.0,0.0,0.0,0.0,0.0,0.0,0.0,0.0,0.0,0.0,0.0,0.0,0.0,0.0,0.0,0.0,0.0,0.0,0.0,0.0,0.0,0.0,0.0,0.0,0.0,0.0,0.0,-1.5226,-1.5673,-1.6108,0.0,0.0,0.0,0.0,0.0,0.0,0.0,0.0,0.0,0.0,-2.7994,-2.8736,-3.014,0.0,0.0,-3.1378,-3.179,-3.2145,-3.2369,-3.1845,-3.0017,-2.9072,0.0,0.0,0.0,0.0,0.0,0.0,0.0,0.0,0.0,0.0,0.0,0.0,0.0,0.0,0.0,0.0,0.0,0.0,0.0,0.0,0.0,0.0,0.0,0.0,0.0,0.0,0.0,0.0,0.0,0.0,0.0,0.0,0.0,0.0,0.0,0.0,0.0,0.0,0.0,0.0,0.0,0.0,0.0,0.0,0.0,0.0,0.0,0.0,0.0,0.0,0.0,0.0,-1.8776,-2.0803,-2.3568,-2.5697,-2.714,-2.7138,-2.7054,-2.6861,-2.518,-2.3252,0.0,0.0,0.0,0.0,0.0,0.0,0.0,0.0,0.0,0.0,0.0,0.0,0.0,0.0,0.0,0.0,0.0,0.0,0.0,0.0,0.0,0.0,0.0,0.0,0.0,0.0,0.0,0.0,-1.5987,-1.6287,-1.6842,0.0,0.0,0.0,0.0,0.0,0.0,0.0,0.0,0.0,0.0,-2.8235,-2.9463,-3.054,-3.1115,-3.0722,-3.1128,-3.1572,-3.1933,-3.2087,-3.1772,-3.074,0.0,0.0,0.0,0.0,0.0,0.0,0.0,0.0,0.0,0.0,0.0,0.0,0.0,0.0,0.0,0.0,0.0,0.0,0.0,0.0,0.0,0.0,0.0,0.0,0.0,0.0,0.0,0.0,0.0,0.0,-1.1856,0.0,0.0,0.0,0.0,0.0,0.0,0.0,0.0,0.0,0.0,0.0,0.0,0.0,0.0,0.0,0.0,0.0,0.0,0.0,0.0,0.0,0.0,-1.9239,-2.1392,-2.4446,-2.6586,-2.7618,-2.7666,-2.7438,-2.691,-2.5853,-2.429,-2.2161,0.0,0.0,0.0,0.0,0.0,0.0,0.0,0.0,0.0,0.0,0.0,0.0,0.0,0.0,0.0,0.0,0.0,0.0,0.0,0.0,0.0,0.0,0.0,0.0,0.0,0.0,-1.5628,-1.6179,-1.6581,0.0,0.0,0.0,0.0,0.0,0.0,0.0,0.0,0.0,0.0,-2.6897,-2.8228,-2.9367,-3.0059,-3.0457,-3.0444,-3.0432,-3.0797,-3.1676,-3.2909,-3.319,0.0,0.0,0.0,0.0,0.0,0.0,0.0,0.0,0.0,0.0,0.0,0.0,0.0,0.0,0.0,0.0,0.0,0.0,0.0,0.0,0.0,0.0,0.0,0.0,0.0,0.0,0.0,-1.5704,-1.5034,0.0,0.0,0.0,0.0,0.0,0.0,0.0,0.0,0.0,0.0,0.0,-2.1151,-2.2048,0.0,0.0,0.0,0.0,0.0,0.0,0.0,0.0,0.0,0.0,0.0,0.0,-1.978,-2.1945,-2.4675,-2.6622,-2.7654,-2.8026,-2.7993,-2.7426,-2.6406,-2.4452,-2.1518,0.0,0.0,0.0,0.0,0.0,0.0,0.0,0.0,0.0,0.0,0.0,0.0,0.0,0.0,0.0,0.0,0.0,0.0,0.0,0.0,0.0,0.0,0.0,0.0,0.0,-1.5575,0.0,0.0,0.0,0.0,0.0,0.0,0.0,0.0,0.0,0.0,0.0,-2.4944,-2.6574,-2.7771,-2.8937,-3.0047,-3.0389,-3.0694,0.0,0.0,0.0,0.0,0.0,0.0,0.0,0.0,0.0,0.0,0.0,0.0,0.0,0.0,-2.8381,-2.5831,-2.5229,-2.5094,-2.5094,0.0,0.0,0.0,0.0,0.0,0.0,0.0,0.0,0.0,0.0,0.0,0.0,0.0,0.0,-1.8588,0.0,-1.8085,0.0,0.0,0.0,0.0,0.0,0.0,0.0,0.0,-2.2859,-2.3737,-2.3592,-2.4458,-2.441,0.0,-2.358,-2.1873,0.0,0.0,0.0,0.0,0.0,0.0,0.0,0.0,-2.0875,-2.3003,-2.542,-2.7103,-2.7957,-2.8342,-2.8218,-2.7678,-2.649,-2.4536,-2.1858,-2.0618,-1.9338,0.0,0.0,0.0,0.0,0.0,0.0,0.0,0.0,0.0,0.0,0.0,0.0,0.0,0.0,0.0,0.0,0.0,0.0,0.0,0.0,0.0,0.0,0.0,-1.6262,0.0,0.0,0.0,0.0,0.0,0.0,0.0,0.0,0.0,-2.3297,-2.5058,-2.6871,-2.8259,-2.9214,-3.0016,-3.0783,0.0,0.0,0.0,0.0,0.0,0.0,0.0,-3.2645,-3.2346,-3.2636,-3.2748,-3.233,-3.2267,-3.2276,-3.2042,0.0,0.0,-2.8208,-2.7538,-2.7407,-2.7407,-2.8539,-2.9495,-2.9495,-2.9552,-2.9818,0.0,0.0,0.0,0.0,0.0,0.0,0.0,0.0,-2.1536,-2.15,0.0,-2.0959,0.0,0.0,0.0,0.0,0.0,0.0,0.0,0.0,-2.5865,-2.6621,-2.6202,-2.6669,-2.6695,-2.625,-2.714,-2.631,-2.3806,-2.0771,0.0,0.0,0.0,0.0,0.0,0.0,-2.2498,-2.4542,-2.6585,-2.793,-2.8474,-2.851,-2.8258,-2.7681,-2.619,-2.4707,-2.3344,-2.2855,-2.1506,-1.9033,-1.7994,0.0,0.0,0.0,0.0,0.0,0.0,0.0,0.0,0.0,0.0,0.0,0.0,0.0,0.0,0.0,0.0,0.0,0.0,0.0,0.0,-1.5906,0.0,0.0,0.0,0.0,0.0,0.0,0.0,0.0,0.0,0.0,-2.5959,-2.7218,-2.8812,-3.0432,0.0,0.0,0.0,0.0,-3.1461,-3.1524,-3.1951,-3.2181,-3.1883,-3.3804,-3.4747,-3.2899,0.0,0.0,-3.2664,-3.2784,-3.2973,-3.2403,-3.2767,-3.278,-3.1678,-3.0952,-3.0597,-3.0622,-3.104,-3.1452,-3.1553,-3.2201,-3.2965,-2.3628,0.0,0.0,0.0,0.0,-2.2342,-2.3244,-2.4723,-2.435,-2.3977,-2.3616,-2.3472,0.0,0.0,0.0,0.0,0.0,0.0,-2.4263,-2.5456,-2.6429,-2.721,-2.7813,-2.7942,-2.7969,-2.7825,-2.7765,-2.7294,-2.6538,-2.4879,-2.239,-1.9167,0.0,0.0,0.0,0.0,-2.3929,-2.5624,-2.7019,-2.7969,-2.8498,-2.851,-2.8077,-2.7138,-2.6818,-2.5995,-2.4627,-2.4168,-2.3139,-2.1359,-1.9898,0.0,0.0,0.0,0.0,0.0,0.0,0.0,0.0,0.0,0.0,0.0,0.0,0.0,0.0,0.0,0.0,0.0,0.0,0.0,-1.6625,-1.698,-1.78,0.0,0.0,0.0,0.0,0.0,0.0,0.0,0.0,0.0,-3.0193,-3.0382,-3.0771,0.0,0.0,-3.2127,-3.2583,-3.2591,-3.2867,-3.3646,0.0,0.0,0.0,-3.4128,-3.4305,-3.4086,-3.4572,-3.4705,-3.4104,-3.4148,-3.4198,-3.4022,-3.4135,-3.4135,-3.3822,-3.3006,-3.2416,-3.2403,-3.2805,-3.3169,-3.3219,-3.3771,-3.4261,-2.7055,-2.5204,-2.3965,-2.3917,-2.4709,-2.459,-2.5384,-2.6719,-2.6394,-2.6202,-2.6057,-2.5841,-2.5035,-2.3758,-2.3304,0.0,0.0,0.0,-2.5865,-2.738,-2.7511,-2.8068,-2.8937,-2.8756,-2.8768,-2.8826,-2.8394,-2.8183,-2.8183,-2.7438,-2.5444,-2.2378,0.0,0.0,-2.2498,-2.3974,-2.5372,-2.6707,-2.7596,-2.8198,-2.851,-2.851,-2.8005,-2.6983,-2.7099,-2.6627,-2.548,-2.5234,-2.4601,-2.3333,-2.1907,-2.0037,0.0,0.0,0.0,0.0,0.0,0.0,0.0,0.0,0.0,0.0,0.0,-1.4205,-1.3011,0.0,0.0,0.0,-1.6405,-1.7458,-1.8942,-1.9648,0.0,0.0,0.0,0.0,0.0,0.0,0.0,-2.875,-3.0382,-3.1863,-3.3043,-3.3106,-3.3081,-3.3181,-3.3206,-3.3345,-3.3671,0.0,-3.396,-3.4625,-3.4914,-3.4931,-3.4763,-3.4813,-3.4989,-3.5303,-3.5378,-3.5366,-3.5378,-3.5366,-3.5378,-3.5378,-3.5378,-3.5366,-3.5378,-3.4826,-3.4211,-3.3834,-3.4173,-3.4537,-3.4562,-3.4989,-3.5378,-3.0086,-2.9845,-2.6911,-2.5973,-2.6454,-2.6971,-2.7414,-2.7897,-2.787,-2.8186,-2.8595,-2.8126,-2.7356,-2.6358,-2.5408,0.0,-2.6442,-2.6947,-2.7918,-2.9352,-2.8899,-2.9022,-2.9652,-2.9215,-2.9153,-2.9378,-2.9106,-2.8952,-2.8946,-2.8698,-2.7873,-2.6418,-2.5444,-2.5107,-2.5384,-2.5925,-2.6731,-2.7714,-2.8306,-2.857,-2.857,-2.8582,-2.8065,-2.7006,-2.7171,-2.6907,-2.6095,-2.622,-2.5931,-2.4963,-2.3885,-2.2067,-1.9421,0.0,0.0,0.0,0.0,0.0,0.0,0.0,0.0,0.0,0.0,0.0,0.0,0.0,0.0,0.0,-1.9434,0.0,-2.1685,-2.315,0.0,0.0,0.0,-2.6201,-2.6939,-2.885,-3.0495,-3.1474,0.0,0.0,-3.4713,0.0,-3.537,-3.4926,-3.4768,-3.4788,-3.4743,-3.4731,-3.4743,-3.4901,-3.529,-3.5382,-3.5064,-3.5655,-3.6267,-3.6304,-3.6417,-3.6342,-3.6342,-3.6355,-3.638,-3.6342,-3.6405,-3.6417,-3.6455,-3.6392,-3.6179,-3.519,-3.5307,-3.5633,-3.5658,-3.6107,-3.6543,-3.0086,-3.0025,-2.9268,-2.9027,-2.9148,-2.928,-2.94,-2.952,-2.952,-2.9593,-2.9701,-2.9581,-2.9388,-2.9136,-2.8883,-2.8907,-2.9148,-2.928,-2.9532,-2.9851,-2.942,-2.9364,-2.9652,-2.9227,-2.9153,-2.939,-2.9315,-2.9359,-2.9504,-2.9439,-2.9314,-2.9136,-2.8871,-2.7813,-2.6021,-2.6851,-2.7669,-2.8306,-2.8835,-2.9112,-2.9112,-2.9112,-2.8607,-2.7522,-2.7831,-2.7753,-2.7164,-2.7467,-2.717,-2.6126,-2.5385,-2.3954,-2.1656,-2.0377,0.0,0.0,0.0,0.0,0.0,0.0,0.0,0.0,0.0,-1.9007,-1.6333,0.0,-2.0591,0.0,-2.1707,-2.2782,-2.3916,-2.4393,0.0,0.0,-2.8561,-2.9515,-3.1339,-3.234,-3.3018,-3.3282,-3.4387,-3.5157,-3.5282,-3.583,-3.6119,-3.5968,-3.5617,-3.5307,-3.5295,-3.5307,-3.5458,-3.5881,-3.6103,-3.6132,-3.604,-3.6216,-3.6417,-3.6417,-3.6417,-3.6417,-3.6417,-3.6417,-3.6417,-3.6417,-3.6417,-3.6568,-3.6971,-3.7033,-3.7073,-3.7149,-3.701,-3.6784,-3.6797,-3.7224,-3.76,-3.0795,-3.0826,-3.0838,-3.0826,-3.0747,-3.0332,-3.0086,-3.0086,-3.0086,-3.0086,-3.0086,-3.0086,-3.0086,-3.0086,-3.0086,-3.0086,-3.0086,-3.0086,-3.0218,-3.0404,-2.9738,-2.9639,-3.0079,-2.951,-2.9357,-2.9633,-2.9575,-2.9675,-2.9922,-2.9782,-2.9833,-3.0086,-3.0086,-2.9352,-2.7969,-2.8474,-2.8919,-2.922,-2.9496,-2.9653,-2.9653,-2.9653,-2.9256,-2.8462,-2.8809,-2.8637,-2.7914,-2.8263,-2.8072,-2.7243,-2.664,-2.546,-2.354,-2.2623,-2.1556,0.0,0.0,0.0,0.0,0.0,0.0,0.0,0.0,0.0,0.0,0.0,-2.2711,-2.2962,-2.4418,-2.5665,-2.6531,-2.7509,-2.885,-3.0683,-3.1323,-3.2215,-3.3646,-3.4299,-3.4813,-3.5303,-3.5906,-3.6323,-3.6609,-3.6897,-3.7098,-3.7086,-3.6835,-3.6458,-3.6006,-3.5906,-3.6019,-3.6355,-3.6417,-3.6417,-3.6417,-3.6417,-3.6493,-3.6719,-3.6734,-3.6797,-3.7036,-3.7086,-3.7098,-3.7098,-3.7098,-3.7235,-3.7646,-3.7648,-3.7712,-3.8171,-3.8236,-3.8048,-3.7808,-3.8083,-3.8347,-3.1922,-3.1922,-3.191,-3.1922,-3.1837,-3.0879,-3.0422,-3.0278,-3.0278,-3.029,-3.029,-3.029,-3.029,-3.029,-3.0278,-3.029,-3.029,-3.0278,-3.0543,-3.092,-2.9959,-2.9925,-3.0623,-2.9863,-2.9634,-2.9954,-2.9869,-3.0003,-3.0247,-3.0005,-2.9993,-3.0236,-3.029,-3.029,-3.029,-3.0278,-3.0254,-3.0194,-3.0194,-3.0194,-3.0194,-3.0194,-2.9983,-2.9465,-2.9797,-2.961,-2.8727,-2.9023,-2.8988,-2.8448,-2.7971,-2.6954,-2.5347,-2.4782,-2.3602,0.0,-2.1433,0.0,0.0,0.0,0.0,0.0,0.0,0.0,0.0,-2.3966,-2.4946,-2.541,-2.7331,-2.8775,-2.9377,-3.1198,-3.2416,-3.2599,-3.352,-3.4336,-3.4889,-3.537,-3.6072,-3.7073,-3.7249,-3.7487,-3.7877,-3.8002,-3.799,-3.7927,-3.7889,-3.755,-3.6797,-3.6656,-3.6669,-3.6619,-3.6619,-3.6757,-3.6719,-3.6681,-3.6832,-3.7199,-3.7287,-3.7462,-3.7864,-3.7952,-3.7965,-3.7965,-3.7914,-3.8052,-3.8412,-3.8276,-3.8338,-3.8872,-3.9242,-3.9257,-3.8737,-3.8847,-3.9005,-3.2984,-3.2984,-3.2984,-3.2984,-3.2959,-3.2767,-3.219,-3.1416,-3.1416,-3.1416,-3.1404,-3.1416,-3.1404,-3.1404,-3.1404,-3.1416,-3.1404,-3.1404,-3.1464,-3.1517,-3.0528,-3.0361,-3.0826,-2.9954,-2.9715,-3.0125,-3.0124,-3.0258,-3.0528,-3.0669,-3.0856,-3.1065,-3.1273,-3.1404,-3.1404,0.0,0.0,0.0,-3.0735,-3.0723,-3.0766,-3.0766,-3.0598,-3.0233,-3.0482,0.0,-3.0595,-3.0813,-3.0683,-3.0181,-3.0043,0.0,0.0,0.0,0.0,0.0,0.0,0.0,0.0,0.0,0.0,0.0,-2.8499,-2.7783,-2.531,-2.7256,-2.8737,-2.8875,-3.0018,-3.1185,-3.219,-3.2641,-3.3458,-3.4705,-3.5056,-3.5441,-3.5994,-3.6533,-3.6973,-3.7149,-3.7575,-3.7889,-3.8015,-3.8002,-3.8015,-3.8065,-3.8002,-3.7927,-3.7751,-3.7663,-3.7676,-3.7701,-3.76,-3.7676,-3.7688,-3.7651,-3.7626,-3.7839,-3.7852,-3.7902,-3.8027,-3.8052,-3.8027,-3.8052,-3.8002,-3.8203,-3.8718,-3.8919,-3.9183,-3.9766,-4.0235,-4.0359,-3.9633,-3.9876,-4.0171,-3.3284,0.0,-3.3284,-3.3284,0.0,-3.3284,-3.2971,-3.2466,-3.2512,-3.2466,-3.2488,-3.219,-3.207,-3.2058,-3.1837,-3.1705,-3.1705,-3.1705,-3.1705,-3.1661,-3.0668,-3.0408,-3.0781,-2.9897,-2.9669,-3.0057,-3.0136,-3.0408,-3.0781,-3.0927,-3.1151,-3.1484,-3.1893,-3.2126,-3.2138,-3.2346,-3.207,-3.1308,-3.1308,-3.1308,-3.1308,-3.1395,-3.1361,-3.1223,0.0,0.0,0.0,0.0,0.0,0.0,0.0,0.0,0.0,0.0,0.0,-2.8209,-2.8146,-2.8133,-2.8147,-2.9114,-2.9842,-3.0143,-3.1185,-3.0884,-2.8624,-2.9767,-3.057,-3.0608,-3.1574,-3.2453,-3.3018,-3.3558,-3.4336,-3.5345,-3.5495,-3.5843,-3.6621,-3.6998,-3.74,-3.7939,-3.8266,-3.853,-3.8793,-3.8843,-3.8843,-3.8843,-3.8843,-3.8818,-3.8781,-3.8341,-3.8002,-3.8002,-3.8002,-3.8002,-3.8002,-3.8002,-3.814,-3.8341,-3.8442,-3.8555,-3.8806,-3.8843,-3.8843,-3.8831,-3.8843,-3.9007,-3.9373,-3.9626,-3.9867,-4.0351,-4.0732,-4.0856,-4.0534,-4.0715,-4.0909,-3.3561,-3.3561,-3.3561,-3.3561,-3.3561,-3.3561,-3.3561,-3.3549,0.0,0.0,0.0,-3.2827,-3.2635,-3.2611,-3.2154,-3.1946,-3.1862,-3.1849,-3.1801,-3.1673,-3.0806,-3.0524,-3.0762,-3.0125,-2.9997,-3.025,-3.0365,-3.0638,-3.1068,-3.1158,-3.1383,-3.1809,-3.237,-3.2635,-3.2704,-3.3114,-3.2943,-3.2164,-3.1942,-3.1882,-3.1982,-3.203,-3.2081,-3.2125,-3.2506,-3.25,-3.2162,-3.2294,-3.2202,-3.1863,-3.1825,-3.1599,-3.1097,-3.1047,-3.0809,-3.0269,-3.0218,-3.0269,-3.0382,-3.1373,-3.2064,-3.224,-3.3131,-3.3144,-3.1926,-3.1825,-3.1888,-3.1964,-3.283,-3.3407,-3.352,-3.4311,-3.5044,-3.5583,-3.5721,-3.6207,-3.7061,-3.7387,-3.7926,-3.8693,-3.8982,-3.9182,-3.9584,-3.9634,-3.9697,-3.9685,-3.9609,-3.9697,-3.9584,-3.8919,-3.8417,-3.8417,-3.8454,-3.8354,-3.8329,-3.8366,-3.8504,-3.8944,-3.9019,-3.9182,-3.9546,-3.9697,-3.9697,-3.9597,-3.9697,-3.975,-3.9968,-4.0032,-4.0275,-4.0694,-4.0782,-4.0883,-4.111,-4.1161,-4.1161,-3.4607,-3.4558,-3.4607,-3.4619,-3.4607,-3.457,-3.457,-3.4535,-3.3669,-3.3296,-3.3284,-3.3212,-3.3176,-3.3164,-3.3092,-3.2815,-3.2394,-3.2394,-3.2163,0.0,-3.1316,-3.1286,-3.1539,-3.1247,-3.1263,-3.1513,-3.1344,-3.1263,-3.1367,-3.1756,-3.1972,-3.2134,-3.2807,-3.3268,-3.3441,-3.3502,-3.3591,-3.3637,-3.2982,-3.2763,-3.2987,-3.2546,-3.2431,-3.2581,-3.2692,-3.2785,-3.2925,-3.2968,-3.3144,-3.352,-3.3545,-3.3307,-3.2767,-3.2717,-3.2478,-3.1926,-3.1876,-3.2089,-3.2591,-3.3633,-3.4663,-3.5613,-3.5864,-3.5286,-3.3721,-3.3545,-3.3746,-3.4186,-3.4349,-3.4643,-3.5082,-3.5295,-3.5646,-3.6194,-3.6719,-3.7036,-3.731,-3.804,-3.8655,-3.8881,-3.9295,-3.9572,-3.9659,-3.9697,-3.9697,-3.9697,-3.9697,-3.9697,-3.9672,-3.9572,-3.9471,-3.9459,-3.9459,-3.9459,-3.9346,-3.9446,-3.9408,-3.9559,-3.9546,-3.9534,-3.9659,-3.9697,-3.9697,-3.9697,-3.9697,-3.9749,-3.9788,-3.9917,-4.0121,-4.0287,-4.044,-4.0605,-4.0656,-4.0656,-4.0757,-3.5039,-3.4787,-3.4775,-3.4775,-3.4775,-3.4775,-3.4775,-3.4727,-3.433,-3.4126,-3.4102,-3.3825,-3.3693,-3.3669,-3.3404,-3.3164,-3.2923,-3.2935,-3.2791,-3.2529,-3.2123,-3.2078,-3.2299,-3.203,-3.2039,-3.2347,-3.2277,-3.238,-3.2657,-3.2749,-3.2795,-3.2969,-3.3568,-3.4167,-3.467,-3.4695,-3.4824,-3.5034,-3.3989,-3.3514,-3.3617,-3.353,-3.3541,-3.3618,-3.3707,-3.3827,-3.3972,-3.3972,-3.4098,-3.4336,-3.4349,-3.4236,-3.3985,-3.396,-3.3847,-3.3596,-3.3571,-3.3696,-3.3947,-3.4668,-3.5504,-3.6329,-3.6417,-3.6116,-3.5349,-3.4964,-3.4731,-3.4705,-3.4944,-3.5391,-3.5931,-3.6245,-3.6659,-3.7199,-3.7487,-3.7764,-3.8078,-3.8554,-3.8981,-3.927,-3.9534,-3.9697,-3.9697,-3.9697,-3.9697,-3.9697,-3.9697,-3.9697,-3.9697,-3.9697,-3.9697,-3.9697,-3.9697,-3.9697,-3.9697,-3.9697,-3.9697,-3.9697,-3.9697,-3.9697,-3.9697,-3.9697,-3.9697,-3.9697,-3.9697,-3.9697,-3.9697,-3.9942,-4.0083,-4.0134,-4.0287,-4.0453,-4.0504,-4.0504,-4.0656,-3.5569,-3.5123,-3.5003,-3.4944,-3.4775,-3.4775,-3.4775,-3.4775,-3.4763,-3.4775,-3.4715,-3.4342,-3.4174,-3.4126,-3.3801,-3.3573,-3.3464,-3.3452,-3.3392,-3.325,-3.2959,-3.2865,-3.3031,-3.2794,-3.29,-3.3196,-3.3242,-3.3475,-3.3788,-3.3696,-3.378,-3.4066,-3.4443,-3.5013,-3.5704,-3.5668,-3.5812,-3.6001,-3.504,-3.4511,-3.4329,-3.4425,-3.4479,-3.4466,-3.459,-3.468,-3.468,-3.468,-3.4776,-3.4856,-3.4856,-3.4868,-3.4868,-3.4901,-3.4856,-3.4868,-3.4868,-3.4919,-3.5102,-3.5479,-3.5918,-3.6367,-3.6417,-3.6417,-3.638,-3.5981,-3.5567,-3.5228,-3.5629,-3.6107,-3.6521,-3.7084,-3.755,-3.7952,-3.814,-3.8366,-3.8844,-3.8969,-3.9207,-3.9622,-3.9697,-3.9697,-3.9697,-3.9697,-3.9697,-3.9697,-3.9697,-3.9697,-3.9697,-3.9697,-3.9697,-3.9697,-3.9697,-3.9697,-3.9697,-3.9697,-3.9697,-3.9697,-3.9697,-3.9697,-3.9697,-3.9697,-3.9697,-3.9697,-3.9697,-3.9697,-3.9749,-3.9839,-3.9981,-3.9981,-4.0147,-4.0249,-4.0262,-4.0249,-4.0453,-3.629,-3.6182,-3.5737,-3.5268,-3.4811,-3.4787,-3.4787,-3.4775,-3.4775,-3.4775,-3.4763,-3.4727,-3.4679,-3.4751,-3.4679,-3.4342,-3.3934,-3.3922,-3.3753,-3.3416,-3.3493,-3.3613,-3.3696,-3.4004,-3.423,-3.4244,-3.4293,-3.4301,-3.4395,-3.4548,-3.4887,-3.5376,-3.5474,-3.5655,-3.592,-3.5968,-3.6098,-3.637,-3.6257,-3.5922,-3.5374,-3.4886,-3.4668,-3.468,-3.4693,-3.468,-3.4756,-3.468,-3.4919,-3.537,-3.5433,-3.542,-3.542,-3.542,-3.542,-3.542,-3.542,-3.5667,-3.6144,-3.6292,-3.6342,-3.6405,-3.6417,-3.643,-3.6443,-3.638,-3.6317,-3.6295,-3.6697,-3.6985,-3.7136,-3.7613,-3.799,-3.8153,-3.853,-3.8818,-3.8994,-3.932,-3.9634,-3.9685,-3.9697,-3.9697,-3.9697,-3.9697,-3.9697,-3.9697,-3.9697,-3.9697,-3.9697,-3.9697,-3.9697,-3.9697,-3.9697,-3.9697,-3.9697,-3.9697,-3.9697,-3.9697,-3.9697,-3.9697,-3.9697,-3.9697,-3.9697,-3.9697,-3.9697,-3.9697,-3.9697,-3.9749,-3.9749,-3.9788,-3.9852,-3.98,-3.98,-3.9852,-3.9993,-3.6687,-3.6386,-3.617,-3.5785,-3.5328,-3.5304,-3.5063,-3.4775,-3.4775,-3.4775,-3.4775,-3.4775,-3.4775,-3.4775,-3.4775,-3.4655,-3.4462,-3.4462,-3.4354,-3.4222,-3.4475,-3.4571,-3.4655,-3.4909,-3.5175,-3.5307,-3.5196,-3.5193,-3.5336,-3.5289,-3.5459,-3.58,-3.5824,-3.5955,-3.6241,-3.6228,-3.6275,-3.6417,-3.6417,-3.6304,-3.6031,-3.5818,-3.5692,-3.5692,-3.5692,-3.5692,-3.5692,-3.5692,-3.5793,-3.6006,-3.6031,-3.6019,-3.6031,-3.6031,-3.6031,-3.6031,-3.6031,-3.6132,-3.6392,-3.6417,-3.6417,-3.6417,-3.6417,-3.6531,-3.6857,-3.6895,-3.6973,-3.7274,-3.7236,-3.7425,-3.8065,-3.8391,-3.863,-3.8956,-3.9233,-3.9346,-3.9371,-3.9546,-3.9697,-3.9697,-3.9697,-3.9697,-3.9697,-3.9697,-3.9697,-3.9697,-3.9697,-3.9697,-3.9697,-3.9697,-3.9697,-3.9697,-3.9697,-3.9697,-3.9697,-3.9697,-3.9697,-3.9697,-3.9697,-3.9697,-3.9697,-3.9697,-3.9697,-3.9697,-3.9697,-3.9697,-3.9697,-3.9697,-3.9697,-3.9697,-3.9697,-3.9697,-3.9697,-3.9697,-3.9852,-3.7192,-3.6843,-3.6675,-3.6314,-3.5833,-3.5833,-3.5533,-3.5027,-3.504,-3.4919,-3.4775,-3.4775,-3.4775,-3.4775,-3.4775,-3.4775,-3.4823,-3.4872,-3.4884,-3.4835,-3.5126,-3.5271,-3.5223,-3.5572,-3.5812,-3.5908,-3.58,-3.5812,-3.5955,-3.5908,-3.5895,-3.6098,-3.6098,-3.6193,-3.637,-3.6417,-3.6417,-3.6417,-3.6417,-3.6417,-3.6405,-3.6417,-3.6417,-3.6417,-3.6417,-3.6417,-3.6417,-3.6417,-3.6417,-3.6417,-3.6417,-3.6417,-3.6417,-3.6417,-3.6417,-3.6417,-3.6417,-3.6417,-3.6417,-3.6417,-3.6468,-3.6619,-3.6644,-3.6857,-3.7274,-3.7412,-3.7663,-3.8115,-3.7877,-3.8052,-3.873,-3.9007,-3.9283,-3.9647,-3.9697,-3.9697,-3.9685,-3.9697,-3.9697,-3.9697,-3.9697,-3.9697,-3.9697,-3.9697,-3.9697,-3.9697,-3.9697,-3.9697,-3.9697,-3.9697,-3.9697,-3.9697,-3.9697,-3.9697,-3.9697,-3.9697,-3.9697,-3.9697,-3.9697,-3.9697,-3.9697,-3.9697,-3.9697,-3.9697,-3.9697,-3.9697,-3.9697,-3.9697,-3.9697,-3.9697,-3.9697,-3.9749,-3.9839,-3.98,-3.9736,-3.7926,-3.7817,-3.736,-3.6855,-3.6374,-3.6374,-3.6062,-3.5593,-3.5593,-3.5267,-3.4883,-3.4835,-3.4847,-3.4811,-3.4835,-3.4835,-3.4823,-3.503,-3.503,-3.4884,-3.5332,-3.5428,-3.5235,-3.5716,-3.6015,-3.6015,-3.592,-3.592,-3.6003,-3.6228,-3.6358,-3.637,-3.6358,-3.637,-3.6417,-3.6417,-3.6417,-3.6417,-3.6417,-3.6417,-3.6417,-3.6417,-3.6417,-3.6417,-3.6417,-3.6417,-3.6417,-3.6417,-3.6417,-3.6417,-3.6417,-3.6417,-3.6417,-3.6417,-3.6417,-3.6417,-3.6417,-3.6417,-3.6443,-3.6455,-3.6656,-3.7061,-3.7149,-3.7387,-3.7889,-3.7977,-3.8228,-3.8831,-3.8768,-3.8806,-3.8931,-3.932,-3.9597,-3.9672,-3.9697,-3.9697,-3.9697,-3.9697,-3.9697,-3.9697,-3.9697,-3.9697,-3.9697,-3.9697,-3.9697,-3.9697,-3.9697,-3.9697,-3.9697,-3.9697,-3.9697,-3.9697,-3.9697,-3.9697,-3.9697,-3.9697,-3.9697,-3.9697,-3.9697,-3.9697,-3.9697,-3.9697,-3.9697,-3.9697,-3.9697,-3.9697,-3.9697,-3.9697,-3.9697,-3.9697,-3.9736,-3.9788,-3.9929,-3.9839,-3.9839,-3.7974,-3.7962,-3.7781,-3.7397,-3.6928,-3.6916,-3.6603,-3.6134,-3.6134,-3.6014,-3.5869,-3.5833,-3.5653,-3.5291,-3.5328,-3.516,-3.4847,-3.492,-3.4884,-3.4872,-3.5368,-3.5572,-3.5524,-3.5824,-3.6015,-3.5968,-3.5656,-3.5572,-3.5764,-3.6003,-3.6228,-3.637,-3.6417,-3.6417,-3.6417,-3.6417,-3.6417,-3.6417,-3.6417,-3.6417,-3.6417,-3.6417,-3.6417,-3.6417,-3.6417,-3.6417,-3.6417,-3.6417,-3.6417,-3.6417,-3.6417,-3.6417,-3.6417,-3.6417,-3.6417,-3.6417,-3.6417,-3.6556,-3.687,-3.6885,-3.7172,-3.7638,-3.7713,-3.7952,-3.8417,-3.858,-3.8806,-3.9245,-3.9396,-3.9396,-3.9421,-3.9584,-3.9697,-3.9697,-3.9697,-3.9697,-3.9697,-3.9697,-3.9697,-3.9697,-3.9697,-3.9697,-3.9697,-3.9697,-3.9697,-3.9697,-3.9697,-3.9697,-3.9697,-3.9697,-3.9697,-3.9697,-3.9697,-3.9697,-3.9697,-3.9697,-3.9697,-3.9697,-3.9697,-3.9697,-3.9697,-3.9697,-3.9697,-3.9697,-3.9697,-3.9749,-3.9749,-3.98,-3.98,-3.9788,-3.9839,-3.9981,-4.007,-4.0096,-4.0198,-3.7974,-3.7974,-3.7974,-3.7834,-3.7457,-3.7445,-3.7156,-3.6687,-3.6651,-3.6555,-3.6435,-3.6411,-3.6194,-3.5918,-3.5869,-3.5689,-3.5304,-3.5065,-3.4872,-3.4872,-3.5428,-3.5716,-3.5668,-3.5872,-3.6015,-3.5968,-3.562,-3.5512,-3.562,-3.5955,-3.6241,-3.6405,-3.6417,-3.6417,-3.6417,-3.6417,-3.6417,-3.6417,-3.6417,-3.6417,-3.6417,-3.6417,-3.6417,-3.6417,-3.6417,-3.6417,-3.6417,-3.6417,-3.6417,-3.6417,-3.6417,-3.6417,-3.6417,-3.6417,-3.6417,-3.643,-3.6581,-3.6784,-3.7149,-3.7349,-3.7688,-3.8228,-3.8304,-3.853,-3.9044,-3.9132,-3.9333,-3.9609,-3.9697,-3.9697,-3.9697,-3.9697,-3.9697,-3.9697,-3.9697,-3.9697,-3.9697,-3.9697,-3.9697,-3.9697,-3.9697,-3.9697,-3.9697,-3.9697,-3.9697,-3.9697,-3.9697,-3.9697,-3.9697,-3.9697,-3.9697,-3.9697,-3.9697,-3.9697,-3.9697,-3.9697,-3.9697,-3.9697,-3.9697,-3.9697,-3.9697,-3.9697,-3.9697,-3.9697,-3.9697,-3.9749,-3.98,-3.9903,-3.9955,-3.9942,-4.0096,-4.03,-4.0338,-4.0453,-4.0504,-3.7974,-3.7974,-3.7974,-3.7962,-3.7914,-3.7902,-3.7661,-3.724,-3.7192,-3.6964,-3.6651,-3.6507,-3.6531,-3.6411,-3.6411,-3.6386,-3.6172,-3.5586,-3.5114,-3.4968,-3.5597,-3.5777,-3.5572,-3.5824,-3.5872,-3.5872,-3.5968,-3.5824,-3.562,-3.6086,-3.6358,-3.6417,-3.6417,-3.6417,-3.6417,-3.6417,-3.6417,-3.6417,-3.6417,-3.6417,-3.6417,-3.6417,-3.6417,-3.6417,-3.6417,-3.6417,-3.6417,-3.6417,-3.6417,-3.6417,-3.6417,-3.6417,-3.6417,-3.6417,-3.6417,-3.6556,-3.6872,-3.7136,-3.7312,-3.7764,-3.8266,-3.8755,-3.8919,-3.9082,-3.9484,-3.9609,-3.9634,-3.9672,-3.9697,-3.9697,-3.9697,-3.9697,-3.9697,-3.9697,-3.9697,-3.9697,-3.9697,-3.9697,-3.9697,-3.9697,-3.9697,-3.9697,-3.9697,-3.9697,-3.9697,-3.9697,-3.9697,-3.9697,-3.9697,-3.9697,-3.9697,-3.9697,-3.9697,-3.9697,-3.9697,-3.9697,-3.9697,-3.9697,-3.9697,-3.9697,-3.9697,-3.9697,-3.9697,-3.9697,-3.9697,-3.9749,-4.0044,-4.0147,-4.0249,-4.03,-4.0453,-4.0555,-4.0656,-4.0707,-4.0757,-3.7974,-3.7974,-3.7974,-3.7974,-3.7974,-3.7974,-3.7866,-3.7745,-3.7733,-3.7625,-3.7517,-3.7493,-3.73,-3.7,-3.6952,-3.6747,-3.6386,-3.6138,-3.5775,-3.5475,-3.5612,-3.5585,-3.5392,-3.5428,-3.5368,-3.5271,-3.556,-3.5668,-3.5704,-3.6121,-3.6417,-3.6417,-3.6417,-3.6417,-3.6417,-3.6417,-3.6417,-3.6417,-3.6417,-3.6417,-3.6417,-3.6417,-3.6417,-3.6417,-3.6417,-3.6417,-3.6417,-3.6417,-3.6417,-3.6417,-3.6417,-3.6417,-3.6417,-3.6417,-3.6581,-3.6933,-3.7073,-3.7588,-3.8303,-3.8492,-3.8843,-3.9295,-3.9433,-3.9509,-3.9659,-3.9697,-3.9697,-3.9697,-3.9697,-3.9697,-3.9697,-3.9697,-3.9697,-3.9697,-3.9697,-3.9697,-3.9697,-3.9697,-3.9697,-3.9697,-3.9697,-3.9697,-3.9697,-3.9697,-3.9697,-3.9697,-3.9697,-3.9697,-3.9697,-3.9697,-3.9697,-3.9697,-3.9697,-3.9697,-3.9697,-3.9697,-3.9697,-3.9697,-3.9697,-3.9697,-3.9697,-3.9697,-3.9697,-3.9749,-3.9749,-3.989,-4.0185,-4.0389,-4.0453,-4.0555,-4.0593,-4.0744,-4.0896,-4.0946,-4.0997,-3.7974,-3.7974,-3.7974,-3.7974,-3.7974,-3.7974,-3.7974,-3.7974,-3.7974,-3.7974,-3.7962,-3.7962,-3.7805,-3.7529,-3.7481,-3.73,-3.6988,-3.6898,-3.6621,-3.616,-3.5819,-3.5637,-3.5478,-3.5248,-3.5126,-3.503,-3.5368,-3.5668,-3.5752,-3.6168,-3.6417,-3.6417,-3.6417,-3.6417,-3.6417,-3.6417,-3.6417,-3.6417,-3.6417,-3.6417,-3.6417,-3.6417,-3.6417,-3.6417,-3.6417,-3.6417,-3.6417,-3.6417,-3.6417,-3.6417,-3.6417,-3.6417,-3.643,-3.6593,-3.687,-3.7161,-3.7626,-3.8153,-3.8844,-3.9032,-3.9308,-3.9634,-3.9697,-3.9697,-3.9697,-3.9697,-3.9697,-3.9697,-3.9697,-3.9697,-3.9697,-3.9697,-3.9697,-3.9697,-3.9697,-3.9697,-3.9697,-3.9697,-3.9697,-3.9697,-3.9697,-3.9697,-3.9697,-3.9697,-3.9697,-3.9697,-3.9697,-3.9697,-3.9697,-3.9697,-3.9697,-3.9697,-3.9697,-3.9697,-3.9697,-3.9697,-3.9697,-3.9697,-3.9697,-3.9697,-3.9697,-3.9697,-3.9697,-3.9852,-3.9852,-3.9993,-4.0287,-4.0478,-4.0593,-4.0694,-4.0744,-4.0896,-4.0997,-4.1161,-4.1211,-3.7974,-3.7974,-3.7974,-3.7974,-3.8027,-3.8039,-3.8027,-3.8027,-3.8027,-3.8027,-3.8027,-3.7974,-3.7962,-3.795,-3.789,-3.7906,-3.7983,-3.7718,-3.7539,-3.7133,-3.662,-3.6184,-3.5805,-3.5429,-3.5223,-3.5235,-3.5464,-3.5716,-3.5955,-3.6228,-3.6417,-3.6417,-3.6417,-3.6417,-3.6417,-3.6417,-3.6417,-3.6417,-3.6417,-3.6417,-3.6417,-3.6417,-3.6417,-3.6417,-3.6417,-3.6417,-3.6417,-3.6417,-3.6417,-3.6417,-3.6417,-3.6443,-3.6556,-3.6958,-3.7149,-3.74,-3.8378,-3.8781,-3.9019,-3.9358,-3.9634,-3.9685,-3.9697,-3.9697,-3.9697,-3.9697,-3.9697,-3.9697,-3.9697,-3.9697,-3.9697,-3.9697,-3.9697,-3.9697,-3.9697,-3.9697,-3.9697,-3.9697,-3.9697,-3.9697,-3.9697,-3.9697,-3.9697,-3.9697,-3.9697,-3.9697,-3.9697,-3.9697,-3.9697,-3.9697,-3.9697,-3.9697,-3.9697,-3.9697,-3.9697,-3.9697,-3.9697,-3.9697,-3.9697,-3.9697,-3.9697,-3.9697,-3.9788,-3.989,-3.9942,-4.0147,-4.0287,-4.0491,-4.0643,-4.0694,-4.0795,-4.0997,-4.1097,-4.1147,-4.1211,-3.7974,-3.7974,-3.7974,-3.7974,-3.8039,-3.8198,-3.8198,-3.8039,-3.8198,-3.8198,-3.8027,-3.7974,-3.7974,-3.7974,-3.8027,-3.8092,-3.8202,-3.8198,-3.8307,-3.8313,-3.7814,-3.6793,-3.5899,-3.5584,-3.5404,-3.5308,-3.5573,-3.5716,-3.6003,-3.6275,-3.6417,-3.6417,-3.6417,-3.6417,-3.6417,-3.6417,-3.6417,-3.6417,-3.6417,-3.6417,-3.6417,-3.6417,-3.6417,-3.6417,-3.6417,-3.6417,-3.6417,-3.6417,-3.6417,-3.6417,-3.6417,-3.6619,-3.6897,-3.7172,-3.755,-3.8328,-3.8705,-3.9082,-3.9408,-3.9597,-3.9697,-3.9697,-3.9697,-3.9697,-3.9697,-3.9697,-3.9697,-3.9697,-3.9697,-3.9697,-3.9697,-3.9697,-3.9697,-3.9697,-3.9697,-3.9697,-3.9697,-3.9697,-3.9697,-3.9697,-3.9697,-3.9697,-3.9697,-3.9697,-3.9697,-3.9697,-3.9697,-3.9697,-3.9697,-3.9697,-3.9697,-3.9697,-3.9697,-3.9697,-3.9697,-3.9697,-3.9697,-3.9697,-3.9697,-3.9697,-3.9697,-3.9697,-3.9839,-3.9981,-3.989,-4.0044,-4.0198,-4.0389,-4.0491,-4.0593,-4.0643,-4.0694,-4.0896,-4.0997,-4.1097,-3.7974,-3.7974,-3.7974,-3.8039,-3.8198,-3.8356,-3.8356,-3.8356,-3.8356,-3.8303,-3.8145,-3.8039,-3.7974,-3.8027,-3.8145,-3.825,-3.8409,-3.8526,-3.8671,-3.8739,-3.8457,-3.7619,-3.6585,-3.6192,-3.6013,-3.5941,-3.6037,-3.6154,-3.6171,-3.631,-3.6417,-3.6417,-3.6417,-3.6417,-3.6417,-3.6417,-3.6417,-3.6417,-3.6417,-3.6417,-3.6417,-3.6417,-3.6417,-3.6417,-3.6417,-3.6417,-3.6417,-3.6417,-3.6417,-3.6417,-3.643,-3.6669,-3.7149,-3.7425,-3.7939,-3.8869,-3.9069,-3.9383,-3.9609,-3.9697,-3.9697,-3.9697,-3.9697,-3.9697,-3.9697,-3.9697,-3.9697,-3.9697,-3.9697,-3.9697,-3.9697,-3.9697,-3.9697,-3.9697,-3.9697,-3.9697,-3.9697,-3.9697,-3.9697,-3.9697,-3.9697,-3.9697,-3.9697,-3.9697,-3.9697,-3.9697,-3.9697,-3.9697,-3.9697,-3.9697,-3.9697,-3.9697,-3.9697,-3.9697,-3.9697,-3.9697,-3.9697,-3.9697,-3.9697,-3.9697,-3.9697,-3.9697,-3.9788,-3.9878,-3.9839,-3.989,-4.0044,-4.0198,-4.0287,-4.0338,-4.0338,-4.044,-4.0643,-4.0732,-4.0846,-3.7974,-3.7974,-3.7974,-3.8145,-3.8356,-3.8409,-3.8566,-3.8736,-3.8514,-3.8409,-3.8356,-3.8092,-3.8027,-3.8092,-3.8262,-3.8421,-3.8566,-3.8788,-3.8893,-3.8945,-3.8834,-3.8315,-3.7664,-3.7152,-3.691,-3.6849,-3.6873,-3.6794,-3.6676,-3.6596,-3.6531,-3.6543,-3.6493,-3.6468,-3.6531,-3.648,-3.6443,-3.6518,-3.6455,-3.6417,-3.6417,-3.6417,-3.6417,-3.6417,-3.6417,-3.6417,-3.6417,-3.6417,-3.6417,-3.6417,-3.6417,-3.6694,-3.7149,-3.7676,-3.8216,-3.8768,-3.922,-3.9509,-3.9685,-3.9697,-3.9697,-3.9697,-3.9697,-3.9697,-3.9697,-3.9697,-3.9697,-3.9697,-3.9697,-3.9697,-3.9697,-3.9697,-3.9697,-3.9697,-3.9697,-3.9697,-3.9697,-3.9697,-3.9697,-3.9697,-3.9697,-3.9697,-3.9697,-3.9697,-3.9697,-3.9697,-3.9697,-3.9697,-3.9697,-3.9697,-3.9697,-3.9697,-3.9697,-3.9697,-3.9697,-3.9697,-3.9697,-3.9697,-3.9697,-3.9697,-3.9697,-3.9697,-3.9697,-3.9749,-3.9788,-3.9788,-3.98,-3.989,-4.0032,-4.0032,-4.0044,-4.0198,-4.0402,-4.044,-4.0542,-3.7974,-3.7974,-3.7974,-3.8145,-3.8421,-3.8619,-3.8736,-3.8788,-3.8736,-3.8579,-3.8368,-3.8145,-3.8145,-3.8303,-3.8421,-3.8631,-3.905,-3.9166,-3.931,-3.9478,-3.9258,-3.9223,-3.8888,-3.8232,-3.7726,-3.7506,-3.7432,-3.7493,-3.7501,-3.7174,-3.701,-3.7021,-3.6744,-3.6631,-3.6971,-3.6719,-3.6644,-3.6895,-3.6669,-3.6505,-3.6505,-3.648,-3.6468,-3.6455,-3.6455,-3.6443,-3.6417,-3.6417,-3.6417,-3.6417,-3.6493,-3.6747,-3.7174,-3.74,-3.7977,-3.8718,-3.9019,-3.9283,-3.9597,-3.9697,-3.9697,-3.9697,-3.9697,-3.9697,-3.9697,-3.9697,-3.9697,-3.9697,-3.9697,-3.9697,-3.9697,-3.9697,-3.9697,-3.9697,-3.9697,-3.9697,-3.9697,-3.9697,-3.9697,-3.9697,-3.9697,-3.9697,-3.9697,-3.9697,-3.9697,-3.9697,-3.9697,-3.9697,-3.9697,-3.9697,-3.9697,-3.9697,-3.9697,-3.9697,-3.9697,-3.9697,-3.9697,-3.9697,-3.9697,-3.9697,-3.9697,-3.9697,-3.9697,-3.9697,-3.9736,-3.9685,-3.9697,-3.9697,-3.9839,-3.9839,-3.9839,-3.9993,-4.0083,-4.0134,-4.0185,-3.7974,-3.7974,-3.7974,-3.825,-3.8579,-3.8736,-3.8893,-3.8998,-3.8841,-3.8684,-3.8421,-3.8145,-3.8145,-3.8409,-3.8514,-3.8841,-3.927,-3.9426,-3.953,-3.9645,-3.9542,-3.9581,-3.9608,-3.9139,-3.8664,-3.8279,-3.8204,-3.8191,-3.7928,-3.7751,-3.7575,-3.7575,-3.7236,-3.7312,-3.7513,-3.7249,-3.7312,-3.7475,-3.7312,-3.7136,-3.7111,-3.686,-3.6795,-3.6795,-3.682,-3.6835,-3.7136,-3.7209,-3.7149,-3.7136,-3.7123,-3.7236,-3.7563,-3.7839,-3.8404,-3.9057,-3.927,-3.9371,-3.9634,-3.9697,-3.9697,-3.9697,-3.9697,-3.9697,-3.9697,-3.9697,-3.9697,-3.9697,-3.9697,-3.9697,-3.9697,-3.9697,-3.9697,-3.9697,-3.9697,-3.9697,-3.9697,-3.9697,-3.9697,-3.9697,-3.9697,-3.9697,-3.9697,-3.9697,-3.9697,-3.9697,-3.9697,-3.9697,-3.9697,-3.9697,-3.9697,-3.9697,-3.9697,-3.9697,-3.9697,-3.9697,-3.9697,-3.9697,-3.9697,-3.9697,-3.9697,-3.9697,-3.9697,-3.9697,-3.9685,-3.9697,-3.9697,-3.9697,-3.9697,-3.9749,-3.9788,-3.9788,-3.9826,-3.989,-3.9942,-3.8039,-3.8039,-3.8092,-3.8368,-3.8736,-3.8788,-3.8945,-3.9154,-3.8881,-3.8579,-3.8356,-3.8092,-3.8198,-3.8461,-3.8684,-3.901,-3.9374,-3.953,-3.9697,-3.9697,-3.9697,-3.9697,-3.9672,-3.9533,-3.937,-3.9082,-3.8994,-3.873,-3.8442,-3.8165,-3.814,-3.8115,-3.799,-3.7977,-3.8078,-3.8027,-3.799,-3.809,-3.7939,-3.7839,-3.7839,-3.75,-3.7324,-3.7312,-3.7324,-3.7475,-3.7751,-3.7852,-3.7927,-3.8015,-3.809,-3.8128,-3.8241,-3.8454,-3.9045,-3.9471,-3.9433,-3.9509,-3.9647,-3.9697,-3.9697,-3.9697,-3.9697,-3.9697,-3.9697,-3.9697,-3.9697,-3.9697,-3.9697,-3.9697,-3.9697,-3.9697,-3.9697,-3.9697,-3.9697,-3.9697,-3.9697,-3.9697,-3.9697,-3.9697,-3.9697,-3.9697,-3.9697,-3.9697,-3.9697,-3.9697,-3.9697,-3.9697,-3.9697,-3.9697,-3.9697,-3.9697,-3.9697,-3.9697,-3.9697,-3.9697,-3.9697,-3.9697,-3.9697,-3.9697,-3.9697,-3.9697,-3.9697,-3.9697,-3.9697,-3.9697,-3.9697,-3.9697,-3.9697,-3.9697,-3.9697,-3.9736,-3.9736,-3.9697,-3.9749,-3.8145,-3.8356,-3.8356,-3.8514,-3.8788,-3.8788,-3.8853,-3.8828,-3.8566,-3.8461,-3.8356,-3.8145,-3.825,-3.8631,-3.8736,-3.9102,-3.9478,-3.9633,-3.9697,-3.9697,-3.9697,-3.9697,-3.9697,-3.9697,-3.9622,-3.9609,-3.9521,-3.9383,-3.922,-3.8994,-3.8743,-3.863,-3.8316,-3.8304,-3.8504,-3.8341,-3.8379,-3.8617,-3.8391,-3.8191,-3.814,-3.8002,-3.7877,-3.7877,-3.7877,-3.7977,-3.804,-3.8052,-3.8002,-3.804,-3.8479,-3.873,-3.8668,-3.8467,-3.863,-3.9007,-3.917,-3.9358,-3.9622,-3.9697,-3.9697,-3.9697,-3.9697,-3.9697,-3.9697,-3.9697,-3.9697,-3.9697,-3.9697,-3.9697,-3.9697,-3.9697,-3.9697,-3.9697,-3.9697,-3.9697,-3.9697,-3.9697,-3.9697,-3.9697,-3.9697,-3.9697,-3.9697,-3.9697,-3.9697,-3.9697,-3.9697,-3.9697,-3.9697,-3.9697,-3.9697,-3.9697,-3.9697,-3.9697,-3.9697,-3.9697,-3.9697,-3.9697,-3.9697,-3.9697,-3.9697,-3.9697,-3.9697,-3.9697,-3.9697,-3.9697,-3.9697,-3.9697,-3.9697,-3.9697,-3.9697,-3.9697,-3.9697,-3.9697,-3.9697,-3.8092,-3.821,-3.8198,-3.8368,-3.8579,-3.8579,-3.8579,-3.8579,-3.8461,-3.8303,-3.8198,-3.8092,-3.8198,-3.8526,-3.8579,-3.8945,-3.9374,-3.9645,-3.9697,-3.9697,-3.9697,-3.9697,-3.9697,-3.9697,-3.9697,-3.9697,-3.9697,-3.9697,-3.9672,-3.9446,-3.927,-3.9245,-3.8981,-3.9044,-3.9195,-3.9069,-3.9007,-3.917,-3.9007,-3.8843,-3.8806,-3.863,-3.8467,-3.8454,-3.8492,-3.8605,-3.8856,-3.8881,-3.8881,-3.8944,-3.9157,-3.927,-3.9195,-3.9082,-3.8981,-3.922,-3.9283,-3.9371,-3.9634,-3.9697,-3.9697,-3.9697,-3.9697,-3.9697,-3.9697,-3.9697,-3.9697,-3.9697,-3.9697,-3.9697,-3.9697,-3.9697,-3.9697,-3.9697,-3.9697,-3.9697,-3.9697,-3.9697,-3.9697,-3.9697,-3.9697,-3.9697,-3.9697,-3.9697,-3.9697,-3.9697,-3.9697,-3.9697,-3.9697,-3.9697,-3.9697,-3.9697,-3.9697,-3.9697,-3.9697,-3.9697,-3.9697,-3.9697,-3.9697,-3.9697,-3.9697,-3.9697,-3.9697,-3.9697,-3.9697,-3.9697,-3.9697,-3.9697,-3.9697,-3.9697,-3.9697,-3.9697,-3.9697,-3.9697,-3.9697,-3.8039,-3.8092,-3.8092,-3.8198,-3.8368,-3.8409,-3.8356,-3.8303,-3.8303,-3.8198,-3.8027,-3.8027,-3.8145,-3.8356,-3.8514,-3.8776,-3.9206,-3.949,-3.9581,-3.9594,-3.9697,-3.9697,-3.9697,-3.9697,-3.9697,-3.9697,-3.9697,-3.9697,-3.9697,-3.9647,-3.9685,-3.9609,-3.9672,-3.9697,-3.9622,-3.9534,-3.9697,-3.9697,-3.9697,-3.9697,-3.9572,-3.9295,-3.9044,-3.9082,-3.9082,-3.9245,-3.9509,-3.9546,-3.9559,-3.9572,-3.9634,-3.9672,-3.9685,-3.9697,-3.9697,-3.9697,-3.9697,-3.9697,-3.9697,-3.9697,-3.9697,-3.9697,-3.9697,-3.9697,-3.9697,-3.9697,-3.9697,-3.9697,-3.9697,-3.9697,-3.9697,-3.9697,-3.9697,-3.9697,-3.9697,-3.9697,-3.9697,-3.9697,-3.9697,-3.9697,-3.9697,-3.9697,-3.9697,-3.9697,-3.9697,-3.9697,-3.9697,-3.9697,-3.9697,-3.9697,-3.9697,-3.9697,-3.9697,-3.9697,-3.9697,-3.9697,-3.9697,-3.9697,-3.9697,-3.9697,-3.9697,-3.9697,-3.9697,-3.9697,-3.9697,-3.9697,-3.9697,-3.9697,-3.9697,-3.9697,-3.9697,-3.9697,-3.9697,-3.9697,-3.9697,-3.8145,-3.8356,-3.8356,-3.8356,-3.8356,-3.8356,-3.825,-3.808,-3.808,-3.8027,-3.7974,-3.8027,-3.8145,-3.8356,-3.8619,-3.8776,-3.8945,-3.9166,-3.9362,-3.9426,-3.9581,-3.9697,-3.9697,-3.9697,-3.9697,-3.9697,-3.9697,-3.9697,-3.9697,-3.9697,-3.9697,-3.9697,-3.9697,-3.9697,-3.9697,-3.9697,-3.9697,-3.9697,-3.9697,-3.9697,-3.9685,-3.9584,-3.9546,-3.9546,-3.9559,-3.9572,-3.9685,-3.9697,-3.9697,-3.9697,-3.9697,-3.9697,-3.9697,-3.9697,-3.9697,-3.9697,-3.9697,-3.9697,-3.9697,-3.9697,-3.9697,-3.9697,-3.9697,-3.9697,-3.9697,-3.9697,-3.9697,-3.9697,-3.9697,-3.9697,-3.9697,-3.9697,-3.9697,-3.9697,-3.9697,-3.9697,-3.9697,-3.9697,-3.9697,-3.9697,-3.9697,-3.9697,-3.9697,-3.9697,-3.9697,-3.9697,-3.9697,-3.9697,-3.9697,-3.9697,-3.9697,-3.9697,-3.9697,-3.9697,-3.9697,-3.9697,-3.9697,-3.9697,-3.9697,-3.9697,-3.9697,-3.9697,-3.9697,-3.9697,-3.9697,-3.9697,-3.9697,-3.9697,-3.9697,-3.9697,-3.9697,-3.9697,-3.9697,-3.9697,-3.9697,-3.808,-3.8145,-3.8198,-3.8198,-3.8145,-3.8145,-3.8092,-3.8027,-3.7974,-3.7974,-3.7974,-3.7974,-3.8092,-3.825,-3.8461,-3.8579,-3.8631,-3.8893,-3.9154,-3.9258,-3.9426,-3.9594,-3.9697,-3.9697,-3.9697,-3.9697,-3.9697,-3.9697,-3.9697,-3.9697,-3.9697,-3.9697,-3.9697,-3.9697,-3.9697,-3.9697,-3.9697,-3.9697,-3.9697,-3.9697,-3.9697,-3.9697,-3.9697,-3.9697,-3.9697,-3.9697,-3.9697,-3.9697,-3.9697,-3.9697,-3.9697,-3.9697,-3.9697,-3.9697,-3.9697,-3.9697,-3.9697,-3.9697,-3.9697,-3.9697,-3.9697,-3.9697,-3.9697,-3.9697,-3.9697,-3.9697,-3.9697,-3.9697,-3.9697,-3.9697,-3.9697,-3.9697,-3.9697,-3.9697,-3.9697,-3.9697,-3.9697,-3.9697,-3.9697,-3.9697,-3.9697,-3.9697,-3.9697,-3.9697,-3.9697,-3.9697,-3.9697,-3.9697,-3.9697,-3.9697,-3.9697,-3.9697,-3.9697,-3.9697,-3.9697,-3.9697,-3.9697,-3.9697,-3.9697,-3.9697,-3.9697,-3.9697,-3.9697,-3.9697,-3.9697,-3.9697,-3.9697,-3.9697,-3.9697,-3.9697,-3.9697,-3.9697,-3.9697,-3.9697,-3.9697,-3.7974,-3.7974,-3.7974,-3.7974,-3.7974,-3.7974,-3.7974,-3.7974,-3.7974,-3.7974,-3.7974,-3.7974,-3.7974,-3.8027,-3.8198,-3.8303,-3.8303,-3.8579,-3.8893,-3.9102,-3.931,-3.9478,-3.9645,-3.9697,-3.9697,-3.9697,-3.9697,-3.9697,-3.9697,-3.9697,-3.9697,-3.9697,-3.9697,-3.9697,-3.9697,-3.9697,-3.9697,-3.9697,-3.9697,-3.9697,-3.9697,-3.9697,-3.9697,-3.9697,-3.9697,-3.9697,-3.9697,-3.9697,-3.9697,-3.9697,-3.9697,-3.9697,-3.9697,-3.9697,-3.9697,-3.9697,-3.9697,-3.9697,-3.9697,-3.9697,-3.9697,-3.9697,-3.9697,-3.9697,-3.9697,-3.9697,-3.9697,-3.9697,-3.9697,-3.9697,-3.9697,-3.9697,-3.9697,-3.9697,-3.9697,-3.9697,-3.9697,-3.9697,-3.9697,-3.9697,-3.9697,-3.9697,-3.9697,-3.9697,-3.9697,-3.9697,-3.9697,-3.9697,-3.9697,-3.9697,-3.9697,-3.9697,-3.9697,-3.9697,-3.9697,-3.9697,-3.9697,-3.9697,-3.9697,-3.9697,-3.9697,-3.9697,-3.9697,-3.9697,-3.9697,-3.9697,-3.9697,-3.9697,-3.9697,-3.9697,-3.9697,-3.9697,-3.9697,-3.9697,-3.9697,-3.7974,-3.7974,-3.7974,-3.7974,-3.7974,-3.7974,-3.7974,-3.7974,-3.7974,-3.7974,-3.7974,-3.7974,-3.7974,-3.8027,-3.8027,-3.808,-3.8027,-3.8303,-3.8579,-3.8893,-3.9154,-3.9374,-3.9581,-3.9697,-3.9697,-3.9697,-3.9697,-3.9697,-3.9697,-3.9697,-3.9697,-3.9697,-3.9697,-3.9697,-3.9697,-3.9697,-3.9697,-3.9697,-3.9697,-3.9697,-3.9697,-3.9697,-3.9697,-3.9697,-3.9697,-3.9697,-3.9697,-3.9697,-3.9697,-3.9697,-3.9697,-3.9697,-3.9697,-3.9697,-3.9697,-3.9697,-3.9697,-3.9697,-3.9697,-3.9697,-3.9697,-3.9697,-3.9697,-3.9697,-3.9697,-3.9697,-3.9697,-3.9697,-3.9697,-3.9697,-3.9697,-3.9697,-3.9697,-3.9697,-3.9697,-3.9697,-3.9697,-3.9697,-3.9697,-3.9697,-3.9697,-3.9697,-3.9697,-3.9697,-3.9697,-3.9697,-3.9697,-3.9697,-3.9697,-3.9697,-3.9697,-3.9697,-3.9697,-3.9697,-3.9697,-3.9697,-3.9697,-3.9697,-3.9697,-3.9697,-3.9697,-3.9697,-3.9697,-3.9697,-3.9697,-3.9697,-3.9697,-3.9697,-3.9697,-3.9697,-3.9697,-3.9697,-3.9697,-3.9697,-3.9697,-3.7974,-3.7974,-3.7974,-3.7974,-3.7974,-3.7974,-3.7974,-3.7974,-3.7974,-3.7974,-3.7974,-3.7974,-3.7974,-3.7974,-3.7974,-3.7974,-3.8027,-3.808,-3.8356,-3.8579,-3.8841,-3.9154,-3.9374,-3.9645,-3.9697,-3.9697,-3.9697,-3.9697,-3.9697,-3.9697,-3.9697,-3.9697,-3.9697,-3.9697,-3.9697,-3.9697,-3.9697,-3.9697,-3.9697,-3.9697,-3.9697,-3.9697,-3.9697,-3.9697,-3.9697,-3.9697,-3.9697,-3.9697,-3.9697,-3.9697,-3.9697,-3.9697,-3.9697,-3.9697,-3.9697,-3.9697,-3.9697,-3.9697,-3.9697,-3.9697,-3.9697,-3.9697,-3.9697,-3.9697,-3.9697,-3.9697,-3.9697,-3.9697,-3.9697,-3.9697,-3.9697,-3.9697,-3.9697,-3.9697,-3.9697,-3.9697,-3.9697,-3.9697,-3.9697,-3.9697,-3.9697,-3.9697,-3.9697,-3.9697,-3.9697,-3.9697,-3.9697,-3.9697,-3.9697,-3.9697,-3.9697,-3.9697,-3.9697,-3.9697,-3.9697,-3.9697,-3.9697,-3.9697,-3.9697,-3.9697,-3.9697,-3.9697,-3.9697,-3.9697,-3.9697,-3.9697,-3.9697,-3.9697,-3.9697,-3.9697,-3.9697,-3.9697,-3.9697,-3.9697,-3.9697,-3.7974,-3.7974,-3.7974,-3.7974,-3.7974,-3.7974,-3.7974,-3.7974,-3.7974,-3.7974,-3.7974,-3.7974,-3.7974,-3.7974,-3.7974,-3.7974,-3.7974,-3.8027,-3.825,-3.8461,-3.8776,-3.905,-3.9374,-3.9581,-3.9697,-3.9697,-3.9697,-3.9697,-3.9697,-3.9697,-3.9697,-3.9697,-3.9697,-3.9697,-3.9697,-3.9697,-3.9697,-3.9697,-3.9697,-3.9697,-3.9697,-3.9697,-3.9697,-3.9697,-3.9697,-3.9697,-3.9697,-3.9697,-3.9697,-3.9697,-3.9697,-3.9697,-3.9697,-3.9697,-3.9697,-3.9697,-3.9697,-3.9697,-3.9697,-3.9697,-3.9697,-3.9697,-3.9697,-3.9697,-3.9697,-3.9697,-3.9697,-3.9697,-3.9697,-3.9697,-3.9697,-3.9697,-3.9697,-3.9697,-3.9697,-3.9697,-3.9697,-3.9697,-3.9697,-3.9697,-3.9697,-3.9697,-3.9697,-3.9697,-3.9697,-3.9697,-3.9697,-3.9697,-3.9697,-3.9697,-3.9697,-3.9697,-3.9697,-3.9697,-3.9697,-3.9697,-3.9697,-3.9697,-3.9697,-3.9697,-3.9697,-3.9697,-3.9697,-3.9697,-3.9697,-3.9697,-3.9697,-3.9697,-3.9697,-3.9697,-3.9697,-3.9697,-3.9697,-3.9697,-3.9697,-3.7974,-3.7974,-3.7974,-3.7974,-3.7974,-3.7974,-3.7974,-3.7974,-3.7974,-3.7974,-3.7974,-3.7974,-3.7974,-3.8027,-3.8027,-3.808,-3.8092,-3.8092,-3.8303,-3.8671,-3.8841,-3.9154,-3.9478,-3.9633,-3.9697,-3.9697,-3.9697,-3.9697,-3.9697,-3.9697,-3.9697,-3.9697,-3.9697,-3.9697,-3.9697,-3.9697,-3.9697,-3.9697,-3.9697,-3.9697,-3.9697,-3.9697,-3.9697,-3.9697,-3.9697,-3.9697,-3.9697,-3.9697,-3.9697,-3.9697,-3.9697,-3.9697,-3.9697,-3.9697,-3.9697,-3.9697,-3.9697,-3.9697,-3.9697,-3.9697,-3.9697,-3.9697,-3.9697,-3.9697,-3.9697,-3.9697,-3.9697,-3.9697,-3.9697,-3.9697,-3.9697,-3.9697,-3.9697,-3.9697,-3.9697,-3.9697,-3.9697,-3.9697,-3.9697,-3.9697,-3.9697,-3.9697,-3.9697,-3.9697,-3.9697,-3.9697,-3.9697,-3.9697,-3.9697,-3.9697,-3.9697,-3.9697,-3.9697,-3.9697,-3.9697,-3.9697,-3.9697,-3.9697,-3.9697,-3.9697,-3.9697,-3.9697,-3.9697,-3.9697,-3.9697,-3.9697,-3.9697,-3.9697,-3.9697,-3.9697,-3.9697,-3.9697,-3.9697,-3.9697,-3.9697,-3.7974,-3.7974,-3.7974,-3.7974,-3.7974,-3.7974,-3.7974,-3.7974,-3.7974,-3.7974,-3.7974,-3.7974,-3.7974,-3.8027,-3.8198,-3.825,-3.8303,-3.8514,-3.8736,-3.8788,-3.901,-3.9206,-3.9413,-3.9645,-3.9697,-3.9697,-3.9697,-3.9697,-3.9697,-3.9697,-3.9697,-3.9697,-3.9697,-3.9697,-3.9697,-3.9697,-3.9697,-3.9697,-3.9697,-3.9697,-3.9697,-3.9697,-3.9697,-3.9697,-3.9697,-3.9697,-3.9697,-3.9697,-3.9697,-3.9697,-3.9697,-3.9697,-3.9697,-3.9697,-3.9697,-3.9697,-3.9697,-3.9697,-3.9697,-3.9697,-3.9697,-3.9697,-3.9697,-3.9697,-3.9697,-3.9697,-3.9697,-3.9697,-3.9697,-3.9697,-3.9697,-3.9697,-3.9697,-3.9697,-3.9697,-3.9697,-3.9697,-3.9697,-3.9697,-3.9697,-3.9697,-3.9697,-3.9697,-3.9697,-3.9697,-3.9697,-3.9697,-3.9697,-3.9697,-3.9697,-3.9697,-3.9697,-3.9697,-3.9697,-3.9697,-3.9697,-3.9697,-3.9697,-3.9697,-3.9697,-3.9697,-3.9697,-3.9697,-3.9697,-3.9697,-3.9697,-3.9697,-3.9697,-3.9697,-3.9697,-3.9697,-3.9697,-3.9697,-3.9697,-3.9697,-3.7974,-3.7974,-3.7974,-3.7974,-3.7974,-3.7974,-3.7974,-3.7974,-3.7974,-3.7974,-3.8027,-3.8092,-3.8133,-3.825,-3.8409,-3.8514,-3.8566,-3.8684,-3.8945,-3.8945,-3.9154,-3.9362,-3.9478,-3.9594,-3.9697,-3.9697,-3.9697,-3.9697,-3.9697,-3.9697,-3.9697,-3.9697,-3.9697,-3.9697,-3.9697,-3.9697,-3.9697,-3.9697,-3.9697,-3.9697,-3.9697,-3.9697,-3.9697,-3.9697,-3.9697,-3.9697,-3.9697,-3.9697,-3.9697,-3.9697,-3.9697,-3.9697,-3.9697,-3.9697,-3.9697,-3.9697,-3.9697,-3.9697,-3.9697,-3.9697,-3.9697,-3.9697,-3.9697,-3.9697,-3.9697,-3.9697,-3.9697,-3.9697,-3.9697,-3.9697,-3.9697,-3.9697,-3.9697,-3.9697,-3.9697,-3.9697,-3.9697,-3.9697,-3.9697,-3.9697,-3.9697,-3.9697,-3.9697,-3.9697,-3.9697,-3.9697,-3.9697,-3.9697,-3.9697,-3.9697,-3.9697,-3.9697,-3.9697,-3.9697,-3.9697,-3.9697,-3.9697,-3.9697,-3.9697,-3.9697,-3.9697,-3.9697,-3.9697,-3.9697,-3.9697,-3.9697,-3.9697,-3.9697,-3.9697,-3.9697,-3.9697,-3.9697,-3.9697,-3.9697,-3.9697,-3.7974,-3.7974,-3.7974,-3.7974,-3.7974,-3.7974,-3.7974,-3.7974,-3.7974,-3.7974,-3.8027,-3.825,-3.8303,-3.8421,-3.8684,-3.8788,-3.8841,-3.8893,-3.905,-3.9206,-3.9374,-3.9478,-3.9581,-3.9697,-3.9697,-3.9697,-3.9697,-3.9697,-3.9697,-3.9697,-3.9697,-3.9697,-3.9697,-3.9697,-3.9697,-3.9697,-3.9697,-3.9697,-3.9697,-3.9697,-3.9697,-3.9697,-3.9697,-3.9697,-3.9697,-3.9697,-3.9697,-3.9697,-3.9697,-3.9697,-3.9697,-3.9697,-3.9697,-3.9697,-3.9697,-3.9697,-3.9697,-3.9697,-3.9697,-3.9697,-3.9697,-3.9697,-3.9697,-3.9697,-3.9697,-3.9697,-3.9697,-3.9697,-3.9697,-3.9697,-3.9697,-3.9697,-3.9697,-3.9697,-3.9697,-3.9697,-3.9697,-3.9697,-3.9697,-3.9697,-3.9697,-3.9697,-3.9697,-3.9697,-3.9697,-3.9697,-3.9697,-3.9697,-3.9697,-3.9697,-3.9697,-3.9697,-3.9697,-3.9697,-3.9697,-3.9697,-3.9697,-3.9697,-3.9697,-3.9697,-3.9697,-3.9697,-3.9697,-3.9697,-3.9697,-3.9697,-3.9697,-3.9697,-3.9697,-3.9697,-3.9697,-3.9697,-3.9697,-3.9697,-3.9697,-3.7974,-3.7974,-3.7974,-3.7974,-3.7974,-3.7974,-3.7974,-3.7974,-3.7974,-3.7974,-3.7974,-3.808,-3.825,-3.8421,-3.8684,-3.8945,-3.9154,-3.9322,-3.9478,-3.9542,-3.9542,-3.9633,-3.9697,-3.9697,-3.9697,-3.9697,-3.9697,-3.9697,-3.9697,-3.9697,-3.9697,-3.9697,-3.9697,-3.9697,-3.9697,-3.9697,-3.9697,-3.9697,-3.9697,-3.9697,-3.9697,-3.9697,-3.9697,-3.9697,-3.9697,-3.9697,-3.9697,-3.9697,-3.9697,-3.9697,-3.9697,-3.9697,-3.9697,-3.9697,-3.9697,-3.9697,-3.9697,-3.9697,-3.9697,-3.9697,-3.9697,-3.9697,-3.9697,-3.9697,-3.9697,-3.9697,-3.9697,-3.9697,-3.9697,-3.9697,-3.9697,-3.9697,-3.9697,-3.9697,-3.9697,-3.9697,-3.9697,-3.9697,-3.9697,-3.9697,-3.9697,-3.9697,-3.9697,-3.9697,-3.9697,-3.9697,-3.9697,-3.9697,-3.9697,-3.9697,-3.9697,-3.9697,-3.9697,-3.9697,-3.9697,-3.9697,-3.9697,-3.9697,-3.9697,-3.9697,-3.9697,-3.9697,-3.9697,-3.9697,-3.9697,-3.9697,-3.9697,-3.9697,-3.9697,-3.9697,-3.9697,-3.9697,-3.9697,-3.9697,-3.9697,-3.7974,-3.7974,-3.7974,-3.7974,-3.7974,-3.7974,-3.7974,-3.7974,-3.7974,-3.7974,-3.8039,-3.8145,-3.8303,-3.8566,-3.8893,-3.9166,-3.949,-3.9594,-3.9645,-3.9645,-3.9697,-3.9697,-3.9697,-3.9697,-3.9697,-3.9697,-3.9697,-3.9697,-3.9697,-3.9697,-3.9697,-3.9697,-3.9697,-3.9697,-3.9697,-3.9697,-3.9697,-3.9697,-3.9697,-3.9697,-3.9697,-3.9697,-3.9697,-3.9697,-3.9697,-3.9697,-3.9697,-3.9697,-3.9697,-3.9697,-3.9697,-3.9697,-3.9697,-3.9697,-3.9697,-3.9697,-3.9697,-3.9697,-3.9697,-3.9697,-3.9697,-3.9697,-3.9697,-3.9697,-3.9697,-3.9697,-3.9697,-3.9697,-3.9697,-3.9697,-3.9697,-3.9697,-3.9697,-3.9697,-3.9697,-3.9697,-3.9697,-3.9697,-3.9697,-3.9697,-3.9697,-3.9697,-3.9697,-3.9697,-3.9697,-3.9697,-3.9697,-3.9697,-3.9697,-3.9697,-3.9697,-3.9697,-3.9697,-3.9697,-3.9697,-3.9697,-3.9697,-3.9697,-3.9697,-3.9697,-3.9697,-3.9697,-3.9697,-3.9697,-3.9697,-3.9697,-3.9697,-3.9697,-3.9697,-3.9697,-3.9697,-3.9697,-3.9697,-3.9697,-3.9697,-3.7974,-3.7974,-3.7974,-3.7974,-3.7974,-3.7974,-3.7974,-3.7974,-3.7974,-3.7974,-3.8039,-3.825,-3.8461,-3.8736,-3.901,-3.9322,-3.9542,-3.9697,-3.9697,-3.9697,-3.9697,-3.9697,-3.9697,-3.9697,-3.9697,-3.9697,-3.9697,-3.9697,-3.9697,-3.9697,-3.9697,-3.9697,-3.9697,-3.9697,-3.9697,-3.9697,-3.9697,-3.9697,-3.9697,-3.9697,-3.9697,-3.9697,-3.9697,-3.9697,-3.9697,-3.9697,-3.9697,-3.9697,-3.9697,-3.9697,-3.9697,-3.9697,-3.9697,-3.9697,-3.9697,-3.9697,-3.9697,-3.9697,-3.9697,-3.9697,-3.9697,-3.9697,-3.9697,-3.9697,-3.9697,-3.9697,-3.9697,-3.9697,-3.9697,-3.9697,-3.9697,-3.9697,-3.9697,-3.9697,-3.9697,-3.9697,-3.9697,-3.9697,-3.9697,-3.9697,-3.9697,-3.9697,-3.9697,-3.9697,-3.9697,-3.9697,-3.9697,-3.9697,-3.9697,-3.9697,-3.9697,-3.9697,-3.9697,-3.9697,-3.9697,-3.9697,-3.9697,-3.9697,-3.9697,-3.9697,-3.9697,-3.9697,-3.9697,-3.9697,-3.9697,-3.9697,-3.9697,-3.9697,-3.9697,-3.9697,-3.9697,-3.9697,-3.9697,-3.9697,-3.98,-3.7974,-3.7974,-3.7974,-3.7974,-3.7974,-3.7974,-3.7974,-3.7974,-3.7974,-3.8027,-3.8027,-3.8092,-3.8356,-3.8788,-3.8945,-3.927,-3.9633,-3.9697,-3.9697,-3.9697,-3.9697,-3.9697,-3.9697,-3.9697,-3.9697,-3.9697,-3.9697,-3.9697,-3.9697,-3.9697,-3.9697,-3.9697,-3.9697,-3.9697,-3.9697,-3.9697,-3.9697,-3.9697,-3.9697,-3.9697,-3.9697,-3.9697,-3.9697,-3.9697,-3.9697,-3.9697,-3.9697,-3.9697,-3.9697,-3.9697,-3.9697,-3.9697,-3.9697,-3.9697,-3.9697,-3.9697,-3.9697,-3.9697,-3.9697,-3.9697,-3.9697,-3.9697,-3.9697,-3.9697,-3.9697,-3.9697,-3.9697,-3.9697,-3.9697,-3.9697,-3.9697,-3.9697,-3.9697,-3.9697,-3.9697,-3.9697,-3.9697,-3.9697,-3.9697,-3.9697,-3.9697,-3.9697,-3.9697,-3.9697,-3.9697,-3.9697,-3.9697,-3.9697,-3.9697,-3.9697,-3.9697,-3.9697,-3.9697,-3.9697,-3.9697,-3.9697,-3.9697,-3.9697,-3.9697,-3.9697,-3.9697,-3.9697,-3.9697,-3.9697,-3.9697,-3.9697,-3.9697,-3.9697,-3.9697,-3.9697,-3.9697,-3.9736,-3.9749,-3.9749,-3.989,-3.7974,-3.7974,-3.7974,-3.808,-3.8145,-3.8027,-3.8039,-3.8198,-3.8198,-3.8198,-3.8185,-3.8198,-3.8409,-3.8841,-3.8945,-3.9218,-3.9633,-3.9697,-3.9697,-3.9697,-3.9697,-3.9697,-3.9697,-3.9697,-3.9697,-3.9697,-3.9697,-3.9697,-3.9697,-3.9697,-3.9697,-3.9697,-3.9697,-3.9697,-3.9697,-3.9697,-3.9697,-3.9697,-3.9697,-3.9697,-3.9697,-3.9697,-3.9697,-3.9697,-3.9697,-3.9697,-3.9697,-3.9697,-3.9697,-3.9697,-3.9697,-3.9697,-3.9697,-3.9697,-3.9697,-3.9697,-3.9697,-3.9697,-3.9697,-3.9697,-3.9697,-3.9697,-3.9697,-3.9697,-3.9697,-3.9697,-3.9697,-3.9697,-3.9697,-3.9697,-3.9697,-3.9697,-3.9697,-3.9697,-3.9697,-3.9697,-3.9697,-3.9697,-3.9697,-3.9697,-3.9697,-3.9697,-3.9697,-3.9697,-3.9697,-3.9697,-3.9697,-3.9697,-3.9697,-3.9697,-3.9697,-3.9697,-3.9697,-3.9697,-3.9697,-3.9697,-3.9697,-3.9697,-3.9697,-3.9697,-3.9697,-3.9697,-3.9697,-3.9697,-3.9697,-3.9697,-3.9697,-3.9697,-3.9697,-3.9697,-3.9736,-3.9736,-3.9788,-3.989,-4.0083,-3.7974,-3.7974,-3.8039,-3.8198,-3.8368,-3.8198,-3.825,-3.8421,-3.8461,-3.8473,-3.8473,-3.8514,-3.8684,-3.8893,-3.9154,-3.9426,-3.9645,-3.9697,-3.9697,-3.9697,-3.9697,-3.9697,-3.9697,-3.9697,-3.9697,-3.9697,-3.9697,-3.9697,-3.9697,-3.9697,-3.9697,-3.9697,-3.9697,-3.9697,-3.9697,-3.9697,-3.9697,-3.9697,-3.9697,-3.9697,-3.9697,-3.9697,-3.9697,-3.9697,-3.9697,-3.9697,-3.9697,-3.9697,-3.9697,-3.9697,-3.9697,-3.9697,-3.9697,-3.9697,-3.9697,-3.9697,-3.9697,-3.9697,-3.9697,-3.9697,-3.9697,-3.9697,-3.9697,-3.9697,-3.9697,-3.9697,-3.9697,-3.9697,-3.9697,-3.9697,-3.9697,-3.9697,-3.9697,-3.9697,-3.9697,-3.9697,-3.9697,-3.9697,-3.9697,-3.9697,-3.9697,-3.9697,-3.9697,-3.9697,-3.9697,-3.9697,-3.9697,-3.9697,-3.9697,-3.9697,-3.9697,-3.9697,-3.9697,-3.9697,-3.9697,-3.9697,-3.9697,-3.9697,-3.9697,-3.9697,-3.9697,-3.9697,-3.9697,-3.9697,-3.9697,-3.9697,-3.9697,-3.9697,-3.9697,-3.9697,-3.9697,-3.9736,-3.9929,-4.0083,-4.0326,-3.7974,-3.8039,-3.8238,-3.8356,-3.8409,-3.8566,-3.8684,-3.8736,-3.8736,-3.8736,-3.8788,-3.8998,-3.9154,-3.9206,-3.927,-3.9426,-3.9697,-3.9697,-3.9697,-3.9697,-3.9697,-3.9697,-3.9697,-3.9697,-3.9697,-3.9697,-3.9697,-3.9697,-3.9697,-3.9697,-3.9697,-3.9697,-3.9697,-3.9697,-3.9697,-3.9697,-3.9697,-3.9697,-3.9697,-3.9697,-3.9697,-3.9697,-3.9697,-3.9697,-3.9697,-3.9697,-3.9697,-3.9697,-3.9697,-3.9697,-3.9697,-3.9697,-3.9697,-3.9697,-3.9697,-3.9697,-3.9697,-3.9697,-3.9697,-3.9697,-3.9697,-3.9697,-3.9697,-3.9697,-3.9697,-3.9697,-3.9697,-3.9697,-3.9697,-3.9697,-3.9697,-3.9697,-3.9697,-3.9697,-3.9697,-3.9697,-3.9697,-3.9697,-3.9697,-3.9697,-3.9697,-3.9697,-3.9697,-3.9697,-3.9697,-3.9697,-3.9697,-3.9697,-3.9697,-3.9697,-3.9697,-3.9697,-3.9697,-3.9697,-3.9697,-3.9697,-3.9697,-3.9697,-3.9697,-3.9697,-3.9697,-3.9697,-3.9697,-3.9697,-3.9697,-3.9697,-3.9697,-3.9697,-3.9697,-3.9697,-3.9697,-3.9788,-3.9981,-4.0236,-4.0427]},{"header":{"parameterUnit":"m.s-1","parameterCategory":1,"la1":31.0,"la2":29.5877,"lo1":-88.7671,"lo2":-86.6584,"dy":0.0162,"dx":0.0185,"nx":115,"ny":88,"refTime":"2024-06-26T18:00:00:Z","depth":0,"parameterNumber":3,"parameterNumberName":"V-component_of_WINDS"},"data":[0.0,0.0,0.0,0.0,0.0,0.0,0.0,0.0,0.0,0.0,0.0,0.0,0.0,0.0,0.0,0.0,0.0,0.0,0.0,0.0,0.0,0.0,0.0,0.0,0.0,0.0,0.0,0.0,0.0,0.0,0.0,0.0,0.0,0.0,0.0,0.0,0.0,0.0,0.0,0.0,0.0,0.0,0.0,0.0,0.0,0.0,0.0,0.0,0.0,0.0,0.0,0.0,0.0,0.0,0.0,0.0,0.0,0.0,0.0,0.0,0.0,0.0,0.0,0.0,0.0,0.0,0.0,0.0,0.0,0.0,0.0,0.0,0.0,0.0,0.0,0.0,0.0,0.0,0.0,0.0,0.0,0.0,0.0,0.0,0.0,0.0,0.0,0.0,0.0,0.0,0.0,0.0,0.0,0.0,0.0,0.0,0.0,0.0,0.0,0.0,0.0,0.0,0.0,0.0,0.0,0.0,0.0,0.0,0.0,0.0,0.0,0.0,0.0,0.0,0.0,0.0,0.0,0.0,0.0,0.0,0.0,0.0,0.0,0.0,0.0,0.0,0.0,0.0,0.0,0.0,0.0,0.0,0.0,0.0,0.0,0.0,0.0,0.0,0.0,0.0,0.0,0.0,0.0,0.0,0.0,0.0,0.0,0.0,0.0,0.0,0.0,0.0,0.0,0.0,0.0,0.0,0.0,0.0,0.0,0.0,0.0,0.0,0.0,0.0,0.0,0.0,0.0,0.0,0.0,0.0,0.0,0.0,0.0,0.0,0.0,0.0,0.0,0.0,0.0,0.0,0.0,0.0,0.0,0.0,0.0,0.0,0.0,0.0,0.0,0.0,0.0,0.0,0.0,0.0,0.0,0.0,0.0,0.0,0.0,0.0,0.0,0.0,0.0,0.0,0.0,0.0,0.0,0.0,0.0,0.0,0.0,0.0,0.0,0.0,0.0,0.0,0.0,0.0,0.0,0.0,0.0,0.0,0.0,0.0,0.0,0.0,0.0,0.0,0.0,0.0,0.0,0.0,0.0,0.0,0.0,0.0,0.0,0.0,0.0,0.0,0.0,0.0,0.0,0.0,0.0,0.0,0.0,0.0,0.0,0.0,0.0,0.0,0.0,0.0,0.0,0.0,0.0,0.0,0.0,0.0,0.0,0.0,0.0,0.0,0.0,0.0,0.0,0.0,0.0,0.0,0.0,0.0,0.0,0.0,0.0,0.0,0.0,0.0,0.0,0.0,0.0,0.0,0.0,0.0,0.0,0.0,0.0,0.0,0.0,0.0,0.0,0.0,0.0,0.0,0.0,0.0,0.0,0.0,0.0,0.0,0.0,0.0,0.0,0.0,0.0,0.0,0.0,0.0,0.0,0.0,0.0,0.0,0.0,0.0,0.0,0.0,0.0,0.0,0.0,0.0,0.0,0.0,0.0,0.0,0.0,0.0,0.0,0.0,0.0,0.0,0.0,0.0,0.0,0.0,0.0,0.0,0.0,0.0,0.0,0.0,0.0,0.0,0.0,0.0,0.0,0.0,0.0,0.0,0.0,0.0,0.0,0.0,0.0,0.0,0.0,0.0,0.0,0.0,0.0,0.0,0.0,0.0,0.0,0.0,0.0,0.0,0.0,0.0,0.0,0.0,0.0,0.0,0.0,0.0,0.0,0.0,0.0,0.0,0.0,0.0,0.0,0.0,0.0,0.0,0.0,0.0,0.0,0.0,0.0,0.0,0.0,0.0,0.0,0.0,0.0,0.0,0.0,0.0,0.0,0.0,0.0,0.0,0.0,0.0,0.0,0.0,0.0,0.0,0.0,0.0,0.0,0.0,0.0,0.0,0.0,0.0,0.0,0.0,0.0,0.0,0.0,0.0,0.0,0.0,0.0,0.0,0.0,0.0,0.0,0.0,0.0,0.0,0.0,0.0,0.0,0.0,0.0,0.0,0.0,0.0,0.0,0.0,0.0,0.0,0.0,0.0,0.0,0.0,0.0,0.0,0.0,0.0,0.0,0.0,0.0,0.0,0.0,0.0,0.0,0.0,0.0,0.0,0.0,0.0,0.0,0.0,0.0,0.0,0.0,0.0,0.0,0.0,0.0,0.0,0.0,0.0,0.0,0.0,0.0,0.0,0.0,0.0,0.0,0.0,0.0,0.0,0.0,0.0,0.0,0.0,0.0,0.0,0.0,0.0,0.0,0.0,0.0,0.0,0.0,0.0,0.0,0.0,0.0,0.0,0.0,0.0,0.0,0.0,0.0,0.0,0.0,0.0,0.0,0.0,0.0,0.0,0.0,0.0,0.0,0.0,0.0,0.0,0.0,0.0,0.0,0.0,0.0,0.0,0.0,0.0,0.0,0.0,0.0,0.0,0.0,0.0,0.0,0.0,0.0,0.0,0.0,0.0,0.0,0.0,0.0,0.0,0.0,0.0,0.0,0.0,0.0,0.0,0.0,0.0,0.0,0.0,0.0,0.0,0.0,0.0,0.0,0.0,0.0,0.0,0.0,0.0,0.0,0.0,0.0,0.0,0.0,0.0,0.0,0.0,0.0,0.0,0.0,0.0,0.0,0.0,0.0,0.0,0.0,0.0,0.0,0.0,0.0,0.0,0.0,0.0,0.0,0.0,0.0,0.0,0.0,0.0,0.0,0.0,0.0,0.0,0.0,0.0,0.0,0.0,0.0,0.0,0.0,0.0,0.0,0.0,0.0,0.0,0.0,0.0,0.0,0.0,0.0,0.0,0.0,0.0,0.0,0.0,0.0,0.0,0.0,0.0,0.0,0.0,0.0,0.0,0.0,0.0,0.0,0.0,0.0,0.0,0.0,0.0,0.0,0.0,0.0,0.0,0.0,0.0,0.0,0.0,0.0,0.0,0.0,0.0,0.0,0.0,0.0,0.0,0.0,0.0,0.0,0.0,0.0,0.0,0.0,0.0,0.0,0.0,0.0,0.0,0.0,0.0,0.0,0.0,0.0,0.0,0.0,0.0,0.0,0.0,0.0,0.0,0.0,0.0,0.0,0.0,0.0,0.0,0.0,0.0,0.0,0.0,0.0,0.0,0.0,0.0,0.0,0.0,0.0,0.0,0.0,0.0,0.0,0.0,0.0,0.0,0.0,0.0,0.0,0.0,0.0,0.0,0.0,0.0,0.0,0.0,0.0,0.0,0.0,0.0,0.0,0.0,0.0,0.0,0.0,0.0,0.0,0.0,0.0,0.0,0.0,0.0,0.0,0.0,0.0,0.0,0.0,0.0,0.0,0.0,0.0,0.0,0.0,0.0,0.0,0.0,0.0,0.0,0.0,0.0,0.0,0.0,0.0,0.0,0.0,0.0,0.0,0.0,0.0,0.0,0.0,0.0,0.0,0.0,0.0,0.0,0.0,0.0,0.0,0.0,0.0,0.0,0.0,0.0,0.0,0.0,0.0,0.0,0.0,0.0,0.0,0.0,0.0,0.0,0.0,0.0,0.0,0.0,0.0,0.0,0.0,0.0,0.0,0.0,0.0,0.0,0.0,0.0,0.0,0.0,0.0,0.0,0.0,0.0,0.0,0.0,0.0,0.0,0.0,0.0,0.0,0.0,0.0,0.0,0.0,0.0,0.0,0.0,0.0,0.0,0.0,0.0,0.0,0.0,0.0,0.0,0.0,0.0,0.0,0.0,0.0,0.0,0.0,0.0,0.0,0.0,0.0,0.0,0.0,0.0,0.0,0.0,0.0,0.0,0.0,0.0,0.0,0.0,0.0,0.0,0.0,0.0,0.0,0.0,0.0,0.0,0.0,0.0,0.0,0.0,0.0,0.0,0.0,0.0,0.0,0.0,0.0,0.0,0.0,0.0,0.0,0.0,0.0,0.0,0.0,0.0,0.0,0.0,0.0,0.0,0.0,0.0,0.0,0.0,0.0,0.0,0.0,0.0,0.0,0.0,0.0,0.0,0.0,0.0,0.0,0.0,0.0,0.0,0.0,0.0,0.0,0.0,0.0,0.0,0.0,0.0,0.0,0.0,0.0,0.0,0.0,0.0,0.0,0.0,0.0,0.0,0.0,0.0,0.0,0.0,0.0,0.0,0.0,0.0,0.0,0.0,0.0,0.0,0.0,0.0,0.0,0.0,0.0,0.0,0.0,0.0,0.0,0.0,0.0,0.0,0.0,0.0,0.0,0.0,0.0,0.0,0.0,0.0,0.0,0.0,0.0,0.0,0.0,0.0,0.0,0.0,0.0,0.0,0.0,0.0,0.0,0.0,0.0,0.0,0.0,0.0,0.0,0.0,0.0,0.0,-0.7742,0.0,0.0,0.0,0.0,0.0,0.0,0.0,0.0,0.0,0.0,0.0,0.0,0.0,0.0,0.0,0.0,0.0,0.0,0.0,0.0,0.0,0.0,0.0,0.0,0.0,0.0,0.0,0.0,0.0,0.0,0.0,0.0,0.0,0.0,0.0,0.0,0.0,0.0,0.0,0.0,0.0,0.0,0.0,0.0,0.0,0.0,0.0,0.0,0.0,0.0,0.0,0.0,0.0,0.0,0.0,0.0,0.0,0.0,0.0,0.0,0.0,0.0,0.0,0.0,0.0,0.0,0.0,0.0,0.0,0.0,0.0,0.0,0.0,0.0,0.0,0.0,0.0,0.0,0.0,0.0,0.0,0.0,0.0,0.0,0.0,0.0,0.0,0.0,0.0,0.0,0.0,0.0,0.0,0.0,0.0,0.0,0.0,0.0,0.0,0.0,0.0,0.0,0.0,0.0,0.0,0.0,0.0,0.0,0.0,0.0,-0.8567,-0.8179,-0.8391,-0.8352,-0.7977,0.0,0.0,0.0,0.0,0.0,0.0,0.0,0.0,0.0,0.0,0.0,0.0,0.0,0.0,0.0,0.0,0.0,0.0,0.0,0.0,0.0,0.0,0.0,0.0,0.0,0.0,0.0,0.0,0.0,0.0,0.0,0.0,0.0,0.0,0.0,0.0,0.0,0.0,0.0,0.0,0.0,0.0,0.0,0.0,0.0,0.0,0.0,0.0,0.0,0.0,0.0,0.0,0.0,0.0,0.0,0.0,0.0,0.0,0.0,0.0,0.0,0.0,0.0,0.0,0.0,0.0,0.0,0.0,0.0,0.0,0.0,0.0,0.0,0.0,0.0,0.0,0.0,0.0,0.0,0.0,0.0,0.0,0.0,0.0,0.0,0.0,0.0,0.0,0.0,0.0,0.0,0.0,0.0,0.0,0.0,0.0,0.0,0.0,0.0,0.0,0.0,0.0,0.0,0.0,0.0,0.0,0.0,0.0,0.0,0.0,0.0,0.0,-0.9124,-0.9097,-0.8577,0.0,0.0,0.0,0.0,0.0,0.0,0.0,0.0,0.0,0.0,0.0,0.0,0.0,0.0,0.0,0.0,0.0,0.0,0.0,0.0,0.0,0.0,0.0,0.0,0.0,0.0,0.0,0.0,0.0,0.0,0.0,0.0,0.0,0.0,0.0,0.0,0.0,0.0,0.0,0.0,0.0,0.0,0.0,0.0,0.0,0.0,0.0,0.0,0.0,0.0,0.0,0.0,0.0,0.0,0.0,0.0,0.0,0.0,0.0,0.0,0.0,0.0,0.0,0.0,0.0,0.0,0.0,0.0,0.0,0.0,0.0,0.0,0.0,0.0,0.0,0.0,0.0,0.0,0.0,0.0,0.0,0.0,0.0,0.0,0.0,0.0,0.0,0.0,0.0,0.0,0.0,0.0,0.0,0.0,0.0,0.0,0.0,0.0,0.0,0.0,0.0,0.0,0.0,0.0,0.0,0.0,0.0,0.0,0.0,0.0,-0.9756,-1.0029,-1.0466,0.0,-0.9955,0.0,0.0,0.0,0.0,0.0,0.0,0.0,0.0,0.0,0.0,0.0,0.0,0.0,0.0,0.0,0.0,0.0,0.0,0.0,0.0,0.0,0.0,0.0,0.0,0.0,0.0,0.0,0.0,0.0,0.0,0.0,0.0,0.0,0.0,0.0,0.0,0.0,0.0,0.0,0.0,0.0,0.0,0.0,0.0,0.0,0.0,0.0,0.0,0.0,0.0,0.0,0.0,0.0,0.0,0.0,0.0,0.0,0.0,0.0,0.0,0.0,0.0,0.0,0.0,0.0,0.0,0.0,0.0,0.0,0.0,0.0,0.0,0.0,0.0,0.0,0.0,0.0,0.0,0.0,0.0,0.0,0.0,0.0,0.0,0.0,0.0,0.0,0.0,0.0,0.0,0.0,0.0,0.0,0.0,0.0,0.0,0.0,0.0,0.0,0.0,0.0,0.0,0.0,0.0,0.0,0.0,0.0,0.0,0.0,0.0,0.0,-1.0208,-1.0376,-1.0368,0.0,0.0,0.0,0.0,0.0,0.0,0.0,0.0,0.0,0.0,0.0,0.0,0.0,0.0,0.0,0.0,0.0,0.0,0.0,0.0,0.0,0.0,0.0,0.0,0.0,0.0,0.0,0.0,0.0,0.0,0.0,0.0,0.0,0.0,0.0,0.0,0.0,0.0,0.0,0.0,0.0,0.0,0.0,0.0,0.0,0.0,0.0,0.0,0.0,0.0,0.0,0.0,0.0,0.0,0.0,0.0,0.0,0.0,0.0,0.0,0.0,0.0,0.0,0.0,0.0,0.0,0.0,0.0,0.0,0.0,0.0,0.0,0.0,0.0,0.0,0.0,0.0,0.0,0.0,0.0,0.0,0.0,0.0,0.0,0.0,0.0,0.0,0.0,0.0,0.0,0.0,0.0,0.0,0.0,0.0,0.0,0.0,0.0,0.0,0.0,0.0,0.0,0.0,0.0,0.0,0.0,0.0,0.0,0.0,0.0,-1.1186,0.0,-1.0971,-1.0962,-1.0706,-1.0211,0.0,0.0,0.0,0.0,0.0,0.0,0.0,0.0,0.0,0.0,0.0,0.0,0.0,0.0,0.0,0.0,0.0,0.0,0.0,0.0,0.0,0.0,0.0,0.0,0.0,0.0,0.0,0.0,0.0,0.0,0.0,0.0,0.0,0.0,0.0,0.0,0.0,0.0,0.0,0.0,0.0,0.0,0.0,0.0,0.0,0.0,0.0,0.0,0.0,0.0,0.0,0.0,0.0,0.0,0.0,0.0,0.0,0.0,0.0,0.0,0.0,0.0,0.0,0.0,0.0,0.0,0.0,0.0,0.0,0.0,0.0,0.0,0.0,0.0,0.0,0.0,0.0,0.0,0.0,0.0,0.0,0.0,0.0,0.0,0.0,0.0,0.0,0.0,0.0,0.0,0.0,0.0,0.0,0.0,0.0,0.0,0.0,0.0,0.0,0.0,0.0,0.0,0.0,0.0,0.0,0.0,0.0,0.0,0.0,-1.2509,-1.2103,-1.2785,-1.277,-1.1975,0.0,0.0,0.0,0.0,0.0,0.0,0.0,0.0,0.0,0.0,0.0,0.0,0.0,0.0,0.0,0.0,0.0,0.0,0.0,0.0,0.0,0.0,0.0,0.0,0.0,0.0,0.0,0.0,0.0,0.0,0.0,0.0,0.0,0.0,0.0,0.0,0.0,0.0,0.0,0.0,0.0,0.0,0.0,0.0,0.0,0.0,0.0,0.0,0.0,0.0,0.0,0.0,0.0,0.0,0.0,0.0,0.0,0.0,0.0,0.0,0.0,0.0,0.0,0.0,0.0,0.0,0.0,0.0,0.0,0.0,0.0,0.0,0.0,0.0,0.0,0.0,0.0,0.0,0.0,0.0,0.0,0.0,0.0,0.0,0.0,0.0,0.0,0.0,0.0,0.0,0.0,0.0,0.0,0.0,0.0,0.0,0.0,0.0,0.0,0.0,0.0,0.0,0.0,0.0,0.0,0.0,0.0,0.0,0.0,-1.1709,-1.1861,-1.2972,-1.4964,-1.2817,-1.1713,0.0,0.0,0.0,0.0,0.0,0.0,0.0,0.0,0.0,0.0,0.0,0.0,0.0,0.0,0.0,0.0,0.0,0.0,0.0,0.0,0.0,0.0,0.0,0.0,0.0,0.0,0.0,0.0,0.0,0.0,0.0,0.0,0.0,0.0,0.0,0.0,0.0,0.0,0.0,0.0,0.0,0.0,0.0,0.0,0.0,0.0,0.0,0.0,0.0,0.0,0.0,0.0,0.0,0.0,0.0,0.0,0.0,0.0,0.0,0.0,0.0,0.0,0.0,0.0,0.0,0.0,0.0,0.0,0.0,0.0,0.0,0.0,0.0,0.0,0.0,0.0,0.0,0.0,0.0,0.0,0.0,0.0,0.0,0.0,0.0,0.0,0.0,0.0,0.0,0.0,0.0,0.0,0.0,0.0,0.0,0.0,0.0,0.0,0.0,0.0,0.0,0.0,0.0,0.0,0.0,0.0,0.0,0.0,0.0,-1.1829,0.0,-1.4438,0.0,-1.3455,-1.2151,0.0,0.0,0.0,0.0,0.0,0.0,0.0,0.0,0.0,0.0,0.0,0.0,0.0,0.0,0.0,0.0,0.0,0.0,0.0,0.0,0.0,0.0,0.0,0.0,0.0,0.0,0.0,0.0,0.0,0.0,0.0,0.0,0.0,0.0,0.0,0.0,0.0,0.0,0.0,0.0,0.0,0.0,0.0,0.0,0.0,0.0,0.0,0.0,0.0,0.0,0.0,0.0,0.0,0.0,0.0,0.0,0.0,0.0,0.0,0.0,0.0,0.0,0.0,0.0,0.0,0.0,0.0,0.0,0.0,0.0,0.0,0.0,0.0,0.0,0.0,0.0,0.0,0.0,0.0,0.0,0.0,0.0,0.0,0.0,0.0,0.0,0.0,0.0,0.0,0.0,0.0,0.0,0.0,0.0,0.0,0.0,0.0,0.0,0.0,0.0,0.0,0.0,0.0,0.0,0.0,0.0,0.0,0.0,-1.2665,-1.4696,-1.6484,-1.6453,-1.4585,-1.4775,-1.3429,0.0,0.0,0.0,0.0,0.0,0.0,0.0,0.0,0.0,0.0,0.0,0.0,0.0,0.0,0.0,0.0,0.0,0.0,0.0,0.0,0.0,0.0,0.0,0.0,0.0,0.0,0.0,0.0,0.0,0.0,0.0,0.0,0.0,0.0,0.0,0.0,0.0,0.0,0.0,0.0,0.0,0.0,0.0,0.0,0.0,0.0,0.0,0.0,0.0,0.0,0.0,0.0,0.0,0.0,0.0,0.0,0.0,0.0,0.0,0.0,0.0,0.0,0.0,0.0,0.0,0.0,0.0,0.0,0.0,0.0,0.0,0.0,0.0,0.0,0.0,0.0,0.0,0.0,0.0,0.0,0.0,0.0,0.0,0.0,0.0,0.0,0.0,0.0,0.0,0.0,0.0,0.0,0.0,0.0,0.0,0.0,0.0,0.0,0.0,0.0,0.0,0.0,0.0,0.0,0.0,0.0,0.0,0.0,0.0,-1.4347,-1.5648,-1.6756,-1.7444,-1.4979,-1.3775,0.0,0.0,0.0,0.0,0.0,0.0,0.0,0.0,0.0,0.0,0.0,0.0,0.0,0.0,0.0,0.0,0.0,0.0,0.0,0.0,0.0,0.0,0.0,0.0,0.0,0.0,0.0,0.0,0.0,0.0,0.0,0.0,0.0,0.0,0.0,0.0,0.0,0.0,0.0,0.0,0.0,0.0,0.0,0.0,0.0,0.0,0.0,0.0,0.0,0.0,0.0,0.0,0.0,0.0,0.0,0.0,0.0,0.0,0.0,0.0,0.0,0.0,0.0,0.0,0.0,0.0,0.0,0.0,0.0,0.0,0.0,0.0,0.0,0.0,0.0,0.0,0.0,0.0,0.0,0.0,0.0,0.0,0.0,0.0,0.0,0.0,0.0,0.0,0.0,0.0,0.0,0.0,0.0,0.0,0.0,0.0,0.0,0.0,0.0,0.0,0.0,0.0,0.0,0.0,0.0,0.0,0.0,0.0,0.0,-1.6176,-1.721,-1.831,-1.9446,-1.6542,-1.5097,-1.5339,0.0,0.0,0.0,0.0,0.0,0.0,0.0,0.0,0.0,0.0,0.0,0.0,0.0,0.0,0.0,0.0,0.0,0.0,0.0,0.0,0.0,0.0,0.0,0.0,0.0,0.0,0.0,0.0,0.0,0.0,0.0,0.0,0.0,0.0,0.0,0.0,0.0,0.0,0.0,0.0,0.0,0.0,0.0,0.0,0.0,0.0,0.0,0.0,0.0,0.0,0.0,0.0,0.0,0.0,0.0,0.0,0.0,0.0,0.0,0.0,0.0,0.0,0.0,0.0,0.0,0.0,0.0,0.0,0.0,0.0,0.0,0.0,0.0,0.0,0.0,0.0,0.0,0.0,0.0,0.0,0.0,0.0,0.0,0.0,0.0,0.0,0.0,0.0,0.0,0.0,0.0,0.0,0.0,0.0,0.0,0.0,0.0,0.0,0.0,0.0,0.0,0.0,0.0,0.0,0.0,0.0,0.0,0.0,-1.9627,-2.0746,-2.1041,-2.0527,-1.9148,-1.7231,0.0,0.0,0.0,0.0,0.0,0.0,0.0,0.0,0.0,0.0,0.0,0.0,0.0,0.0,0.0,0.0,0.0,0.0,0.0,0.0,0.0,0.0,0.0,0.0,0.0,0.0,0.0,0.0,0.0,0.0,0.0,0.0,0.0,0.0,0.0,0.0,0.0,0.0,0.0,0.0,0.0,0.0,0.0,0.0,0.0,0.0,0.0,0.0,0.0,0.0,0.0,0.0,0.0,0.0,0.0,0.0,0.0,0.0,0.0,0.0,0.0,0.0,0.0,0.0,0.0,0.0,0.0,0.0,0.0,0.0,0.0,0.0,0.0,0.0,0.0,0.0,0.0,0.0,0.0,0.0,0.0,0.0,0.0,0.0,0.0,0.0,0.0,0.0,0.0,0.0,0.0,0.0,0.0,0.0,0.0,0.0,0.0,0.0,0.0,0.0,0.0,0.0,0.0,0.0,0.0,0.0,0.0,0.0,0.0,-2.147,-2.3137,-2.3599,-2.2791,-2.0463,-1.8862,0.0,0.0,0.0,0.0,0.0,0.0,0.0,0.0,0.0,0.0,0.0,0.0,0.0,0.0,0.0,0.0,0.0,0.0,0.0,0.0,0.0,0.0,0.0,0.0,0.0,0.0,0.0,0.0,0.0,0.0,0.0,0.0,0.0,0.0,0.0,0.0,0.0,0.0,0.0,0.0,0.0,0.0,0.0,0.0,0.0,0.0,0.0,0.0,0.0,0.0,0.0,0.0,0.0,0.0,0.0,0.0,0.0,0.0,0.0,0.0,0.0,0.0,0.0,0.0,0.0,0.0,0.0,0.0,0.0,0.0,0.0,0.0,0.0,0.0,0.0,0.0,0.0,0.0,0.0,0.0,0.0,0.0,0.0,0.0,0.0,0.0,0.0,0.0,0.0,0.0,0.0,0.0,0.0,0.0,0.0,0.0,0.0,0.0,0.0,0.0,0.0,0.0,0.0,0.0,0.0,0.0,0.0,0.0,-2.1568,-2.3675,-2.5167,-2.5734,-2.5319,-2.2736,-2.0759,0.0,0.0,0.0,0.0,0.0,0.0,0.0,0.0,0.0,0.0,0.0,0.0,0.0,0.0,0.0,0.0,0.0,0.0,0.0,0.0,0.0,0.0,0.0,0.0,0.0,0.0,0.0,0.0,0.0,0.0,0.0,0.0,0.0,0.0,0.0,0.0,0.0,0.0,0.0,0.0,0.0,0.0,0.0,0.0,0.0,0.0,0.0,0.0,0.0,0.0,0.0,0.0,0.0,0.0,0.0,0.0,0.0,0.0,0.0,0.0,0.0,0.0,0.0,0.0,0.0,0.0,0.0,0.0,0.0,0.0,0.0,0.0,0.0,0.0,0.0,0.0,0.0,0.0,0.0,0.0,0.0,0.0,0.0,0.0,0.0,0.0,0.0,0.0,0.0,0.0,0.0,0.0,0.0,0.0,0.0,0.0,0.0,0.0,0.0,0.0,0.0,0.0,0.0,0.0,0.0,0.0,0.0,0.0,-2.3271,-2.5836,-2.6862,-2.7482,-2.761,-2.5266,-2.2654,0.0,0.0,0.0,0.0,0.0,0.0,0.0,0.0,0.0,0.0,0.0,0.0,0.0,0.0,0.0,0.0,0.0,0.0,0.0,0.0,0.0,0.0,0.0,0.0,0.0,0.0,0.0,0.0,0.0,0.0,0.0,0.0,0.0,0.0,0.0,0.0,0.0,0.0,0.0,0.0,0.0,0.0,0.0,0.0,0.0,0.0,0.0,0.0,0.0,0.0,0.0,0.0,0.0,0.0,0.0,0.0,0.0,0.0,0.0,0.0,0.0,0.0,0.0,0.0,0.0,0.0,0.0,0.0,0.0,0.0,0.0,0.0,0.0,0.0,0.0,0.0,0.0,0.0,0.0,0.0,0.0,0.0,0.0,0.0,0.0,0.0,0.0,0.0,0.0,0.0,0.0,0.0,0.0,0.0,0.0,0.0,0.0,0.0,0.0,0.0,0.0,0.0,0.0,0.0,0.0,0.0,0.0,0.0,-2.4828,-2.6396,-2.7639,-2.8552,-2.9053,-2.5814,-2.3199,0.0,0.0,0.0,0.0,0.0,0.0,0.0,0.0,0.0,0.0,0.0,0.0,0.0,0.0,0.0,0.0,0.0,0.0,0.0,0.0,0.0,0.0,0.0,0.0,0.0,0.0,0.0,0.0,0.0,0.0,0.0,0.0,0.0,0.0,0.0,0.0,0.0,0.0,0.0,0.0,0.0,0.0,0.0,0.0,0.0,0.0,0.0,0.0,-1.5336,0.0,0.0,0.0,0.0,0.0,0.0,0.0,0.0,0.0,0.0,0.0,0.0,0.0,0.0,0.0,0.0,0.0,0.0,0.0,0.0,0.0,0.0,0.0,0.0,0.0,0.0,0.0,0.0,0.0,0.0,0.0,0.0,0.0,0.0,0.0,0.0,0.0,0.0,0.0,0.0,0.0,0.0,0.0,0.0,0.0,0.0,0.0,0.0,0.0,0.0,0.0,0.0,0.0,0.0,0.0,0.0,0.0,0.0,0.0,-2.658,-2.8631,-2.9024,-2.9417,-2.9787,-2.6948,-2.4416,0.0,0.0,0.0,0.0,0.0,0.0,0.0,0.0,0.0,0.0,0.0,0.0,0.0,0.0,0.0,0.0,0.0,0.0,0.0,0.0,0.0,0.0,0.0,0.0,0.0,0.0,0.0,0.0,0.0,0.0,0.0,0.0,0.0,0.0,0.0,0.0,0.0,0.0,0.0,0.0,0.0,0.0,0.0,0.0,0.0,0.0,0.0,0.0,0.0,0.0,0.0,0.0,0.0,0.0,0.0,0.0,0.0,0.0,0.0,0.0,0.0,0.0,0.0,0.0,0.0,0.0,0.0,0.0,0.0,0.0,0.0,0.0,0.0,0.0,0.0,0.0,0.0,0.0,0.0,0.0,0.0,0.0,0.0,0.0,0.0,0.0,0.0,0.0,0.0,0.0,0.0,0.0,0.0,0.0,0.0,0.0,0.0,0.0,0.0,0.0,0.0,0.0,0.0,0.0,0.0,0.0,0.0,-2.5636,-2.8048,-3.098,-3.034,-3.0076,-3.0472,-2.821,-2.5714,-2.3071,0.0,0.0,0.0,0.0,0.0,0.0,0.0,0.0,0.0,0.0,0.0,0.0,0.0,0.0,0.0,0.0,0.0,0.0,0.0,0.0,0.0,0.0,0.0,0.0,0.0,0.0,0.0,0.0,0.0,0.0,0.0,0.0,0.0,0.0,0.0,0.0,0.0,0.0,-1.4149,-1.5899,0.0,0.0,0.0,0.0,0.0,0.0,0.0,0.0,-1.6749,0.0,0.0,0.0,0.0,0.0,0.0,0.0,0.0,0.0,0.0,0.0,0.0,0.0,0.0,0.0,0.0,0.0,0.0,0.0,0.0,0.0,0.0,0.0,0.0,0.0,0.0,0.0,0.0,0.0,0.0,0.0,0.0,0.0,0.0,0.0,0.0,0.0,0.0,0.0,0.0,0.0,0.0,0.0,0.0,0.0,0.0,0.0,0.0,0.0,0.0,0.0,0.0,0.0,0.0,0.0,0.0,-2.5747,-2.6376,-2.8233,-3.1395,-3.0671,-3.0487,-3.0973,-2.8834,-2.6286,-2.3414,0.0,0.0,0.0,0.0,0.0,0.0,0.0,0.0,0.0,0.0,0.0,0.0,0.0,0.0,0.0,0.0,0.0,0.0,0.0,0.0,0.0,0.0,0.0,0.0,0.0,0.0,0.0,0.0,0.0,0.0,0.0,0.0,0.0,0.0,0.0,0.0,0.0,0.0,0.0,-1.6954,-1.7758,0.0,0.0,0.0,0.0,0.0,0.0,0.0,0.0,-1.7462,0.0,0.0,0.0,0.0,0.0,0.0,0.0,0.0,0.0,0.0,0.0,0.0,0.0,0.0,0.0,0.0,0.0,0.0,0.0,0.0,0.0,0.0,0.0,0.0,0.0,0.0,0.0,0.0,0.0,0.0,0.0,0.0,0.0,0.0,0.0,0.0,0.0,0.0,0.0,0.0,0.0,0.0,0.0,0.0,0.0,0.0,0.0,0.0,0.0,0.0,0.0,0.0,0.0,0.0,0.0,-2.6104,-2.749,-2.9591,-3.2524,-3.1604,-3.1366,-3.2045,-2.89,-2.6098,0.0,0.0,0.0,0.0,0.0,0.0,0.0,0.0,0.0,0.0,0.0,0.0,0.0,0.0,0.0,0.0,0.0,0.0,0.0,0.0,0.0,0.0,0.0,0.0,0.0,0.0,0.0,0.0,0.0,0.0,0.0,0.0,0.0,0.0,0.0,0.0,0.0,0.0,0.0,0.0,-1.8076,-1.861,-1.9118,0.0,0.0,0.0,0.0,0.0,0.0,-1.8732,-1.8417,0.0,0.0,0.0,0.0,0.0,0.0,0.0,0.0,0.0,0.0,0.0,0.0,0.0,0.0,0.0,0.0,0.0,0.0,0.0,0.0,0.0,0.0,0.0,0.0,0.0,0.0,0.0,0.0,0.0,0.0,0.0,0.0,0.0,0.0,0.0,0.0,0.0,0.0,0.0,0.0,0.0,0.0,0.0,0.0,0.0,0.0,0.0,0.0,0.0,0.0,0.0,0.0,0.0,0.0,0.0,-2.6234,-2.8227,-3.0582,-3.3244,-3.2311,-3.2032,-3.2657,-2.901,-2.6086,0.0,0.0,0.0,0.0,0.0,0.0,0.0,0.0,0.0,0.0,0.0,0.0,0.0,0.0,0.0,0.0,0.0,0.0,0.0,0.0,0.0,0.0,0.0,0.0,0.0,0.0,0.0,0.0,0.0,0.0,0.0,0.0,0.0,0.0,0.0,0.0,0.0,0.0,0.0,0.0,0.0,-1.9782,-2.055,-2.0363,0.0,0.0,0.0,0.0,-2.0388,-2.0199,0.0,0.0,0.0,0.0,0.0,0.0,0.0,0.0,0.0,0.0,0.0,0.0,0.0,0.0,0.0,0.0,0.0,0.0,0.0,0.0,0.0,0.0,0.0,0.0,0.0,0.0,0.0,0.0,0.0,0.0,0.0,0.0,0.0,0.0,0.0,0.0,0.0,0.0,0.0,0.0,0.0,0.0,0.0,0.0,0.0,0.0,0.0,0.0,0.0,0.0,0.0,0.0,0.0,0.0,0.0,0.0,-2.6188,-2.7741,-2.9833,-3.2376,-3.2014,-3.1757,-3.182,-2.9532,-2.6949,0.0,0.0,0.0,0.0,0.0,0.0,0.0,0.0,0.0,0.0,0.0,0.0,0.0,0.0,0.0,0.0,0.0,0.0,0.0,0.0,0.0,0.0,0.0,0.0,0.0,0.0,0.0,0.0,0.0,0.0,0.0,0.0,0.0,0.0,0.0,0.0,0.0,0.0,0.0,0.0,0.0,-2.1562,-2.0655,-2.0974,-2.1443,0.0,0.0,-2.2092,-2.2644,-2.3125,0.0,0.0,0.0,0.0,0.0,0.0,0.0,0.0,0.0,0.0,0.0,0.0,0.0,0.0,0.0,0.0,0.0,0.0,0.0,0.0,0.0,0.0,0.0,0.0,0.0,0.0,0.0,0.0,0.0,0.0,0.0,0.0,0.0,0.0,0.0,0.0,0.0,0.0,0.0,0.0,0.0,0.0,0.0,0.0,0.0,0.0,0.0,0.0,0.0,0.0,0.0,0.0,0.0,0.0,0.0,-2.2961,-2.6234,-2.8418,-3.0859,-3.3413,-3.2601,-3.2501,-3.3264,-2.9589,-2.6775,0.0,0.0,0.0,0.0,0.0,0.0,0.0,0.0,0.0,0.0,0.0,0.0,0.0,0.0,0.0,0.0,0.0,0.0,0.0,0.0,0.0,0.0,0.0,0.0,0.0,0.0,0.0,0.0,0.0,0.0,0.0,0.0,0.0,0.0,0.0,0.0,0.0,0.0,0.0,0.0,0.0,0.0,-2.241,-2.3007,0.0,0.0,0.0,-2.4071,-2.506,0.0,0.0,0.0,0.0,0.0,0.0,0.0,0.0,0.0,0.0,0.0,0.0,0.0,0.0,0.0,0.0,0.0,0.0,0.0,0.0,0.0,0.0,0.0,0.0,0.0,0.0,0.0,0.0,0.0,0.0,0.0,0.0,0.0,0.0,0.0,0.0,0.0,0.0,0.0,0.0,0.0,0.0,0.0,0.0,0.0,0.0,0.0,0.0,0.0,0.0,0.0,0.0,0.0,0.0,0.0,0.0,0.0,-2.6311,-2.9171,-3.1813,-3.4104,-3.3226,-3.3152,-3.4104,-2.9957,0.0,0.0,0.0,0.0,0.0,0.0,0.0,0.0,0.0,0.0,0.0,0.0,0.0,0.0,0.0,0.0,0.0,0.0,0.0,0.0,0.0,0.0,0.0,0.0,0.0,0.0,0.0,-1.0288,0.0,0.0,0.0,0.0,0.0,0.0,0.0,0.0,0.0,0.0,0.0,0.0,0.0,0.0,-2.3277,-2.4579,-2.546,-2.6265,0.0,0.0,-2.6478,-2.7308,-2.6491,-2.502,0.0,0.0,0.0,0.0,0.0,0.0,0.0,0.0,0.0,0.0,0.0,0.0,0.0,0.0,0.0,0.0,0.0,0.0,0.0,0.0,0.0,0.0,0.0,0.0,0.0,0.0,0.0,0.0,0.0,0.0,0.0,0.0,0.0,0.0,0.0,0.0,0.0,0.0,0.0,0.0,0.0,0.0,0.0,0.0,0.0,0.0,0.0,0.0,0.0,0.0,0.0,0.0,0.0,0.0,0.0,-2.6402,-2.9643,-3.2013,-3.3429,-3.3383,-3.3383,-3.3429,-3.0958,-2.8348,0.0,0.0,0.0,0.0,0.0,0.0,0.0,0.0,0.0,0.0,0.0,0.0,0.0,0.0,0.0,0.0,0.0,0.0,0.0,0.0,0.0,0.0,0.0,0.0,0.0,0.0,0.0,0.0,0.0,0.0,0.0,0.0,0.0,0.0,0.0,0.0,0.0,0.0,0.0,0.0,0.0,-2.6465,-2.6767,-2.8203,-2.9475,0.0,0.0,-2.982,-2.9215,-2.9849,-2.896,-2.4596,0.0,0.0,0.0,0.0,0.0,0.0,0.0,0.0,0.0,0.0,0.0,0.0,0.0,0.0,0.0,0.0,0.0,0.0,0.0,0.0,0.0,0.0,0.0,0.0,0.0,0.0,0.0,0.0,0.0,0.0,0.0,0.0,0.0,0.0,0.0,0.0,0.0,0.0,0.0,0.0,0.0,0.0,0.0,0.0,0.0,0.0,0.0,0.0,0.0,0.0,0.0,0.0,0.0,-2.3595,-2.6334,-2.9673,-3.2271,-3.3967,-3.406,-3.406,-3.406,-3.1527,-2.8869,0.0,0.0,0.0,0.0,0.0,0.0,0.0,0.0,0.0,0.0,0.0,0.0,0.0,0.0,0.0,0.0,0.0,0.0,0.0,0.0,0.0,0.0,0.0,0.0,0.0,0.0,0.0,0.0,-1.5733,-1.6089,-1.6863,0.0,0.0,0.0,0.0,0.0,0.0,0.0,0.0,0.0,0.0,-2.7994,-2.8799,-3.0074,0.0,0.0,-3.1378,-3.124,-3.1658,-3.0383,-2.8673,-2.6557,-2.4995,0.0,0.0,0.0,0.0,0.0,0.0,0.0,0.0,0.0,0.0,0.0,0.0,0.0,0.0,0.0,0.0,0.0,0.0,0.0,0.0,0.0,0.0,0.0,0.0,0.0,0.0,0.0,0.0,0.0,0.0,0.0,0.0,0.0,0.0,0.0,0.0,0.0,0.0,0.0,0.0,0.0,0.0,0.0,0.0,0.0,0.0,0.0,0.0,0.0,0.0,0.0,0.0,-2.3871,-2.6626,-3.0166,-3.289,-3.4737,-3.4813,-3.4705,-3.4459,-3.2228,-2.9694,0.0,0.0,0.0,0.0,0.0,0.0,0.0,0.0,0.0,0.0,0.0,0.0,0.0,0.0,0.0,0.0,0.0,0.0,0.0,0.0,0.0,0.0,0.0,0.0,0.0,0.0,0.0,0.0,-1.7485,-1.758,-1.7593,0.0,0.0,0.0,0.0,0.0,0.0,0.0,0.0,0.0,0.0,-2.9884,-3.1116,-3.2113,-3.286,-3.3307,-3.2874,-3.2693,-3.3213,-3.1326,-2.9563,-2.8665,0.0,0.0,0.0,0.0,0.0,0.0,0.0,0.0,0.0,0.0,0.0,0.0,0.0,0.0,0.0,0.0,0.0,0.0,0.0,0.0,0.0,0.0,0.0,0.0,0.0,0.0,0.0,0.0,0.0,0.0,-1.5175,0.0,0.0,0.0,0.0,0.0,0.0,0.0,0.0,0.0,0.0,0.0,0.0,0.0,0.0,0.0,0.0,0.0,0.0,0.0,0.0,0.0,0.0,-2.4625,-2.738,-3.1289,-3.4029,-3.5429,-3.5491,-3.5198,-3.452,-3.309,-3.1089,-2.8365,0.0,0.0,0.0,0.0,0.0,0.0,0.0,0.0,0.0,0.0,0.0,0.0,0.0,0.0,0.0,0.0,0.0,0.0,0.0,0.0,0.0,0.0,0.0,0.0,0.0,0.0,-1.8502,-1.9238,-1.9074,0.0,0.0,0.0,0.0,0.0,0.0,0.0,0.0,0.0,0.0,-3.0602,-3.2473,-3.3709,-3.4427,-3.4806,-3.4868,-3.4854,-3.4505,-3.3673,-3.327,-3.2545,0.0,0.0,0.0,0.0,0.0,0.0,0.0,0.0,0.0,0.0,0.0,0.0,0.0,0.0,0.0,0.0,0.0,0.0,0.0,0.0,0.0,0.0,0.0,0.0,0.0,0.0,0.0,-2.01,-1.9286,0.0,0.0,0.0,0.0,0.0,0.0,0.0,0.0,0.0,0.0,0.0,-2.7072,-2.8157,0.0,0.0,0.0,0.0,0.0,0.0,0.0,0.0,0.0,0.0,0.0,0.0,-2.5318,-2.8088,-3.1582,-3.4075,-3.5475,-3.5953,-3.583,-3.5183,-3.3798,-3.1087,-2.6932,0.0,0.0,0.0,0.0,0.0,0.0,0.0,0.0,0.0,0.0,0.0,0.0,0.0,0.0,0.0,0.0,0.0,0.0,0.0,0.0,0.0,0.0,0.0,0.0,0.0,-1.8316,0.0,0.0,0.0,0.0,0.0,0.0,0.0,0.0,0.0,0.0,0.0,-2.8444,-3.0909,-3.266,-3.4181,-3.5493,-3.5818,-3.6097,0.0,0.0,0.0,0.0,0.0,0.0,0.0,0.0,0.0,0.0,0.0,0.0,0.0,0.0,-3.2079,-2.7399,-2.6355,-2.6214,-2.6214,0.0,0.0,0.0,0.0,0.0,0.0,0.0,0.0,0.0,0.0,0.0,0.0,0.0,0.0,-2.3845,0.0,-2.3148,0.0,0.0,0.0,0.0,0.0,0.0,0.0,0.0,-2.9258,-3.0381,-3.0197,-3.1305,-3.1243,0.0,-3.0181,-2.7996,0.0,0.0,0.0,0.0,0.0,0.0,0.0,0.0,-2.6718,-2.9443,-3.2536,-3.4691,-3.5784,-3.6276,-3.6199,-3.5506,-3.3906,-3.1194,-2.7235,-2.5575,-2.3722,0.0,0.0,0.0,0.0,0.0,0.0,0.0,0.0,0.0,0.0,0.0,0.0,0.0,0.0,0.0,0.0,0.0,0.0,0.0,0.0,0.0,0.0,0.0,-1.9167,0.0,0.0,0.0,0.0,0.0,0.0,0.0,0.0,0.0,-2.6978,-2.9018,-3.1323,-3.3603,-3.4816,-3.5851,-3.6686,0.0,0.0,0.0,0.0,0.0,0.0,0.0,-3.5704,-3.6002,-3.5075,-3.4434,-3.4746,-3.5836,-3.6561,-3.6377,0.0,0.0,-3.1397,-3.0317,-3.0172,-3.0172,-3.1281,-3.2259,-3.2259,-3.2893,-3.3703,0.0,0.0,0.0,0.0,0.0,0.0,0.0,0.0,-2.7565,-2.7519,0.0,-2.6826,0.0,0.0,0.0,0.0,0.0,0.0,0.0,0.0,-3.318,-3.415,-3.3537,-3.4212,-3.4168,-3.3598,-3.4737,-3.3675,-3.0402,-2.6526,0.0,0.0,0.0,0.0,0.0,0.0,-2.8796,-3.1413,-3.4104,-3.5829,-3.6445,-3.6492,-3.6168,-3.543,-3.3521,-3.1482,-2.9348,-2.8413,-2.644,-2.3088,-2.1539,0.0,0.0,0.0,0.0,0.0,0.0,0.0,0.0,0.0,0.0,0.0,0.0,0.0,0.0,0.0,0.0,0.0,0.0,0.0,0.0,-1.8957,0.0,0.0,0.0,0.0,0.0,0.0,0.0,0.0,0.0,0.0,-3.0868,-3.2437,-3.4337,-3.6267,0.0,0.0,0.0,0.0,-3.7494,-3.7569,-3.8078,-3.8267,-3.7496,-3.8208,-3.8676,-3.835,0.0,0.0,-3.8499,-3.8985,-3.9209,-3.8616,-3.905,-3.9065,-3.7669,-3.6724,-3.6384,-3.6413,-3.6828,-3.74,-3.752,-3.8122,-3.9113,-3.0243,0.0,0.0,0.0,0.0,-2.8596,-2.975,-3.1643,-3.1166,-3.0689,-3.0228,-3.0043,0.0,0.0,0.0,0.0,0.0,0.0,-3.0986,-3.2582,-3.3904,-3.4905,-3.5599,-3.5845,-3.5799,-3.5614,-3.5537,-3.5013,-3.3967,-3.1844,-2.8658,-2.4533,0.0,0.0,0.0,0.0,-3.0628,-3.2798,-3.4583,-3.5799,-3.6476,-3.6492,-3.5938,-3.4813,-3.4095,-3.268,-3.0548,-2.9713,-2.8132,-2.5625,-2.3766,0.0,0.0,0.0,0.0,0.0,0.0,0.0,0.0,0.0,0.0,0.0,0.0,0.0,0.0,0.0,0.0,0.0,0.0,0.0,-1.9551,-2.0146,-2.1166,0.0,0.0,0.0,0.0,0.0,0.0,0.0,0.0,0.0,-3.5983,-3.6207,-3.6671,0.0,0.0,-3.8287,-3.8745,-3.8841,-3.917,-4.0098,0.0,0.0,0.0,-4.0048,-4.0077,-4.0442,-4.0568,-4.0634,-4.0554,-4.0696,-4.0756,-4.0546,-4.0681,-4.0681,-4.0307,-3.9334,-3.8631,-3.8616,-3.9095,-3.9529,-3.9589,-4.0247,-4.0831,-3.4629,-3.2259,-3.0674,-3.0612,-3.1555,-3.1474,-3.249,-3.4198,-3.3783,-3.3537,-3.3426,-3.3149,-3.2044,-3.034,-2.9827,0.0,0.0,0.0,-3.3106,-3.5045,-3.5611,-3.6414,-3.7372,-3.7561,-3.7576,-3.7482,-3.6755,-3.6399,-3.6399,-3.5198,-3.2567,-2.8642,0.0,0.0,-2.8796,-3.0617,-3.2475,-3.4183,-3.5322,-3.6091,-3.6492,-3.6492,-3.5845,-3.4537,-3.4297,-3.3325,-3.1465,-3.0885,-2.9711,-2.7869,-2.6108,-2.3879,0.0,0.0,0.0,0.0,0.0,0.0,0.0,0.0,0.0,0.0,0.0,-1.6891,-1.5471,0.0,0.0,0.0,-1.9507,-2.0714,-2.2375,-2.3313,0.0,0.0,0.0,0.0,0.0,0.0,0.0,-3.4262,-3.6207,-3.7973,-3.9379,-3.9454,-3.9424,-3.9544,-3.9574,-3.9738,-4.0127,0.0,-4.0472,-4.1265,-4.1609,-4.1722,-4.1429,-4.1489,-4.1698,-4.2073,-4.2162,-4.2147,-4.2162,-4.2147,-4.2162,-4.2162,-4.2162,-4.2147,-4.2162,-4.1504,-4.0771,-4.0322,-4.0726,-4.116,-4.119,-4.1698,-4.2162,-3.8508,-3.82,-3.4445,-3.3244,-3.386,-3.4522,-3.5167,-3.5707,-3.5752,-3.6076,-3.6599,-3.5999,-3.5014,-3.3737,-3.2521,0.0,-3.3844,-3.4491,-3.5814,-3.7569,-3.7918,-3.834,-3.8818,-3.9124,-3.9219,-3.9075,-3.8276,-3.7902,-3.7809,-3.7063,-3.5676,-3.3814,-3.2567,-3.2136,-3.249,-3.3183,-3.4214,-3.5552,-3.623,-3.6569,-3.6569,-3.6584,-3.5922,-3.4643,-3.4389,-3.3601,-3.2224,-3.2021,-3.1247,-2.9816,-2.8528,-2.6357,-2.3197,0.0,0.0,0.0,0.0,0.0,0.0,0.0,0.0,0.0,0.0,0.0,0.0,0.0,0.0,0.0,-2.3161,0.0,-2.5785,-2.759,0.0,0.0,0.0,-3.1225,-3.2034,-3.4382,-3.6342,-3.7509,0.0,0.0,-4.1369,0.0,-4.2246,-4.1624,-4.1527,-4.1459,-4.1497,-4.1482,-4.1497,-4.1594,-4.2058,-4.2261,-4.1788,-4.2491,-4.3125,-4.317,-4.3305,-4.3215,-4.3215,-4.323,-4.326,-4.3215,-4.329,-4.3305,-4.3349,-4.3275,-4.3021,-4.1938,-4.2171,-4.256,-4.259,-4.303,-4.3454,-3.8508,-3.8431,-3.7461,-3.7153,-3.7307,-3.7477,-3.7631,-3.7784,-3.7784,-3.7877,-3.8015,-3.7861,-3.7615,-3.7292,-3.6969,-3.6999,-3.7307,-3.7477,-3.78,-3.8294,-3.8602,-3.8791,-3.8818,-3.9139,-3.9219,-3.909,-3.8902,-3.8697,-3.8538,-3.8366,-3.7945,-3.7292,-3.6953,-3.5599,-3.3306,-3.4368,-3.5414,-3.623,-3.6907,-3.7261,-3.7261,-3.7261,-3.6615,-3.5306,-3.4988,-3.4425,-3.3545,-3.3246,-3.2452,-3.1135,-3.0253,-2.8547,-2.5809,-2.4231,0.0,0.0,0.0,0.0,0.0,0.0,0.0,0.0,0.0,-2.2601,-1.9465,0.0,-2.4485,0.0,-2.5869,-2.721,-2.8502,-2.9071,0.0,0.0,-3.4038,-3.5175,-3.7266,-3.8542,-3.9349,-3.9664,-4.098,-4.1991,-4.2141,-4.2701,-4.3045,-4.2865,-4.2447,-4.2171,-4.2156,-4.2171,-4.2351,-4.2761,-4.2931,-4.306,-4.2856,-4.3065,-4.3305,-4.3305,-4.3305,-4.3305,-4.3305,-4.3305,-4.3305,-4.3305,-4.3305,-4.3484,-4.3962,-4.4037,-4.4182,-4.4272,-4.4107,-4.3838,-4.3853,-4.4362,-4.4811,-3.9416,-3.9367,-3.9382,-3.9367,-3.9354,-3.8736,-3.8508,-3.8508,-3.8508,-3.8508,-3.8508,-3.8508,-3.8508,-3.8508,-3.8508,-3.8508,-3.8508,-3.8508,-3.8677,-3.9003,-3.9464,-3.9782,-3.9916,-4.0339,-4.0499,-4.0321,-3.9878,-3.956,-3.9349,-3.8989,-3.8704,-3.8508,-3.8508,-3.7569,-3.5799,-3.6445,-3.7015,-3.74,-3.7754,-3.7954,-3.7954,-3.7954,-3.7446,-3.643,-3.6056,-3.5443,-3.4471,-3.4134,-3.3455,-3.2467,-3.1749,-3.0342,-2.8053,-2.6961,-2.5689,0.0,0.0,0.0,0.0,0.0,0.0,0.0,0.0,0.0,0.0,0.0,-2.7066,-2.7365,-2.9101,-3.0655,-3.1688,-3.2856,-3.4382,-3.6567,-3.733,-3.8392,-4.0098,-4.0876,-4.1489,-4.2073,-4.2791,-4.3384,-4.3629,-4.3973,-4.4212,-4.4197,-4.3898,-4.3449,-4.291,-4.2791,-4.2925,-4.323,-4.3305,-4.3305,-4.3305,-4.3305,-4.3394,-4.3663,-4.3778,-4.3853,-4.4137,-4.4197,-4.4212,-4.4212,-4.4212,-4.4276,-4.4568,-4.4669,-4.4844,-4.4891,-4.5066,-4.4944,-4.4661,-4.4787,-4.4998,-4.0766,-4.0766,-4.0751,-4.0766,-4.0659,-3.9524,-3.8939,-3.8754,-3.8754,-3.8769,-3.8769,-3.8769,-3.8769,-3.8769,-3.8754,-3.8769,-3.8769,-3.8754,-3.9093,-3.9665,-4.0396,-4.0906,-4.129,-4.1866,-4.2029,-4.1801,-4.0923,-4.0363,-4.023,-3.9458,-3.9,-3.8787,-3.8769,-3.8769,-3.8769,-3.8754,-3.8723,-3.8646,-3.8646,-3.8646,-3.8646,-3.8646,-3.829,-3.7629,-3.7292,-3.6565,-3.5396,-3.5052,-3.4547,-3.3903,-3.3335,-3.2123,-3.0208,-2.9535,-2.8128,0.0,-2.5486,0.0,0.0,0.0,0.0,0.0,0.0,0.0,0.0,-2.8562,-2.9729,-3.0283,-3.2572,-3.4292,-3.5087,-3.718,-3.8631,-3.8936,-3.9948,-4.092,-4.1579,-4.2246,-4.3084,-4.4182,-4.4392,-4.4676,-4.514,-4.5289,-4.5274,-4.52,-4.5155,-4.4751,-4.3853,-4.3589,-4.3604,-4.3544,-4.3544,-4.3708,-4.3663,-4.3618,-4.3798,-4.4332,-4.4436,-4.4646,-4.5125,-4.5229,-4.5244,-4.5244,-4.5185,-4.5248,-4.5173,-4.5314,-4.5287,-4.5113,-4.5543,-4.5761,-4.5255,-4.5084,-4.487,-4.2217,-4.2217,-4.2217,-4.2217,-4.2186,-4.194,-4.1201,-4.012,-4.012,-4.012,-4.0105,-4.012,-4.0105,-4.0105,-4.0105,-4.012,-4.0105,-4.0105,-4.0182,-4.0339,-4.1068,-4.1313,-4.1187,-4.1801,-4.1948,-4.1654,-4.1462,-4.1267,-4.1068,-4.0792,-4.0577,-4.0393,-4.0208,-4.0105,-4.0105,0.0,0.0,0.0,-3.9339,-3.9323,-3.929,-3.929,-3.89,-3.8093,-3.7895,0.0,-3.7198,-3.6967,-3.6567,-3.5968,-3.5804,0.0,0.0,0.0,0.0,0.0,0.0,0.0,0.0,0.0,0.0,0.0,-3.3963,-3.311,-3.0163,-3.2482,-3.4247,-3.4412,-3.5774,-3.7165,-3.8362,-3.8901,-3.9873,-4.1452,-4.1871,-4.2237,-4.2895,-4.3539,-4.4062,-4.4272,-4.4781,-4.5155,-4.5304,-4.5289,-4.5304,-4.5364,-4.5289,-4.52,-4.499,-4.4885,-4.49,-4.493,-4.4811,-4.49,-4.4915,-4.487,-4.484,-4.5095,-4.511,-4.517,-4.5319,-4.5349,-4.5319,-4.5349,-4.5289,-4.5529,-4.5938,-4.5973,-4.5979,-4.6354,-4.6285,-4.6021,-4.5592,-4.5872,-4.6211,-4.2602,0.0,-4.2602,-4.2602,0.0,-4.2602,-4.2202,-4.1555,-4.152,-4.1555,-4.1489,-4.1201,-4.1047,-4.1032,-4.0659,-4.0489,-4.0489,-4.0489,-4.0489,-4.0524,-4.1256,-4.1472,-4.1221,-4.1818,-4.198,-4.1752,-4.167,-4.1472,-4.1221,-4.1135,-4.0966,-4.0662,-4.0913,-4.1028,-4.1043,-4.1401,-4.1047,-3.9982,-3.9982,-3.9982,-3.9982,-3.9914,-3.9692,-3.9253,0.0,0.0,0.0,0.0,0.0,0.0,0.0,0.0,0.0,0.0,0.0,-3.3543,-3.3469,-3.3454,-3.3544,-3.4696,-3.5564,-3.5923,-3.7165,-3.6806,-3.4113,-3.5474,-3.6432,-3.6477,-3.7629,-3.8676,-3.9349,-3.9993,-4.092,-4.2216,-4.2396,-4.2716,-4.3643,-4.4092,-4.4571,-4.5214,-4.5603,-4.5918,-4.6232,-4.6292,-4.6292,-4.6292,-4.6292,-4.6262,-4.6217,-4.5693,-4.5289,-4.5289,-4.5289,-4.5289,-4.5289,-4.5289,-4.5454,-4.5693,-4.5813,-4.5948,-4.6247,-4.6292,-4.6292,-4.6277,-4.6292,-4.6384,-4.6509,-4.6499,-4.6473,-4.652,-4.6343,-4.6078,-4.5815,-4.602,-4.6239,-4.2956,-4.2956,-4.2956,-4.2956,-4.2956,-4.2956,-4.2956,-4.294,0.0,0.0,0.0,-4.2017,-4.1771,-4.174,-4.1155,-4.0797,-4.0689,-4.0674,-4.0612,-4.0539,-4.1348,-4.1629,-4.1478,-4.2136,-4.2346,-4.2214,-4.189,-4.1594,-4.1323,-4.1255,-4.1084,-4.0805,-4.1432,-4.1771,-4.1766,-4.2289,-4.1976,-4.08,-4.0701,-4.0624,-4.057,-4.0358,-4.0242,-4.0207,-3.9874,-3.9425,-3.8843,-3.8657,-3.8377,-3.7973,-3.7928,-3.7659,-3.706,-3.7,-3.6716,-3.6073,-3.6013,-3.6073,-3.6207,-3.7389,-3.8212,-3.8422,-3.9484,-3.9499,-3.8048,-3.7928,-3.8003,-3.8093,-3.9125,-3.9813,-3.9948,-4.0891,-4.1856,-4.25,-4.2665,-4.315,-4.4167,-4.4556,-4.5098,-4.6112,-4.6354,-4.6696,-4.7174,-4.7234,-4.7309,-4.7294,-4.7204,-4.7309,-4.7174,-4.6381,-4.5783,-4.5783,-4.5828,-4.5708,-4.5678,-4.5723,-4.5888,-4.6411,-4.6501,-4.6696,-4.713,-4.7309,-4.7309,-4.7189,-4.7309,-4.7163,-4.7004,-4.6872,-4.6741,-4.6403,-4.6299,-4.621,-4.606,-4.6015,-4.6015,-4.4295,-4.4332,-4.4295,-4.431,-4.4295,-4.4348,-4.4348,-4.4202,-4.3094,-4.2617,-4.2602,-4.2509,-4.2463,-4.2448,-4.2355,-4.2001,-4.1463,-4.1463,-4.1074,0.0,-4.1747,-4.2184,-4.2044,-4.3205,-4.3627,-4.3374,-4.2651,-4.2249,-4.2197,-4.1856,-4.1666,-4.1689,-4.2181,-4.2391,-4.223,-4.2306,-4.2135,-4.1724,-4.1372,-4.1097,-4.0918,-4.037,-3.996,-3.9788,-3.9747,-3.9595,-3.9326,-3.929,-3.9499,-3.9948,-3.9978,-3.9694,-3.905,-3.899,-3.8706,-3.8048,-3.7988,-3.8242,-3.8841,-4.0083,-4.1309,-4.2348,-4.2647,-4.1959,-4.0187,-3.9978,-4.0217,-4.0741,-4.0935,-4.1377,-4.1901,-4.2156,-4.2575,-4.3135,-4.3663,-4.4137,-4.4366,-4.5334,-4.6067,-4.6337,-4.683,-4.716,-4.7264,-4.7309,-4.7309,-4.7309,-4.7309,-4.7309,-4.7279,-4.716,-4.704,-4.7025,-4.7025,-4.7025,-4.689,-4.701,-4.6965,-4.7145,-4.713,-4.7115,-4.7264,-4.7309,-4.7309,-4.7309,-4.7309,-4.7266,-4.7207,-4.7047,-4.6873,-4.6756,-4.6624,-4.6506,-4.6462,-4.6462,-4.6373,-4.4949,-4.4625,-4.461,-4.461,-4.461,-4.461,-4.461,-4.4548,-4.3941,-4.3679,-4.3648,-4.3294,-4.3125,-4.3094,-4.2756,-4.2448,-4.214,-4.2155,-4.1971,-4.1729,-4.2435,-4.2665,-4.2572,-4.3286,-4.3497,-4.322,-4.2833,-4.2485,-4.2273,-4.2201,-4.2165,-4.2104,-4.2677,-4.305,-4.3198,-4.3229,-4.31,-4.2879,-4.2067,-4.1571,-4.1513,-4.1131,-4.087,-4.0781,-4.0708,-4.0583,-4.0487,-4.0487,-4.0636,-4.092,-4.0935,-4.0801,-4.0502,-4.0472,-4.0337,-4.0038,-4.0008,-4.0157,-4.0457,-4.1407,-4.2312,-4.32,-4.3305,-4.2946,-4.2034,-4.1669,-4.1482,-4.1452,-4.1737,-4.2177,-4.2821,-4.3195,-4.3688,-4.4332,-4.4676,-4.5005,-4.5379,-4.5846,-4.6456,-4.68,-4.7115,-4.7309,-4.7309,-4.7309,-4.7309,-4.7309,-4.7309,-4.7309,-4.7309,-4.7309,-4.7309,-4.7309,-4.7309,-4.7309,-4.7309,-4.7309,-4.7309,-4.7309,-4.7309,-4.7309,-4.7309,-4.7309,-4.7309,-4.7309,-4.7309,-4.7309,-4.7309,-4.7077,-4.6931,-4.6887,-4.6756,-4.6639,-4.6594,-4.6594,-4.6462,-4.5526,-4.5056,-4.4902,-4.4726,-4.461,-4.461,-4.461,-4.461,-4.4594,-4.461,-4.4533,-4.4055,-4.384,-4.3778,-4.3264,-4.2971,-4.2833,-4.2817,-4.274,-4.2653,-4.3051,-4.322,-4.3144,-4.3519,-4.3561,-4.3262,-4.303,-4.275,-4.2478,-4.2551,-4.2659,-4.2731,-4.3205,-4.3625,-4.3895,-4.3949,-4.3832,-4.3576,-4.2697,-4.2146,-4.2017,-4.1761,-4.1641,-4.1626,-4.1498,-4.1422,-4.1422,-4.1422,-4.1444,-4.1632,-4.1632,-4.1647,-4.1647,-4.1594,-4.1632,-4.1647,-4.1647,-4.1707,-4.1833,-4.2282,-4.2806,-4.3245,-4.3305,-4.3305,-4.326,-4.288,-4.2387,-4.1983,-4.2462,-4.303,-4.3524,-4.4097,-4.4751,-4.5229,-4.5454,-4.5723,-4.619,-4.6441,-4.6726,-4.7219,-4.7309,-4.7309,-4.7309,-4.7309,-4.7309,-4.7309,-4.7309,-4.7309,-4.7309,-4.7309,-4.7309,-4.7309,-4.7309,-4.7309,-4.7309,-4.7309,-4.7309,-4.7309,-4.7309,-4.7309,-4.7309,-4.7309,-4.7309,-4.7309,-4.7309,-4.7309,-4.7266,-4.7164,-4.7019,-4.7019,-4.6902,-4.6815,-4.6829,-4.6815,-4.6639,-4.6449,-4.6311,-4.5741,-4.5141,-4.4656,-4.4625,-4.4625,-4.461,-4.461,-4.461,-4.4594,-4.4548,-4.4486,-4.4479,-4.4387,-4.4055,-4.3531,-4.3516,-4.3202,-4.2771,-4.3453,-4.3805,-4.3815,-4.4415,-4.471,-4.4527,-4.3697,-4.3218,-4.3143,-4.3046,-4.3275,-4.3783,-4.3905,-4.3834,-4.3769,-4.3729,-4.3596,-4.3344,-4.321,-4.2905,-4.2344,-4.176,-4.1407,-4.1422,-4.1437,-4.1422,-4.1512,-4.1422,-4.1707,-4.2246,-4.2321,-4.2306,-4.2306,-4.2306,-4.2306,-4.2306,-4.2306,-4.2506,-4.3075,-4.3155,-4.3215,-4.329,-4.3305,-4.3319,-4.3334,-4.326,-4.3185,-4.3254,-4.3733,-4.4077,-4.4257,-4.4825,-4.5274,-4.5469,-4.5918,-4.6262,-4.6369,-4.686,-4.7234,-4.7294,-4.7309,-4.7309,-4.7309,-4.7309,-4.7309,-4.7309,-4.7309,-4.7309,-4.7309,-4.7309,-4.7309,-4.7309,-4.7309,-4.7309,-4.7309,-4.7309,-4.7309,-4.7309,-4.7309,-4.7309,-4.7309,-4.7309,-4.7309,-4.7309,-4.7309,-4.7309,-4.7309,-4.7266,-4.7266,-4.7207,-4.7179,-4.7222,-4.7222,-4.7179,-4.7033,-4.6957,-4.6573,-4.6296,-4.5803,-4.5218,-4.5187,-4.4979,-4.461,-4.461,-4.461,-4.461,-4.461,-4.461,-4.461,-4.461,-4.4456,-4.4209,-4.4209,-4.4071,-4.3802,-4.4026,-4.4149,-4.4158,-4.4281,-4.432,-4.4189,-4.3853,-4.3655,-4.3539,-4.3578,-4.3691,-4.3817,-4.3847,-4.3714,-4.3478,-4.3463,-4.3423,-4.3305,-4.3305,-4.317,-4.294,-4.2686,-4.2536,-4.2536,-4.2536,-4.2536,-4.2536,-4.2536,-4.2656,-4.291,-4.294,-4.2925,-4.294,-4.294,-4.294,-4.294,-4.294,-4.306,-4.3275,-4.3305,-4.3305,-4.3305,-4.3305,-4.3439,-4.3828,-4.3873,-4.4062,-4.4421,-4.4377,-4.4601,-4.5364,-4.5753,-4.6037,-4.6426,-4.6756,-4.689,-4.692,-4.713,-4.7309,-4.7309,-4.7309,-4.7309,-4.7309,-4.7309,-4.7309,-4.7309,-4.7309,-4.7309,-4.7309,-4.7309,-4.7309,-4.7309,-4.7309,-4.7309,-4.7309,-4.7309,-4.7309,-4.7309,-4.7309,-4.7309,-4.7309,-4.7309,-4.7309,-4.7309,-4.7309,-4.7309,-4.7309,-4.7309,-4.7309,-4.7309,-4.7309,-4.7309,-4.7309,-4.7309,-4.7179,-4.7604,-4.7157,-4.6942,-4.648,-4.5865,-4.5865,-4.548,-4.4933,-4.4849,-4.4795,-4.461,-4.461,-4.461,-4.461,-4.461,-4.461,-4.4572,-4.4534,-4.4549,-4.4587,-4.4358,-4.4243,-4.4281,-4.4026,-4.3832,-4.3754,-4.3817,-4.3832,-4.3714,-4.3754,-4.3738,-4.3596,-4.3596,-4.3518,-4.3344,-4.3305,-4.3305,-4.3305,-4.3305,-4.3305,-4.329,-4.3305,-4.3305,-4.3305,-4.3305,-4.3305,-4.3305,-4.3305,-4.3305,-4.3305,-4.3305,-4.3305,-4.3305,-4.3305,-4.3305,-4.3305,-4.3305,-4.3305,-4.3305,-4.3305,-4.3364,-4.3544,-4.3574,-4.3828,-4.4421,-4.4586,-4.4885,-4.5424,-4.514,-4.5349,-4.6055,-4.6486,-4.6815,-4.7249,-4.7309,-4.7309,-4.7294,-4.7309,-4.7309,-4.7309,-4.7309,-4.7309,-4.7309,-4.7309,-4.7309,-4.7309,-4.7309,-4.7309,-4.7309,-4.7309,-4.7309,-4.7309,-4.7309,-4.7309,-4.7309,-4.7309,-4.7309,-4.7309,-4.7309,-4.7309,-4.7309,-4.7309,-4.7309,-4.7309,-4.7309,-4.7309,-4.7309,-4.7309,-4.7309,-4.7309,-4.7309,-4.7266,-4.7164,-4.7222,-4.7251,-4.8543,-4.8404,-4.7819,-4.7173,-4.6557,-4.6557,-4.6157,-4.5557,-4.5557,-4.5241,-4.4748,-4.4687,-4.4603,-4.4656,-4.4687,-4.4587,-4.4572,-4.4435,-4.4435,-4.4549,-4.422,-4.4143,-4.4297,-4.391,-4.369,-4.369,-4.3769,-4.3769,-4.3675,-4.3463,-4.3329,-4.3344,-4.3329,-4.3344,-4.3305,-4.3305,-4.3305,-4.3305,-4.3305,-4.3305,-4.3305,-4.3305,-4.3305,-4.3305,-4.3305,-4.3305,-4.3305,-4.3305,-4.3305,-4.3305,-4.3305,-4.3305,-4.3305,-4.3305,-4.3305,-4.3305,-4.3305,-4.3305,-4.3334,-4.3349,-4.3589,-4.4167,-4.4272,-4.4556,-4.5155,-4.5259,-4.5559,-4.6175,-4.6202,-4.6247,-4.6396,-4.686,-4.7189,-4.7279,-4.7309,-4.7309,-4.7309,-4.7309,-4.7309,-4.7309,-4.7309,-4.7309,-4.7309,-4.7309,-4.7309,-4.7309,-4.7309,-4.7309,-4.7309,-4.7309,-4.7309,-4.7309,-4.7309,-4.7309,-4.7309,-4.7309,-4.7309,-4.7309,-4.7309,-4.7309,-4.7309,-4.7309,-4.7309,-4.7309,-4.7309,-4.7309,-4.7309,-4.7309,-4.7309,-4.7309,-4.7251,-4.7207,-4.7062,-4.7164,-4.7164,-4.8604,-4.8589,-4.8358,-4.7865,-4.7265,-4.725,-4.685,-4.6249,-4.6249,-4.6095,-4.5911,-4.5865,-4.5634,-4.5272,-4.5218,-4.5003,-4.4603,-4.4496,-4.4549,-4.4534,-4.4166,-4.4026,-4.4065,-4.3847,-4.369,-4.3729,-4.3934,-4.4026,-4.3871,-4.3675,-4.3463,-4.3344,-4.3305,-4.3305,-4.3305,-4.3305,-4.3305,-4.3305,-4.3305,-4.3305,-4.3305,-4.3305,-4.3305,-4.3305,-4.3305,-4.3305,-4.3305,-4.3305,-4.3305,-4.3305,-4.3305,-4.3305,-4.3305,-4.3305,-4.3305,-4.3305,-4.3305,-4.3469,-4.3843,-4.3958,-4.4201,-4.4855,-4.4945,-4.5229,-4.5783,-4.5978,-4.6247,-4.677,-4.695,-4.695,-4.698,-4.7174,-4.7309,-4.7309,-4.7309,-4.7309,-4.7309,-4.7309,-4.7309,-4.7309,-4.7309,-4.7309,-4.7309,-4.7309,-4.7309,-4.7309,-4.7309,-4.7309,-4.7309,-4.7309,-4.7309,-4.7309,-4.7309,-4.7309,-4.7309,-4.7309,-4.7309,-4.7309,-4.7309,-4.7309,-4.7309,-4.7309,-4.7309,-4.7309,-4.7309,-4.7266,-4.7266,-4.7222,-4.7222,-4.7207,-4.7164,-4.7019,-4.6916,-4.6946,-4.6858,-4.8604,-4.8604,-4.8604,-4.8317,-4.7942,-4.7927,-4.7558,-4.6957,-4.6911,-4.6788,-4.6634,-4.6603,-4.6326,-4.5972,-4.5911,-4.568,-4.5187,-4.478,-4.4534,-4.4534,-4.4143,-4.391,-4.3949,-4.3808,-4.369,-4.3729,-4.3988,-4.405,-4.3988,-4.3714,-4.3478,-4.329,-4.3305,-4.3305,-4.3305,-4.3305,-4.3305,-4.3305,-4.3305,-4.3305,-4.3305,-4.3305,-4.3305,-4.3305,-4.3305,-4.3305,-4.3305,-4.3305,-4.3305,-4.3305,-4.3305,-4.3305,-4.3305,-4.3305,-4.3305,-4.3319,-4.3499,-4.3838,-4.4272,-4.4511,-4.4915,-4.5559,-4.5648,-4.5918,-4.6531,-4.6636,-4.6875,-4.7204,-4.7309,-4.7309,-4.7309,-4.7309,-4.7309,-4.7309,-4.7309,-4.7309,-4.7309,-4.7309,-4.7309,-4.7309,-4.7309,-4.7309,-4.7309,-4.7309,-4.7309,-4.7309,-4.7309,-4.7309,-4.7309,-4.7309,-4.7309,-4.7309,-4.7309,-4.7309,-4.7309,-4.7309,-4.7309,-4.7309,-4.7309,-4.7309,-4.7309,-4.7309,-4.7309,-4.7309,-4.7309,-4.7266,-4.7222,-4.7135,-4.7092,-4.7077,-4.6946,-4.6771,-4.6712,-4.6639,-4.6594,-4.8604,-4.8604,-4.8604,-4.8589,-4.8527,-4.8512,-4.8204,-4.7665,-4.7604,-4.7311,-4.6911,-4.6726,-4.6757,-4.6603,-4.6603,-4.6573,-4.6195,-4.514,-4.4642,-4.4657,-4.4057,-4.3886,-4.4026,-4.3847,-4.3808,-4.3808,-4.3729,-4.3847,-4.3988,-4.3581,-4.3329,-4.3305,-4.3305,-4.3305,-4.3305,-4.3305,-4.3305,-4.3305,-4.3305,-4.3305,-4.3305,-4.3305,-4.3305,-4.3305,-4.3305,-4.3305,-4.3305,-4.3305,-4.3305,-4.3305,-4.3305,-4.3305,-4.3305,-4.3305,-4.3305,-4.3469,-4.3943,-4.4257,-4.4466,-4.5005,-4.5603,-4.6187,-4.6279,-4.6576,-4.7055,-4.7204,-4.7234,-4.7279,-4.7309,-4.7309,-4.7309,-4.7309,-4.7309,-4.7309,-4.7309,-4.7309,-4.7309,-4.7309,-4.7309,-4.7309,-4.7309,-4.7309,-4.7309,-4.7309,-4.7309,-4.7309,-4.7309,-4.7309,-4.7309,-4.7309,-4.7309,-4.7309,-4.7309,-4.7309,-4.7309,-4.7309,-4.7309,-4.7309,-4.7309,-4.7309,-4.7309,-4.7309,-4.7309,-4.7309,-4.7309,-4.7266,-4.699,-4.6902,-4.6815,-4.6771,-4.6639,-4.655,-4.6462,-4.6417,-4.6373,-4.8604,-4.8604,-4.8604,-4.8604,-4.8604,-4.8604,-4.8466,-4.8312,-4.8296,-4.8158,-4.8019,-4.7989,-4.7742,-4.7357,-4.7296,-4.7034,-4.6573,-4.6047,-4.5687,-4.5202,-4.4371,-4.4042,-4.4196,-4.4143,-4.4166,-4.4243,-4.4011,-4.3949,-4.3895,-4.3527,-4.3305,-4.3305,-4.3305,-4.3305,-4.3305,-4.3305,-4.3305,-4.3305,-4.3305,-4.3305,-4.3305,-4.3305,-4.3305,-4.3305,-4.3305,-4.3305,-4.3305,-4.3305,-4.3305,-4.3305,-4.3305,-4.3305,-4.3305,-4.3305,-4.3499,-4.3917,-4.4182,-4.4796,-4.5547,-4.5873,-4.6292,-4.683,-4.6995,-4.7085,-4.7264,-4.7309,-4.7309,-4.7309,-4.7309,-4.7309,-4.7309,-4.7309,-4.7309,-4.7309,-4.7309,-4.7309,-4.7309,-4.7309,-4.7309,-4.7309,-4.7309,-4.7309,-4.7309,-4.7309,-4.7309,-4.7309,-4.7309,-4.7309,-4.7309,-4.7309,-4.7309,-4.7309,-4.7309,-4.7309,-4.7309,-4.7309,-4.7309,-4.7309,-4.7309,-4.7309,-4.7309,-4.7309,-4.7309,-4.7266,-4.7266,-4.7121,-4.6844,-4.6668,-4.6639,-4.655,-4.6491,-4.6358,-4.6225,-4.618,-4.6135,-4.8604,-4.8604,-4.8604,-4.8604,-4.8604,-4.8604,-4.8604,-4.8604,-4.8604,-4.8604,-4.8589,-4.8589,-4.8389,-4.8035,-4.7973,-4.7742,-4.7342,-4.7015,-4.6662,-4.6179,-4.503,-4.4601,-4.4602,-4.4412,-4.4358,-4.4435,-4.4166,-4.3949,-4.3856,-4.3488,-4.3305,-4.3305,-4.3305,-4.3305,-4.3305,-4.3305,-4.3305,-4.3305,-4.3305,-4.3305,-4.3305,-4.3305,-4.3305,-4.3305,-4.3305,-4.3305,-4.3305,-4.3305,-4.3305,-4.3305,-4.3305,-4.3305,-4.3319,-4.3514,-4.3843,-4.4287,-4.484,-4.5469,-4.619,-4.6516,-4.6845,-4.7234,-4.7309,-4.7309,-4.7309,-4.7309,-4.7309,-4.7309,-4.7309,-4.7309,-4.7309,-4.7309,-4.7309,-4.7309,-4.7309,-4.7309,-4.7309,-4.7309,-4.7309,-4.7309,-4.7309,-4.7309,-4.7309,-4.7309,-4.7309,-4.7309,-4.7309,-4.7309,-4.7309,-4.7309,-4.7309,-4.7309,-4.7309,-4.7309,-4.7309,-4.7309,-4.7309,-4.7309,-4.7309,-4.7309,-4.7309,-4.7309,-4.7309,-4.7179,-4.7179,-4.7033,-4.6756,-4.6565,-4.6491,-4.6403,-4.6358,-4.6225,-4.6135,-4.6015,-4.597,-4.8604,-4.8604,-4.8604,-4.8604,-4.8563,-4.8578,-4.8563,-4.8563,-4.8563,-4.8563,-4.8563,-4.8604,-4.8589,-4.8573,-4.8496,-4.8409,-4.8398,-4.7737,-4.7405,-4.7104,-4.614,-4.5388,-4.5216,-4.4741,-4.4481,-4.4297,-4.4089,-4.391,-4.3714,-4.3463,-4.3305,-4.3305,-4.3305,-4.3305,-4.3305,-4.3305,-4.3305,-4.3305,-4.3305,-4.3305,-4.3305,-4.3305,-4.3305,-4.3305,-4.3305,-4.3305,-4.3305,-4.3305,-4.3305,-4.3305,-4.3305,-4.3334,-4.3469,-4.3947,-4.4272,-4.4571,-4.5636,-4.6115,-4.6501,-4.6905,-4.7234,-4.7294,-4.7309,-4.7309,-4.7309,-4.7309,-4.7309,-4.7309,-4.7309,-4.7309,-4.7309,-4.7309,-4.7309,-4.7309,-4.7309,-4.7309,-4.7309,-4.7309,-4.7309,-4.7309,-4.7309,-4.7309,-4.7309,-4.7309,-4.7309,-4.7309,-4.7309,-4.7309,-4.7309,-4.7309,-4.7309,-4.7309,-4.7309,-4.7309,-4.7309,-4.7309,-4.7309,-4.7309,-4.7309,-4.7309,-4.7309,-4.7309,-4.7207,-4.7121,-4.7077,-4.6902,-4.6756,-4.658,-4.6447,-4.6403,-4.6314,-4.6135,-4.6046,-4.6001,-4.597,-4.8604,-4.8604,-4.8604,-4.8604,-4.8578,-4.8453,-4.8453,-4.8578,-4.8453,-4.8453,-4.8563,-4.8604,-4.8604,-4.8604,-4.8563,-4.8537,-4.835,-4.8129,-4.7943,-4.7737,-4.7011,-4.6152,-4.564,-4.5341,-4.491,-4.4388,-4.4126,-4.391,-4.3675,-4.3423,-4.3305,-4.3305,-4.3305,-4.3305,-4.3305,-4.3305,-4.3305,-4.3305,-4.3305,-4.3305,-4.3305,-4.3305,-4.3305,-4.3305,-4.3305,-4.3305,-4.3305,-4.3305,-4.3305,-4.3305,-4.3305,-4.3544,-4.3973,-4.4201,-4.4751,-4.5577,-4.6025,-4.6576,-4.6965,-4.7189,-4.7309,-4.7309,-4.7309,-4.7309,-4.7309,-4.7309,-4.7309,-4.7309,-4.7309,-4.7309,-4.7309,-4.7309,-4.7309,-4.7309,-4.7309,-4.7309,-4.7309,-4.7309,-4.7309,-4.7309,-4.7309,-4.7309,-4.7309,-4.7309,-4.7309,-4.7309,-4.7309,-4.7309,-4.7309,-4.7309,-4.7309,-4.7309,-4.7309,-4.7309,-4.7309,-4.7309,-4.7309,-4.7309,-4.7309,-4.7309,-4.7309,-4.7309,-4.7164,-4.7019,-4.7121,-4.699,-4.6858,-4.6668,-4.658,-4.6491,-4.6447,-4.6403,-4.6225,-4.6135,-4.6046,-4.8604,-4.8604,-4.8604,-4.8578,-4.8453,-4.8328,-4.8328,-4.8328,-4.8328,-4.837,-4.8495,-4.8578,-4.8604,-4.8563,-4.8495,-4.8412,-4.8286,-4.8218,-4.8076,-4.7946,-4.7597,-4.6767,-4.5993,-4.5806,-4.5375,-4.4482,-4.4304,-4.3956,-4.3587,-4.3369,-4.3305,-4.3305,-4.3305,-4.3305,-4.3305,-4.3305,-4.3305,-4.3305,-4.3305,-4.3305,-4.3305,-4.3305,-4.3305,-4.3305,-4.3305,-4.3305,-4.3305,-4.3305,-4.3305,-4.3305,-4.3319,-4.3604,-4.4272,-4.4601,-4.5214,-4.6219,-4.6561,-4.6935,-4.7204,-4.7309,-4.7309,-4.7309,-4.7309,-4.7309,-4.7309,-4.7309,-4.7309,-4.7309,-4.7309,-4.7309,-4.7309,-4.7309,-4.7309,-4.7309,-4.7309,-4.7309,-4.7309,-4.7309,-4.7309,-4.7309,-4.7309,-4.7309,-4.7309,-4.7309,-4.7309,-4.7309,-4.7309,-4.7309,-4.7309,-4.7309,-4.7309,-4.7309,-4.7309,-4.7309,-4.7309,-4.7309,-4.7309,-4.7309,-4.7309,-4.7309,-4.7309,-4.7309,-4.7207,-4.7106,-4.7164,-4.7121,-4.699,-4.6858,-4.6756,-4.6712,-4.6712,-4.6624,-4.6447,-4.6343,-4.6269,-4.8604,-4.8604,-4.8604,-4.8495,-4.8328,-4.8286,-4.816,-4.8049,-4.8202,-4.8286,-4.8328,-4.8537,-4.8563,-4.8537,-4.8427,-4.8301,-4.816,-4.8007,-4.7922,-4.788,-4.7743,-4.7209,-4.6304,-4.629,-4.5783,-4.4901,-4.473,-4.4339,-4.3903,-4.3614,-4.3439,-4.3454,-4.3394,-4.3364,-4.3439,-4.3379,-4.3334,-4.3424,-4.3349,-4.3305,-4.3305,-4.3305,-4.3305,-4.3305,-4.3305,-4.3305,-4.3305,-4.3305,-4.3305,-4.3305,-4.3305,-4.3633,-4.4272,-4.49,-4.5544,-4.6202,-4.6741,-4.7085,-4.7294,-4.7309,-4.7309,-4.7309,-4.7309,-4.7309,-4.7309,-4.7309,-4.7309,-4.7309,-4.7309,-4.7309,-4.7309,-4.7309,-4.7309,-4.7309,-4.7309,-4.7309,-4.7309,-4.7309,-4.7309,-4.7309,-4.7309,-4.7309,-4.7309,-4.7309,-4.7309,-4.7309,-4.7309,-4.7309,-4.7309,-4.7309,-4.7309,-4.7309,-4.7309,-4.7309,-4.7309,-4.7309,-4.7309,-4.7309,-4.7309,-4.7309,-4.7309,-4.7309,-4.7309,-4.7266,-4.7207,-4.7207,-4.7222,-4.7121,-4.6975,-4.6975,-4.699,-4.6858,-4.6683,-4.6624,-4.6535,-4.8604,-4.8604,-4.8604,-4.8495,-4.8301,-4.8118,-4.8049,-4.8007,-4.8049,-4.8175,-4.8343,-4.8495,-4.8495,-4.837,-4.8301,-4.8133,-4.7794,-4.7724,-4.7581,-4.7467,-4.7624,-4.7475,-4.6966,-4.6898,-4.6278,-4.56,-4.5408,-4.518,-4.4792,-4.4302,-4.4107,-4.4022,-4.3693,-4.3559,-4.3962,-4.3663,-4.3574,-4.3873,-4.3604,-4.3409,-4.3409,-4.3379,-4.3364,-4.3349,-4.3349,-4.3334,-4.3305,-4.3305,-4.3305,-4.3305,-4.3394,-4.3793,-4.4302,-4.4571,-4.5259,-4.6142,-4.6501,-4.6815,-4.7189,-4.7309,-4.7309,-4.7309,-4.7309,-4.7309,-4.7309,-4.7309,-4.7309,-4.7309,-4.7309,-4.7309,-4.7309,-4.7309,-4.7309,-4.7309,-4.7309,-4.7309,-4.7309,-4.7309,-4.7309,-4.7309,-4.7309,-4.7309,-4.7309,-4.7309,-4.7309,-4.7309,-4.7309,-4.7309,-4.7309,-4.7309,-4.7309,-4.7309,-4.7309,-4.7309,-4.7309,-4.7309,-4.7309,-4.7309,-4.7309,-4.7309,-4.7309,-4.7309,-4.7309,-4.7309,-4.7251,-4.7294,-4.7309,-4.7309,-4.7164,-4.7164,-4.7164,-4.7033,-4.6931,-4.6887,-4.6844,-4.8604,-4.8604,-4.8604,-4.8412,-4.8175,-4.8049,-4.7922,-4.7837,-4.7964,-4.8091,-4.8301,-4.8495,-4.8495,-4.8286,-4.8202,-4.7964,-4.7639,-4.751,-4.7424,-4.7352,-4.7439,-4.7381,-4.7307,-4.7164,-4.6695,-4.6025,-4.5935,-4.5717,-4.5301,-4.499,-4.4781,-4.4781,-4.4377,-4.4466,-4.4706,-4.4392,-4.4466,-4.4661,-4.4466,-4.4257,-4.4227,-4.3928,-4.3753,-4.3753,-4.3783,-4.3898,-4.4257,-4.4246,-4.4272,-4.4257,-4.4242,-4.4377,-4.4766,-4.5095,-4.5768,-4.6546,-4.68,-4.692,-4.7234,-4.7309,-4.7309,-4.7309,-4.7309,-4.7309,-4.7309,-4.7309,-4.7309,-4.7309,-4.7309,-4.7309,-4.7309,-4.7309,-4.7309,-4.7309,-4.7309,-4.7309,-4.7309,-4.7309,-4.7309,-4.7309,-4.7309,-4.7309,-4.7309,-4.7309,-4.7309,-4.7309,-4.7309,-4.7309,-4.7309,-4.7309,-4.7309,-4.7309,-4.7309,-4.7309,-4.7309,-4.7309,-4.7309,-4.7309,-4.7309,-4.7309,-4.7309,-4.7309,-4.7309,-4.7309,-4.7294,-4.7309,-4.7309,-4.7309,-4.7309,-4.7266,-4.7207,-4.7207,-4.7149,-4.7121,-4.7077,-4.8578,-4.8578,-4.8537,-4.8343,-4.8049,-4.8007,-4.788,-4.7709,-4.7907,-4.8175,-4.8328,-4.8537,-4.8453,-4.8244,-4.8091,-4.7852,-4.7553,-4.7424,-4.7309,-4.7309,-4.7309,-4.7309,-4.7279,-4.7218,-4.7023,-4.6474,-4.6471,-4.6157,-4.5813,-4.5484,-4.5454,-4.5424,-4.5274,-4.5259,-4.5379,-4.5319,-4.5274,-4.5394,-4.5214,-4.5095,-4.5095,-4.4691,-4.4481,-4.4466,-4.4481,-4.4661,-4.499,-4.511,-4.52,-4.5304,-4.5394,-4.5439,-4.5574,-4.5828,-4.6429,-4.704,-4.6995,-4.7085,-4.7249,-4.7309,-4.7309,-4.7309,-4.7309,-4.7309,-4.7309,-4.7309,-4.7309,-4.7309,-4.7309,-4.7309,-4.7309,-4.7309,-4.7309,-4.7309,-4.7309,-4.7309,-4.7309,-4.7309,-4.7309,-4.7309,-4.7309,-4.7309,-4.7309,-4.7309,-4.7309,-4.7309,-4.7309,-4.7309,-4.7309,-4.7309,-4.7309,-4.7309,-4.7309,-4.7309,-4.7309,-4.7309,-4.7309,-4.7309,-4.7309,-4.7309,-4.7309,-4.7309,-4.7309,-4.7309,-4.7309,-4.7309,-4.7309,-4.7309,-4.7309,-4.7309,-4.7309,-4.7251,-4.7251,-4.7309,-4.7266,-4.8495,-4.8328,-4.8328,-4.8202,-4.8007,-4.8007,-4.798,-4.7949,-4.816,-4.8244,-4.8328,-4.8495,-4.8412,-4.8133,-4.8049,-4.7752,-4.7467,-4.7337,-4.7309,-4.7309,-4.7309,-4.7309,-4.7309,-4.7309,-4.7219,-4.7204,-4.71,-4.6935,-4.6741,-4.6471,-4.6172,-4.6037,-4.5663,-4.5648,-4.5888,-4.5693,-4.5738,-4.6022,-4.5753,-4.5514,-4.5454,-4.5289,-4.514,-4.514,-4.514,-4.5259,-4.5334,-4.5349,-4.5289,-4.5334,-4.5858,-4.6055,-4.6082,-4.5843,-4.6037,-4.6486,-4.6681,-4.6905,-4.7219,-4.7309,-4.7309,-4.7309,-4.7309,-4.7309,-4.7309,-4.7309,-4.7309,-4.7309,-4.7309,-4.7309,-4.7309,-4.7309,-4.7309,-4.7309,-4.7309,-4.7309,-4.7309,-4.7309,-4.7309,-4.7309,-4.7309,-4.7309,-4.7309,-4.7309,-4.7309,-4.7309,-4.7309,-4.7309,-4.7309,-4.7309,-4.7309,-4.7309,-4.7309,-4.7309,-4.7309,-4.7309,-4.7309,-4.7309,-4.7309,-4.7309,-4.7309,-4.7309,-4.7309,-4.7309,-4.7309,-4.7309,-4.7309,-4.7309,-4.7309,-4.7309,-4.7309,-4.7309,-4.7309,-4.7309,-4.7309,-4.8537,-4.8469,-4.8453,-4.8343,-4.8175,-4.8175,-4.8175,-4.8175,-4.8244,-4.837,-4.8453,-4.8537,-4.8453,-4.8218,-4.8175,-4.788,-4.7553,-4.7352,-4.7309,-4.7309,-4.7309,-4.7309,-4.7309,-4.7309,-4.7309,-4.7309,-4.7309,-4.7309,-4.7279,-4.701,-4.68,-4.677,-4.6456,-4.6531,-4.6711,-4.6561,-4.6486,-4.6681,-4.6486,-4.6292,-4.6247,-4.6037,-4.5843,-4.5828,-4.5873,-4.6007,-4.6307,-4.6337,-4.6337,-4.6411,-4.6666,-4.68,-4.6711,-4.6576,-4.6456,-4.6741,-4.6815,-4.692,-4.7234,-4.7309,-4.7309,-4.7309,-4.7309,-4.7309,-4.7309,-4.7309,-4.7309,-4.7309,-4.7309,-4.7309,-4.7309,-4.7309,-4.7309,-4.7309,-4.7309,-4.7309,-4.7309,-4.7309,-4.7309,-4.7309,-4.7309,-4.7309,-4.7309,-4.7309,-4.7309,-4.7309,-4.7309,-4.7309,-4.7309,-4.7309,-4.7309,-4.7309,-4.7309,-4.7309,-4.7309,-4.7309,-4.7309,-4.7309,-4.7309,-4.7309,-4.7309,-4.7309,-4.7309,-4.7309,-4.7309,-4.7309,-4.7309,-4.7309,-4.7309,-4.7309,-4.7309,-4.7309,-4.7309,-4.7309,-4.7309,-4.8578,-4.8537,-4.8537,-4.8453,-4.8343,-4.8286,-4.8328,-4.837,-4.837,-4.8453,-4.8563,-4.8563,-4.8495,-4.8328,-4.8202,-4.7992,-4.7666,-4.7482,-4.7381,-4.7396,-4.7309,-4.7309,-4.7309,-4.7309,-4.7309,-4.7309,-4.7309,-4.7309,-4.7309,-4.7249,-4.7294,-4.7204,-4.7279,-4.7309,-4.7219,-4.7115,-4.7309,-4.7309,-4.7309,-4.7309,-4.716,-4.683,-4.6531,-4.6474,-4.6474,-4.677,-4.7085,-4.713,-4.7145,-4.716,-4.7234,-4.7279,-4.7294,-4.7309,-4.7309,-4.7309,-4.7309,-4.7309,-4.7309,-4.7309,-4.7309,-4.7309,-4.7309,-4.7309,-4.7309,-4.7309,-4.7309,-4.7309,-4.7309,-4.7309,-4.7309,-4.7309,-4.7309,-4.7309,-4.7309,-4.7309,-4.7309,-4.7309,-4.7309,-4.7309,-4.7309,-4.7309,-4.7309,-4.7309,-4.7309,-4.7309,-4.7309,-4.7309,-4.7309,-4.7309,-4.7309,-4.7309,-4.7309,-4.7309,-4.7309,-4.7309,-4.7309,-4.7309,-4.7309,-4.7309,-4.7309,-4.7309,-4.7309,-4.7309,-4.7309,-4.7309,-4.7309,-4.7309,-4.7309,-4.7309,-4.7309,-4.7309,-4.7309,-4.7309,-4.7309,-4.8495,-4.8328,-4.8328,-4.8328,-4.8328,-4.8328,-4.8412,-4.8521,-4.8521,-4.8563,-4.8604,-4.8563,-4.8495,-4.8328,-4.8118,-4.7992,-4.788,-4.7724,-4.7538,-4.751,-4.7381,-4.7309,-4.7309,-4.7309,-4.7309,-4.7309,-4.7309,-4.7309,-4.7309,-4.7309,-4.7309,-4.7309,-4.7309,-4.7309,-4.7309,-4.7309,-4.7309,-4.7309,-4.7309,-4.7309,-4.7294,-4.7174,-4.713,-4.713,-4.7145,-4.716,-4.7294,-4.7309,-4.7309,-4.7309,-4.7309,-4.7309,-4.7309,-4.7309,-4.7309,-4.7309,-4.7309,-4.7309,-4.7309,-4.7309,-4.7309,-4.7309,-4.7309,-4.7309,-4.7309,-4.7309,-4.7309,-4.7309,-4.7309,-4.7309,-4.7309,-4.7309,-4.7309,-4.7309,-4.7309,-4.7309,-4.7309,-4.7309,-4.7309,-4.7309,-4.7309,-4.7309,-4.7309,-4.7309,-4.7309,-4.7309,-4.7309,-4.7309,-4.7309,-4.7309,-4.7309,-4.7309,-4.7309,-4.7309,-4.7309,-4.7309,-4.7309,-4.7309,-4.7309,-4.7309,-4.7309,-4.7309,-4.7309,-4.7309,-4.7309,-4.7309,-4.7309,-4.7309,-4.7309,-4.7309,-4.7309,-4.7309,-4.7309,-4.7309,-4.7309,-4.8521,-4.8495,-4.8453,-4.8453,-4.8495,-4.8495,-4.8537,-4.8563,-4.8604,-4.8604,-4.8604,-4.8604,-4.8537,-4.8412,-4.8244,-4.8175,-4.8133,-4.7922,-4.7709,-4.7624,-4.751,-4.7396,-4.7309,-4.7309,-4.7309,-4.7309,-4.7309,-4.7309,-4.7309,-4.7309,-4.7309,-4.7309,-4.7309,-4.7309,-4.7309,-4.7309,-4.7309,-4.7309,-4.7309,-4.7309,-4.7309,-4.7309,-4.7309,-4.7309,-4.7309,-4.7309,-4.7309,-4.7309,-4.7309,-4.7309,-4.7309,-4.7309,-4.7309,-4.7309,-4.7309,-4.7309,-4.7309,-4.7309,-4.7309,-4.7309,-4.7309,-4.7309,-4.7309,-4.7309,-4.7309,-4.7309,-4.7309,-4.7309,-4.7309,-4.7309,-4.7309,-4.7309,-4.7309,-4.7309,-4.7309,-4.7309,-4.7309,-4.7309,-4.7309,-4.7309,-4.7309,-4.7309,-4.7309,-4.7309,-4.7309,-4.7309,-4.7309,-4.7309,-4.7309,-4.7309,-4.7309,-4.7309,-4.7309,-4.7309,-4.7309,-4.7309,-4.7309,-4.7309,-4.7309,-4.7309,-4.7309,-4.7309,-4.7309,-4.7309,-4.7309,-4.7309,-4.7309,-4.7309,-4.7309,-4.7309,-4.7309,-4.7309,-4.7309,-4.7309,-4.7309,-4.8604,-4.8604,-4.8604,-4.8604,-4.8604,-4.8604,-4.8604,-4.8604,-4.8604,-4.8604,-4.8604,-4.8604,-4.8604,-4.8563,-4.8453,-4.837,-4.837,-4.8175,-4.7922,-4.7752,-4.7581,-4.7467,-4.7352,-4.7309,-4.7309,-4.7309,-4.7309,-4.7309,-4.7309,-4.7309,-4.7309,-4.7309,-4.7309,-4.7309,-4.7309,-4.7309,-4.7309,-4.7309,-4.7309,-4.7309,-4.7309,-4.7309,-4.7309,-4.7309,-4.7309,-4.7309,-4.7309,-4.7309,-4.7309,-4.7309,-4.7309,-4.7309,-4.7309,-4.7309,-4.7309,-4.7309,-4.7309,-4.7309,-4.7309,-4.7309,-4.7309,-4.7309,-4.7309,-4.7309,-4.7309,-4.7309,-4.7309,-4.7309,-4.7309,-4.7309,-4.7309,-4.7309,-4.7309,-4.7309,-4.7309,-4.7309,-4.7309,-4.7309,-4.7309,-4.7309,-4.7309,-4.7309,-4.7309,-4.7309,-4.7309,-4.7309,-4.7309,-4.7309,-4.7309,-4.7309,-4.7309,-4.7309,-4.7309,-4.7309,-4.7309,-4.7309,-4.7309,-4.7309,-4.7309,-4.7309,-4.7309,-4.7309,-4.7309,-4.7309,-4.7309,-4.7309,-4.7309,-4.7309,-4.7309,-4.7309,-4.7309,-4.7309,-4.7309,-4.7309,-4.7309,-4.8604,-4.8604,-4.8604,-4.8604,-4.8604,-4.8604,-4.8604,-4.8604,-4.8604,-4.8604,-4.8604,-4.8604,-4.8604,-4.8563,-4.8563,-4.8521,-4.8563,-4.837,-4.8175,-4.7922,-4.7709,-4.7553,-4.7381,-4.7309,-4.7309,-4.7309,-4.7309,-4.7309,-4.7309,-4.7309,-4.7309,-4.7309,-4.7309,-4.7309,-4.7309,-4.7309,-4.7309,-4.7309,-4.7309,-4.7309,-4.7309,-4.7309,-4.7309,-4.7309,-4.7309,-4.7309,-4.7309,-4.7309,-4.7309,-4.7309,-4.7309,-4.7309,-4.7309,-4.7309,-4.7309,-4.7309,-4.7309,-4.7309,-4.7309,-4.7309,-4.7309,-4.7309,-4.7309,-4.7309,-4.7309,-4.7309,-4.7309,-4.7309,-4.7309,-4.7309,-4.7309,-4.7309,-4.7309,-4.7309,-4.7309,-4.7309,-4.7309,-4.7309,-4.7309,-4.7309,-4.7309,-4.7309,-4.7309,-4.7309,-4.7309,-4.7309,-4.7309,-4.7309,-4.7309,-4.7309,-4.7309,-4.7309,-4.7309,-4.7309,-4.7309,-4.7309,-4.7309,-4.7309,-4.7309,-4.7309,-4.7309,-4.7309,-4.7309,-4.7309,-4.7309,-4.7309,-4.7309,-4.7309,-4.7309,-4.7309,-4.7309,-4.7309,-4.7309,-4.7309,-4.7309,-4.8604,-4.8604,-4.8604,-4.8604,-4.8604,-4.8604,-4.8604,-4.8604,-4.8604,-4.8604,-4.8604,-4.8604,-4.8604,-4.8604,-4.8604,-4.8604,-4.8563,-4.8521,-4.8328,-4.8175,-4.7964,-4.7709,-4.7553,-4.7352,-4.7309,-4.7309,-4.7309,-4.7309,-4.7309,-4.7309,-4.7309,-4.7309,-4.7309,-4.7309,-4.7309,-4.7309,-4.7309,-4.7309,-4.7309,-4.7309,-4.7309,-4.7309,-4.7309,-4.7309,-4.7309,-4.7309,-4.7309,-4.7309,-4.7309,-4.7309,-4.7309,-4.7309,-4.7309,-4.7309,-4.7309,-4.7309,-4.7309,-4.7309,-4.7309,-4.7309,-4.7309,-4.7309,-4.7309,-4.7309,-4.7309,-4.7309,-4.7309,-4.7309,-4.7309,-4.7309,-4.7309,-4.7309,-4.7309,-4.7309,-4.7309,-4.7309,-4.7309,-4.7309,-4.7309,-4.7309,-4.7309,-4.7309,-4.7309,-4.7309,-4.7309,-4.7309,-4.7309,-4.7309,-4.7309,-4.7309,-4.7309,-4.7309,-4.7309,-4.7309,-4.7309,-4.7309,-4.7309,-4.7309,-4.7309,-4.7309,-4.7309,-4.7309,-4.7309,-4.7309,-4.7309,-4.7309,-4.7309,-4.7309,-4.7309,-4.7309,-4.7309,-4.7309,-4.7309,-4.7309,-4.7309,-4.8604,-4.8604,-4.8604,-4.8604,-4.8604,-4.8604,-4.8604,-4.8604,-4.8604,-4.8604,-4.8604,-4.8604,-4.8604,-4.8604,-4.8604,-4.8604,-4.8604,-4.8563,-4.8412,-4.8244,-4.7992,-4.7794,-4.7553,-4.7381,-4.7309,-4.7309,-4.7309,-4.7309,-4.7309,-4.7309,-4.7309,-4.7309,-4.7309,-4.7309,-4.7309,-4.7309,-4.7309,-4.7309,-4.7309,-4.7309,-4.7309,-4.7309,-4.7309,-4.7309,-4.7309,-4.7309,-4.7309,-4.7309,-4.7309,-4.7309,-4.7309,-4.7309,-4.7309,-4.7309,-4.7309,-4.7309,-4.7309,-4.7309,-4.7309,-4.7309,-4.7309,-4.7309,-4.7309,-4.7309,-4.7309,-4.7309,-4.7309,-4.7309,-4.7309,-4.7309,-4.7309,-4.7309,-4.7309,-4.7309,-4.7309,-4.7309,-4.7309,-4.7309,-4.7309,-4.7309,-4.7309,-4.7309,-4.7309,-4.7309,-4.7309,-4.7309,-4.7309,-4.7309,-4.7309,-4.7309,-4.7309,-4.7309,-4.7309,-4.7309,-4.7309,-4.7309,-4.7309,-4.7309,-4.7309,-4.7309,-4.7309,-4.7309,-4.7309,-4.7309,-4.7309,-4.7309,-4.7309,-4.7309,-4.7309,-4.7309,-4.7309,-4.7309,-4.7309,-4.7309,-4.7309,-4.8604,-4.8604,-4.8604,-4.8604,-4.8604,-4.8604,-4.8604,-4.8604,-4.8604,-4.8604,-4.8604,-4.8604,-4.8604,-4.8563,-4.8563,-4.8521,-4.8537,-4.8537,-4.837,-4.8076,-4.7964,-4.7709,-4.7467,-4.7337,-4.7309,-4.7309,-4.7309,-4.7309,-4.7309,-4.7309,-4.7309,-4.7309,-4.7309,-4.7309,-4.7309,-4.7309,-4.7309,-4.7309,-4.7309,-4.7309,-4.7309,-4.7309,-4.7309,-4.7309,-4.7309,-4.7309,-4.7309,-4.7309,-4.7309,-4.7309,-4.7309,-4.7309,-4.7309,-4.7309,-4.7309,-4.7309,-4.7309,-4.7309,-4.7309,-4.7309,-4.7309,-4.7309,-4.7309,-4.7309,-4.7309,-4.7309,-4.7309,-4.7309,-4.7309,-4.7309,-4.7309,-4.7309,-4.7309,-4.7309,-4.7309,-4.7309,-4.7309,-4.7309,-4.7309,-4.7309,-4.7309,-4.7309,-4.7309,-4.7309,-4.7309,-4.7309,-4.7309,-4.7309,-4.7309,-4.7309,-4.7309,-4.7309,-4.7309,-4.7309,-4.7309,-4.7309,-4.7309,-4.7309,-4.7309,-4.7309,-4.7309,-4.7309,-4.7309,-4.7309,-4.7309,-4.7309,-4.7309,-4.7309,-4.7309,-4.7309,-4.7309,-4.7309,-4.7309,-4.7309,-4.7309,-4.8604,-4.8604,-4.8604,-4.8604,-4.8604,-4.8604,-4.8604,-4.8604,-4.8604,-4.8604,-4.8604,-4.8604,-4.8604,-4.8563,-4.8453,-4.8412,-4.837,-4.8202,-4.8049,-4.8007,-4.7852,-4.7666,-4.7495,-4.7352,-4.7309,-4.7309,-4.7309,-4.7309,-4.7309,-4.7309,-4.7309,-4.7309,-4.7309,-4.7309,-4.7309,-4.7309,-4.7309,-4.7309,-4.7309,-4.7309,-4.7309,-4.7309,-4.7309,-4.7309,-4.7309,-4.7309,-4.7309,-4.7309,-4.7309,-4.7309,-4.7309,-4.7309,-4.7309,-4.7309,-4.7309,-4.7309,-4.7309,-4.7309,-4.7309,-4.7309,-4.7309,-4.7309,-4.7309,-4.7309,-4.7309,-4.7309,-4.7309,-4.7309,-4.7309,-4.7309,-4.7309,-4.7309,-4.7309,-4.7309,-4.7309,-4.7309,-4.7309,-4.7309,-4.7309,-4.7309,-4.7309,-4.7309,-4.7309,-4.7309,-4.7309,-4.7309,-4.7309,-4.7309,-4.7309,-4.7309,-4.7309,-4.7309,-4.7309,-4.7309,-4.7309,-4.7309,-4.7309,-4.7309,-4.7309,-4.7309,-4.7309,-4.7309,-4.7309,-4.7309,-4.7309,-4.7309,-4.7309,-4.7309,-4.7309,-4.7309,-4.7309,-4.7309,-4.7309,-4.7309,-4.7309,-4.8604,-4.8604,-4.8604,-4.8604,-4.8604,-4.8604,-4.8604,-4.8604,-4.8604,-4.8604,-4.8563,-4.8537,-4.848,-4.8412,-4.8286,-4.8202,-4.816,-4.8091,-4.788,-4.788,-4.7709,-4.7538,-4.7467,-4.7396,-4.7309,-4.7309,-4.7309,-4.7309,-4.7309,-4.7309,-4.7309,-4.7309,-4.7309,-4.7309,-4.7309,-4.7309,-4.7309,-4.7309,-4.7309,-4.7309,-4.7309,-4.7309,-4.7309,-4.7309,-4.7309,-4.7309,-4.7309,-4.7309,-4.7309,-4.7309,-4.7309,-4.7309,-4.7309,-4.7309,-4.7309,-4.7309,-4.7309,-4.7309,-4.7309,-4.7309,-4.7309,-4.7309,-4.7309,-4.7309,-4.7309,-4.7309,-4.7309,-4.7309,-4.7309,-4.7309,-4.7309,-4.7309,-4.7309,-4.7309,-4.7309,-4.7309,-4.7309,-4.7309,-4.7309,-4.7309,-4.7309,-4.7309,-4.7309,-4.7309,-4.7309,-4.7309,-4.7309,-4.7309,-4.7309,-4.7309,-4.7309,-4.7309,-4.7309,-4.7309,-4.7309,-4.7309,-4.7309,-4.7309,-4.7309,-4.7309,-4.7309,-4.7309,-4.7309,-4.7309,-4.7309,-4.7309,-4.7309,-4.7309,-4.7309,-4.7309,-4.7309,-4.7309,-4.7309,-4.7309,-4.7309,-4.8604,-4.8604,-4.8604,-4.8604,-4.8604,-4.8604,-4.8604,-4.8604,-4.8604,-4.8604,-4.8563,-4.8412,-4.837,-4.8301,-4.8091,-4.8007,-4.7964,-4.7922,-4.7794,-4.7666,-4.7553,-4.7467,-4.7381,-4.7309,-4.7309,-4.7309,-4.7309,-4.7309,-4.7309,-4.7309,-4.7309,-4.7309,-4.7309,-4.7309,-4.7309,-4.7309,-4.7309,-4.7309,-4.7309,-4.7309,-4.7309,-4.7309,-4.7309,-4.7309,-4.7309,-4.7309,-4.7309,-4.7309,-4.7309,-4.7309,-4.7309,-4.7309,-4.7309,-4.7309,-4.7309,-4.7309,-4.7309,-4.7309,-4.7309,-4.7309,-4.7309,-4.7309,-4.7309,-4.7309,-4.7309,-4.7309,-4.7309,-4.7309,-4.7309,-4.7309,-4.7309,-4.7309,-4.7309,-4.7309,-4.7309,-4.7309,-4.7309,-4.7309,-4.7309,-4.7309,-4.7309,-4.7309,-4.7309,-4.7309,-4.7309,-4.7309,-4.7309,-4.7309,-4.7309,-4.7309,-4.7309,-4.7309,-4.7309,-4.7309,-4.7309,-4.7309,-4.7309,-4.7309,-4.7309,-4.7309,-4.7309,-4.7309,-4.7309,-4.7309,-4.7309,-4.7309,-4.7309,-4.7309,-4.7309,-4.7309,-4.7309,-4.7309,-4.7309,-4.7309,-4.7309,-4.8604,-4.8604,-4.8604,-4.8604,-4.8604,-4.8604,-4.8604,-4.8604,-4.8604,-4.8604,-4.8604,-4.8521,-4.8412,-4.8301,-4.8091,-4.788,-4.7709,-4.7596,-4.7467,-4.7439,-4.7439,-4.7337,-4.7309,-4.7309,-4.7309,-4.7309,-4.7309,-4.7309,-4.7309,-4.7309,-4.7309,-4.7309,-4.7309,-4.7309,-4.7309,-4.7309,-4.7309,-4.7309,-4.7309,-4.7309,-4.7309,-4.7309,-4.7309,-4.7309,-4.7309,-4.7309,-4.7309,-4.7309,-4.7309,-4.7309,-4.7309,-4.7309,-4.7309,-4.7309,-4.7309,-4.7309,-4.7309,-4.7309,-4.7309,-4.7309,-4.7309,-4.7309,-4.7309,-4.7309,-4.7309,-4.7309,-4.7309,-4.7309,-4.7309,-4.7309,-4.7309,-4.7309,-4.7309,-4.7309,-4.7309,-4.7309,-4.7309,-4.7309,-4.7309,-4.7309,-4.7309,-4.7309,-4.7309,-4.7309,-4.7309,-4.7309,-4.7309,-4.7309,-4.7309,-4.7309,-4.7309,-4.7309,-4.7309,-4.7309,-4.7309,-4.7309,-4.7309,-4.7309,-4.7309,-4.7309,-4.7309,-4.7309,-4.7309,-4.7309,-4.7309,-4.7309,-4.7309,-4.7309,-4.7309,-4.7309,-4.7309,-4.7309,-4.7309,-4.7309,-4.7309,-4.8604,-4.8604,-4.8604,-4.8604,-4.8604,-4.8604,-4.8604,-4.8604,-4.8604,-4.8604,-4.8578,-4.8495,-4.837,-4.816,-4.7922,-4.7724,-4.7482,-4.7396,-4.7352,-4.7352,-4.7309,-4.7309,-4.7309,-4.7309,-4.7309,-4.7309,-4.7309,-4.7309,-4.7309,-4.7309,-4.7309,-4.7309,-4.7309,-4.7309,-4.7309,-4.7309,-4.7309,-4.7309,-4.7309,-4.7309,-4.7309,-4.7309,-4.7309,-4.7309,-4.7309,-4.7309,-4.7309,-4.7309,-4.7309,-4.7309,-4.7309,-4.7309,-4.7309,-4.7309,-4.7309,-4.7309,-4.7309,-4.7309,-4.7309,-4.7309,-4.7309,-4.7309,-4.7309,-4.7309,-4.7309,-4.7309,-4.7309,-4.7309,-4.7309,-4.7309,-4.7309,-4.7309,-4.7309,-4.7309,-4.7309,-4.7309,-4.7309,-4.7309,-4.7309,-4.7309,-4.7309,-4.7309,-4.7309,-4.7309,-4.7309,-4.7309,-4.7309,-4.7309,-4.7309,-4.7309,-4.7309,-4.7309,-4.7309,-4.7309,-4.7309,-4.7309,-4.7309,-4.7309,-4.7309,-4.7309,-4.7309,-4.7309,-4.7309,-4.7309,-4.7309,-4.7309,-4.7309,-4.7309,-4.7309,-4.7309,-4.7309,-4.7309,-4.7309,-4.7309,-4.7309,-4.8604,-4.8604,-4.8604,-4.8604,-4.8604,-4.8604,-4.8604,-4.8604,-4.8604,-4.8604,-4.8578,-4.8412,-4.8244,-4.8049,-4.7852,-4.7596,-4.7439,-4.7309,-4.7309,-4.7309,-4.7309,-4.7309,-4.7309,-4.7309,-4.7309,-4.7309,-4.7309,-4.7309,-4.7309,-4.7309,-4.7309,-4.7309,-4.7309,-4.7309,-4.7309,-4.7309,-4.7309,-4.7309,-4.7309,-4.7309,-4.7309,-4.7309,-4.7309,-4.7309,-4.7309,-4.7309,-4.7309,-4.7309,-4.7309,-4.7309,-4.7309,-4.7309,-4.7309,-4.7309,-4.7309,-4.7309,-4.7309,-4.7309,-4.7309,-4.7309,-4.7309,-4.7309,-4.7309,-4.7309,-4.7309,-4.7309,-4.7309,-4.7309,-4.7309,-4.7309,-4.7309,-4.7309,-4.7309,-4.7309,-4.7309,-4.7309,-4.7309,-4.7309,-4.7309,-4.7309,-4.7309,-4.7309,-4.7309,-4.7309,-4.7309,-4.7309,-4.7309,-4.7309,-4.7309,-4.7309,-4.7309,-4.7309,-4.7309,-4.7309,-4.7309,-4.7309,-4.7309,-4.7309,-4.7309,-4.7309,-4.7309,-4.7309,-4.7309,-4.7309,-4.7309,-4.7309,-4.7309,-4.7309,-4.7309,-4.7309,-4.7309,-4.7309,-4.7309,-4.7309,-4.7222,-4.8604,-4.8604,-4.8604,-4.8604,-4.8604,-4.8604,-4.8604,-4.8604,-4.8604,-4.8563,-4.8563,-4.8537,-4.8328,-4.8007,-4.788,-4.7639,-4.7337,-4.7309,-4.7309,-4.7309,-4.7309,-4.7309,-4.7309,-4.7309,-4.7309,-4.7309,-4.7309,-4.7309,-4.7309,-4.7309,-4.7309,-4.7309,-4.7309,-4.7309,-4.7309,-4.7309,-4.7309,-4.7309,-4.7309,-4.7309,-4.7309,-4.7309,-4.7309,-4.7309,-4.7309,-4.7309,-4.7309,-4.7309,-4.7309,-4.7309,-4.7309,-4.7309,-4.7309,-4.7309,-4.7309,-4.7309,-4.7309,-4.7309,-4.7309,-4.7309,-4.7309,-4.7309,-4.7309,-4.7309,-4.7309,-4.7309,-4.7309,-4.7309,-4.7309,-4.7309,-4.7309,-4.7309,-4.7309,-4.7309,-4.7309,-4.7309,-4.7309,-4.7309,-4.7309,-4.7309,-4.7309,-4.7309,-4.7309,-4.7309,-4.7309,-4.7309,-4.7309,-4.7309,-4.7309,-4.7309,-4.7309,-4.7309,-4.7309,-4.7309,-4.7309,-4.7309,-4.7309,-4.7309,-4.7309,-4.7309,-4.7309,-4.7309,-4.7309,-4.7309,-4.7309,-4.7309,-4.7309,-4.7309,-4.7309,-4.7309,-4.7309,-4.7251,-4.7266,-4.7266,-4.7121,-4.8604,-4.8604,-4.8604,-4.8521,-4.8495,-4.8563,-4.8578,-4.8453,-4.8453,-4.8453,-4.8438,-4.8453,-4.8286,-4.7964,-4.788,-4.7681,-4.7337,-4.7309,-4.7309,-4.7309,-4.7309,-4.7309,-4.7309,-4.7309,-4.7309,-4.7309,-4.7309,-4.7309,-4.7309,-4.7309,-4.7309,-4.7309,-4.7309,-4.7309,-4.7309,-4.7309,-4.7309,-4.7309,-4.7309,-4.7309,-4.7309,-4.7309,-4.7309,-4.7309,-4.7309,-4.7309,-4.7309,-4.7309,-4.7309,-4.7309,-4.7309,-4.7309,-4.7309,-4.7309,-4.7309,-4.7309,-4.7309,-4.7309,-4.7309,-4.7309,-4.7309,-4.7309,-4.7309,-4.7309,-4.7309,-4.7309,-4.7309,-4.7309,-4.7309,-4.7309,-4.7309,-4.7309,-4.7309,-4.7309,-4.7309,-4.7309,-4.7309,-4.7309,-4.7309,-4.7309,-4.7309,-4.7309,-4.7309,-4.7309,-4.7309,-4.7309,-4.7309,-4.7309,-4.7309,-4.7309,-4.7309,-4.7309,-4.7309,-4.7309,-4.7309,-4.7309,-4.7309,-4.7309,-4.7309,-4.7309,-4.7309,-4.7309,-4.7309,-4.7309,-4.7309,-4.7309,-4.7309,-4.7309,-4.7309,-4.7309,-4.7251,-4.7251,-4.7207,-4.7121,-4.6931,-4.8604,-4.8604,-4.8578,-4.8453,-4.8343,-4.8453,-4.8412,-4.8301,-4.8244,-4.826,-4.826,-4.8202,-4.8091,-4.7922,-4.7709,-4.751,-4.7352,-4.7309,-4.7309,-4.7309,-4.7309,-4.7309,-4.7309,-4.7309,-4.7309,-4.7309,-4.7309,-4.7309,-4.7309,-4.7309,-4.7309,-4.7309,-4.7309,-4.7309,-4.7309,-4.7309,-4.7309,-4.7309,-4.7309,-4.7309,-4.7309,-4.7309,-4.7309,-4.7309,-4.7309,-4.7309,-4.7309,-4.7309,-4.7309,-4.7309,-4.7309,-4.7309,-4.7309,-4.7309,-4.7309,-4.7309,-4.7309,-4.7309,-4.7309,-4.7309,-4.7309,-4.7309,-4.7309,-4.7309,-4.7309,-4.7309,-4.7309,-4.7309,-4.7309,-4.7309,-4.7309,-4.7309,-4.7309,-4.7309,-4.7309,-4.7309,-4.7309,-4.7309,-4.7309,-4.7309,-4.7309,-4.7309,-4.7309,-4.7309,-4.7309,-4.7309,-4.7309,-4.7309,-4.7309,-4.7309,-4.7309,-4.7309,-4.7309,-4.7309,-4.7309,-4.7309,-4.7309,-4.7309,-4.7309,-4.7309,-4.7309,-4.7309,-4.7309,-4.7309,-4.7309,-4.7309,-4.7309,-4.7309,-4.7309,-4.7309,-4.7309,-4.7251,-4.7062,-4.6931,-4.6697,-4.8604,-4.8578,-4.8396,-4.8328,-4.8286,-4.816,-4.8091,-4.8049,-4.8049,-4.8049,-4.8007,-4.7837,-4.7709,-4.7666,-4.7639,-4.751,-4.7309,-4.7309,-4.7309,-4.7309,-4.7309,-4.7309,-4.7309,-4.7309,-4.7309,-4.7309,-4.7309,-4.7309,-4.7309,-4.7309,-4.7309,-4.7309,-4.7309,-4.7309,-4.7309,-4.7309,-4.7309,-4.7309,-4.7309,-4.7309,-4.7309,-4.7309,-4.7309,-4.7309,-4.7309,-4.7309,-4.7309,-4.7309,-4.7309,-4.7309,-4.7309,-4.7309,-4.7309,-4.7309,-4.7309,-4.7309,-4.7309,-4.7309,-4.7309,-4.7309,-4.7309,-4.7309,-4.7309,-4.7309,-4.7309,-4.7309,-4.7309,-4.7309,-4.7309,-4.7309,-4.7309,-4.7309,-4.7309,-4.7309,-4.7309,-4.7309,-4.7309,-4.7309,-4.7309,-4.7309,-4.7309,-4.7309,-4.7309,-4.7309,-4.7309,-4.7309,-4.7309,-4.7309,-4.7309,-4.7309,-4.7309,-4.7309,-4.7309,-4.7309,-4.7309,-4.7309,-4.7309,-4.7309,-4.7309,-4.7309,-4.7309,-4.7309,-4.7309,-4.7309,-4.7309,-4.7309,-4.7309,-4.7309,-4.7309,-4.7309,-4.7309,-4.7207,-4.7019,-4.68,-4.6609]}]]